<?xml version="1.0" encoding="UTF-8" standalone="no" ?>
<gpx xmlns="http://www.topografix.com/GPX/1/1" xmlns:xsi="http://www.w3.org/2001/XMLSchema-instance" xsi:schemaLocation="http://www.topografix.com/GPX/1/1 http://www.topografix.com/GPX/1/1/gpx.xsd" version="1.1" creator="VisuGPX - https://www.visugpx.com">
  <metadata>
    <name>Damiatte - Pigeonnier de La Brunié 2017-12-20</name>
    <desc><![CDATA[
]]></desc>
  </metadata>
  <trk>
    <name><![CDATA[Damiatte - Pigeonnier de La Brunié 2017-12-20]]></name>
    <extensions>
      <line xmlns="http://www.topografix.com/GPX/gpx_style/0/2">
        <width>4</width>
      </line>
    </extensions>
    <trkseg>
      <trkpt lat="43.65454" lon="1.97766">
        <ele>67.4</ele>
        <time>2017-12-20T09:04:12.000Z</time>
      </trkpt>
      <trkpt lat="43.65454" lon="1.97766">
        <ele>67.3</ele>
        <time>2017-12-20T09:04:13.000Z</time>
      </trkpt>
      <trkpt lat="43.65446" lon="1.97774">
        <ele>66.3</ele>
        <time>2017-12-20T09:06:07.000Z</time>
      </trkpt>
      <trkpt lat="43.65442" lon="1.97785">
        <ele>66.4</ele>
        <time>2017-12-20T09:06:15.000Z</time>
      </trkpt>
      <trkpt lat="43.65435" lon="1.97796">
        <ele>66.4</ele>
        <time>2017-12-20T09:06:23.000Z</time>
      </trkpt>
      <trkpt lat="43.65432" lon="1.97808">
        <ele>66.4</ele>
        <time>2017-12-20T09:06:33.000Z</time>
      </trkpt>
      <trkpt lat="43.65438" lon="1.97817">
        <ele>66.4</ele>
        <time>2017-12-20T09:06:40.000Z</time>
      </trkpt>
      <trkpt lat="43.65445" lon="1.97824">
        <ele>66.4</ele>
        <time>2017-12-20T09:06:47.000Z</time>
      </trkpt>
      <trkpt lat="43.65453" lon="1.97832">
        <ele>66.4</ele>
        <time>2017-12-20T09:06:55.000Z</time>
      </trkpt>
      <trkpt lat="43.6546" lon="1.97841">
        <ele>66.4</ele>
        <time>2017-12-20T09:07:03.000Z</time>
      </trkpt>
      <trkpt lat="43.65465" lon="1.97852">
        <ele>66.4</ele>
        <time>2017-12-20T09:07:12.000Z</time>
      </trkpt>
      <trkpt lat="43.65472" lon="1.97859">
        <ele>66.4</ele>
        <time>2017-12-20T09:07:20.000Z</time>
      </trkpt>
      <trkpt lat="43.65479" lon="1.97868">
        <ele>66.3</ele>
        <time>2017-12-20T09:07:28.000Z</time>
      </trkpt>
      <trkpt lat="43.65486" lon="1.97878">
        <ele>64.8</ele>
        <time>2017-12-20T09:07:35.000Z</time>
      </trkpt>
      <trkpt lat="43.65494" lon="1.97886">
        <ele>65.9</ele>
        <time>2017-12-20T09:07:43.000Z</time>
      </trkpt>
      <trkpt lat="43.65502" lon="1.97895">
        <ele>66.3</ele>
        <time>2017-12-20T09:07:52.000Z</time>
      </trkpt>
      <trkpt lat="43.6551" lon="1.97901">
        <ele>66.1</ele>
        <time>2017-12-20T09:07:59.000Z</time>
      </trkpt>
      <trkpt lat="43.65517" lon="1.9791">
        <ele>61.4</ele>
        <time>2017-12-20T09:08:09.000Z</time>
      </trkpt>
      <trkpt lat="43.65525" lon="1.97918">
        <ele>60.6</ele>
        <time>2017-12-20T09:08:17.000Z</time>
      </trkpt>
      <trkpt lat="43.65532" lon="1.97928">
        <ele>65</ele>
        <time>2017-12-20T09:08:23.000Z</time>
      </trkpt>
      <trkpt lat="43.65539" lon="1.97939">
        <ele>67.4</ele>
        <time>2017-12-20T09:08:30.000Z</time>
      </trkpt>
      <trkpt lat="43.65546" lon="1.97946">
        <ele>68</ele>
        <time>2017-12-20T09:08:37.000Z</time>
      </trkpt>
      <trkpt lat="43.65554" lon="1.97953">
        <ele>68</ele>
        <time>2017-12-20T09:08:45.000Z</time>
      </trkpt>
      <trkpt lat="43.65562" lon="1.97961">
        <ele>67.7</ele>
        <time>2017-12-20T09:08:52.000Z</time>
      </trkpt>
      <trkpt lat="43.65569" lon="1.9797">
        <ele>67.4</ele>
        <time>2017-12-20T09:08:59.000Z</time>
      </trkpt>
      <trkpt lat="43.65577" lon="1.97979">
        <ele>64.1</ele>
        <time>2017-12-20T09:09:07.000Z</time>
      </trkpt>
      <trkpt lat="43.65584" lon="1.97988">
        <ele>64.8</ele>
        <time>2017-12-20T09:09:14.000Z</time>
      </trkpt>
      <trkpt lat="43.6559" lon="1.97997">
        <ele>65.3</ele>
        <time>2017-12-20T09:09:21.000Z</time>
      </trkpt>
      <trkpt lat="43.65599" lon="1.98006">
        <ele>65.6</ele>
        <time>2017-12-20T09:09:30.000Z</time>
      </trkpt>
      <trkpt lat="43.65607" lon="1.98015">
        <ele>65.8</ele>
        <time>2017-12-20T09:09:37.000Z</time>
      </trkpt>
      <trkpt lat="43.65613" lon="1.98025">
        <ele>65.9</ele>
        <time>2017-12-20T09:09:44.000Z</time>
      </trkpt>
      <trkpt lat="43.6562" lon="1.98033">
        <ele>65.9</ele>
        <time>2017-12-20T09:09:51.000Z</time>
      </trkpt>
      <trkpt lat="43.65628" lon="1.98041">
        <ele>65.9</ele>
        <time>2017-12-20T09:09:59.000Z</time>
      </trkpt>
      <trkpt lat="43.65633" lon="1.98052">
        <ele>65.9</ele>
        <time>2017-12-20T09:10:06.000Z</time>
      </trkpt>
      <trkpt lat="43.6564" lon="1.98059">
        <ele>65.9</ele>
        <time>2017-12-20T09:10:13.000Z</time>
      </trkpt>
      <trkpt lat="43.65642" lon="1.98073">
        <ele>66.4</ele>
        <time>2017-12-20T09:10:24.000Z</time>
      </trkpt>
      <trkpt lat="43.65641" lon="1.98085">
        <ele>66.9</ele>
        <time>2017-12-20T09:10:32.000Z</time>
      </trkpt>
      <trkpt lat="43.65636" lon="1.98097">
        <ele>67.8</ele>
        <time>2017-12-20T09:10:39.000Z</time>
      </trkpt>
      <trkpt lat="43.65631" lon="1.98108">
        <ele>68.4</ele>
        <time>2017-12-20T09:10:47.000Z</time>
      </trkpt>
      <trkpt lat="43.65627" lon="1.98121">
        <ele>68.5</ele>
        <time>2017-12-20T09:10:55.000Z</time>
      </trkpt>
      <trkpt lat="43.65624" lon="1.98134">
        <ele>68.5</ele>
        <time>2017-12-20T09:11:02.000Z</time>
      </trkpt>
      <trkpt lat="43.65624" lon="1.98147">
        <ele>68.5</ele>
        <time>2017-12-20T09:11:10.000Z</time>
      </trkpt>
      <trkpt lat="43.65628" lon="1.98159">
        <ele>68.4</ele>
        <time>2017-12-20T09:11:16.000Z</time>
      </trkpt>
      <trkpt lat="43.6563" lon="1.98172">
        <ele>68.4</ele>
        <time>2017-12-20T09:11:23.000Z</time>
      </trkpt>
      <trkpt lat="43.65633" lon="1.98185">
        <ele>68.4</ele>
        <time>2017-12-20T09:11:31.000Z</time>
      </trkpt>
      <trkpt lat="43.65638" lon="1.98196">
        <ele>68.5</ele>
        <time>2017-12-20T09:11:38.000Z</time>
      </trkpt>
      <trkpt lat="43.65644" lon="1.98206">
        <ele>68.8</ele>
        <time>2017-12-20T09:11:46.000Z</time>
      </trkpt>
      <trkpt lat="43.65647" lon="1.9822">
        <ele>69.2</ele>
        <time>2017-12-20T09:11:52.000Z</time>
      </trkpt>
      <trkpt lat="43.65653" lon="1.98229">
        <ele>69.6</ele>
        <time>2017-12-20T09:11:58.000Z</time>
      </trkpt>
      <trkpt lat="43.65653" lon="1.98244">
        <ele>70</ele>
        <time>2017-12-20T09:12:04.000Z</time>
      </trkpt>
      <trkpt lat="43.65658" lon="1.98256">
        <ele>144.8</ele>
        <time>2017-12-20T09:12:09.000Z</time>
      </trkpt>
      <trkpt lat="43.65661" lon="1.98269">
        <ele>144.7</ele>
        <time>2017-12-20T09:12:17.000Z</time>
      </trkpt>
      <trkpt lat="43.65666" lon="1.98279">
        <ele>144.7</ele>
        <time>2017-12-20T09:12:24.000Z</time>
      </trkpt>
      <trkpt lat="43.65671" lon="1.98287">
        <ele>144.6</ele>
        <time>2017-12-20T09:12:32.000Z</time>
      </trkpt>
      <trkpt lat="43.65677" lon="1.98296">
        <ele>144.6</ele>
        <time>2017-12-20T09:12:39.000Z</time>
      </trkpt>
      <trkpt lat="43.65684" lon="1.98306">
        <ele>144.7</ele>
        <time>2017-12-20T09:12:45.000Z</time>
      </trkpt>
      <trkpt lat="43.6569" lon="1.98319">
        <ele>144.7</ele>
        <time>2017-12-20T09:12:54.000Z</time>
      </trkpt>
      <trkpt lat="43.65696" lon="1.98328">
        <ele>144.8</ele>
        <time>2017-12-20T09:13:01.000Z</time>
      </trkpt>
      <trkpt lat="43.65701" lon="1.98337">
        <ele>144.8</ele>
        <time>2017-12-20T09:13:06.000Z</time>
      </trkpt>
      <trkpt lat="43.65705" lon="1.98343">
        <ele>145</ele>
        <time>2017-12-20T09:13:12.000Z</time>
      </trkpt>
      <trkpt lat="43.6571" lon="1.98352">
        <ele>145.2</ele>
        <time>2017-12-20T09:13:18.000Z</time>
      </trkpt>
      <trkpt lat="43.65716" lon="1.98361">
        <ele>145.3</ele>
        <time>2017-12-20T09:13:25.000Z</time>
      </trkpt>
      <trkpt lat="43.65722" lon="1.98368">
        <ele>145.5</ele>
        <time>2017-12-20T09:13:34.000Z</time>
      </trkpt>
      <trkpt lat="43.65726" lon="1.98377">
        <ele>145.6</ele>
        <time>2017-12-20T09:13:42.000Z</time>
      </trkpt>
      <trkpt lat="43.65734" lon="1.98389">
        <ele>145.7</ele>
        <time>2017-12-20T09:13:49.000Z</time>
      </trkpt>
      <trkpt lat="43.65741" lon="1.98397">
        <ele>145.9</ele>
        <time>2017-12-20T09:13:55.000Z</time>
      </trkpt>
      <trkpt lat="43.65744" lon="1.98405">
        <ele>145.9</ele>
        <time>2017-12-20T09:14:03.000Z</time>
      </trkpt>
      <trkpt lat="43.65748" lon="1.98414">
        <ele>146</ele>
        <time>2017-12-20T09:14:09.000Z</time>
      </trkpt>
      <trkpt lat="43.65755" lon="1.98423">
        <ele>146.3</ele>
        <time>2017-12-20T09:14:20.000Z</time>
      </trkpt>
      <trkpt lat="43.65761" lon="1.98432">
        <ele>146.6</ele>
        <time>2017-12-20T09:14:28.000Z</time>
      </trkpt>
      <trkpt lat="43.65765" lon="1.98444">
        <ele>146.8</ele>
        <time>2017-12-20T09:14:33.000Z</time>
      </trkpt>
      <trkpt lat="43.65772" lon="1.98456">
        <ele>147.1</ele>
        <time>2017-12-20T09:14:42.000Z</time>
      </trkpt>
      <trkpt lat="43.65778" lon="1.98466">
        <ele>147.4</ele>
        <time>2017-12-20T09:14:50.000Z</time>
      </trkpt>
      <trkpt lat="43.65784" lon="1.98477">
        <ele>147.7</ele>
        <time>2017-12-20T09:14:59.000Z</time>
      </trkpt>
      <trkpt lat="43.65789" lon="1.98486">
        <ele>147.9</ele>
        <time>2017-12-20T09:15:07.000Z</time>
      </trkpt>
      <trkpt lat="43.65796" lon="1.98496">
        <ele>148.1</ele>
        <time>2017-12-20T09:15:15.000Z</time>
      </trkpt>
      <trkpt lat="43.65803" lon="1.98506">
        <ele>77.6</ele>
        <time>2017-12-20T09:15:25.000Z</time>
      </trkpt>
      <trkpt lat="43.65812" lon="1.98511">
        <ele>77.6</ele>
        <time>2017-12-20T09:15:32.000Z</time>
      </trkpt>
      <trkpt lat="43.65821" lon="1.98512">
        <ele>77.7</ele>
        <time>2017-12-20T09:15:39.000Z</time>
      </trkpt>
      <trkpt lat="43.65831" lon="1.98514">
        <ele>78.2</ele>
        <time>2017-12-20T09:15:47.000Z</time>
      </trkpt>
      <trkpt lat="43.6584" lon="1.98518">
        <ele>78.7</ele>
        <time>2017-12-20T09:15:55.000Z</time>
      </trkpt>
      <trkpt lat="43.65847" lon="1.98525">
        <ele>79.3</ele>
        <time>2017-12-20T09:16:02.000Z</time>
      </trkpt>
      <trkpt lat="43.65855" lon="1.9853">
        <ele>148.8</ele>
        <time>2017-12-20T09:16:09.000Z</time>
      </trkpt>
      <trkpt lat="43.65863" lon="1.98538">
        <ele>148.8</ele>
        <time>2017-12-20T09:16:16.000Z</time>
      </trkpt>
      <trkpt lat="43.65872" lon="1.98545">
        <ele>148.9</ele>
        <time>2017-12-20T09:16:23.000Z</time>
      </trkpt>
      <trkpt lat="43.65883" lon="1.98551">
        <ele>149.1</ele>
        <time>2017-12-20T09:16:30.000Z</time>
      </trkpt>
      <trkpt lat="43.65898" lon="1.98553">
        <ele>149.5</ele>
        <time>2017-12-20T09:16:36.000Z</time>
      </trkpt>
      <trkpt lat="43.65905" lon="1.98561">
        <ele>149.6</ele>
        <time>2017-12-20T09:16:44.000Z</time>
      </trkpt>
      <trkpt lat="43.65907" lon="1.98569">
        <ele>149.7</ele>
        <time>2017-12-20T09:16:50.000Z</time>
      </trkpt>
      <trkpt lat="43.65906" lon="1.98578">
        <ele>82.4</ele>
        <time>2017-12-20T09:16:56.000Z</time>
      </trkpt>
      <trkpt lat="43.65904" lon="1.98589">
        <ele>149.6</ele>
        <time>2017-12-20T09:16:58.000Z</time>
      </trkpt>
      <trkpt lat="43.65905" lon="1.986">
        <ele>82.8</ele>
        <time>2017-12-20T09:17:07.000Z</time>
      </trkpt>
      <trkpt lat="43.65906" lon="1.98609">
        <ele>149.7</ele>
        <time>2017-12-20T09:17:12.000Z</time>
      </trkpt>
      <trkpt lat="43.65909" lon="1.98618">
        <ele>149.8</ele>
        <time>2017-12-20T09:17:16.000Z</time>
      </trkpt>
      <trkpt lat="43.65914" lon="1.98624">
        <ele>149.9</ele>
        <time>2017-12-20T09:17:22.000Z</time>
      </trkpt>
      <trkpt lat="43.65917" lon="1.98631">
        <ele>150</ele>
        <time>2017-12-20T09:17:25.000Z</time>
      </trkpt>
      <trkpt lat="43.65922" lon="1.98641">
        <ele>83.9</ele>
        <time>2017-12-20T09:17:33.000Z</time>
      </trkpt>
      <trkpt lat="43.65929" lon="1.98651">
        <ele>84.1</ele>
        <time>2017-12-20T09:17:42.000Z</time>
      </trkpt>
      <trkpt lat="43.65933" lon="1.98662">
        <ele>84.2</ele>
        <time>2017-12-20T09:17:49.000Z</time>
      </trkpt>
      <trkpt lat="43.65946" lon="1.98672">
        <ele>84.6</ele>
        <time>2017-12-20T09:18:01.000Z</time>
      </trkpt>
      <trkpt lat="43.65947" lon="1.98687">
        <ele>84.8</ele>
        <time>2017-12-20T09:18:06.000Z</time>
      </trkpt>
      <trkpt lat="43.65951" lon="1.98698">
        <ele>85.1</ele>
        <time>2017-12-20T09:18:13.000Z</time>
      </trkpt>
      <trkpt lat="43.65954" lon="1.98712">
        <ele>85.3</ele>
        <time>2017-12-20T09:18:20.000Z</time>
      </trkpt>
      <trkpt lat="43.65958" lon="1.98723">
        <ele>85.8</ele>
        <time>2017-12-20T09:18:27.000Z</time>
      </trkpt>
      <trkpt lat="43.65962" lon="1.98737">
        <ele>86.6</ele>
        <time>2017-12-20T09:18:35.000Z</time>
      </trkpt>
      <trkpt lat="43.65964" lon="1.98749">
        <ele>87.5</ele>
        <time>2017-12-20T09:18:41.000Z</time>
      </trkpt>
      <trkpt lat="43.65966" lon="1.98762">
        <ele>88.3</ele>
        <time>2017-12-20T09:18:48.000Z</time>
      </trkpt>
      <trkpt lat="43.65971" lon="1.98774">
        <ele>88.8</ele>
        <time>2017-12-20T09:18:54.000Z</time>
      </trkpt>
      <trkpt lat="43.65973" lon="1.98785">
        <ele>149.6</ele>
        <time>2017-12-20T09:19:02.000Z</time>
      </trkpt>
      <trkpt lat="43.65975" lon="1.98797">
        <ele>89.8</ele>
        <time>2017-12-20T09:19:09.000Z</time>
      </trkpt>
      <trkpt lat="43.65974" lon="1.9881">
        <ele>90.2</ele>
        <time>2017-12-20T09:19:17.000Z</time>
      </trkpt>
      <trkpt lat="43.65975" lon="1.98824">
        <ele>90.5</ele>
        <time>2017-12-20T09:19:24.000Z</time>
      </trkpt>
      <trkpt lat="43.65976" lon="1.98838">
        <ele>90.9</ele>
        <time>2017-12-20T09:19:32.000Z</time>
      </trkpt>
      <trkpt lat="43.65976" lon="1.98852">
        <ele>91.2</ele>
        <time>2017-12-20T09:19:40.000Z</time>
      </trkpt>
      <trkpt lat="43.65973" lon="1.98865">
        <ele>91.6</ele>
        <time>2017-12-20T09:19:49.000Z</time>
      </trkpt>
      <trkpt lat="43.65968" lon="1.98876">
        <ele>92</ele>
        <time>2017-12-20T09:19:56.000Z</time>
      </trkpt>
      <trkpt lat="43.6596" lon="1.98885">
        <ele>92.7</ele>
        <time>2017-12-20T09:20:04.000Z</time>
      </trkpt>
      <trkpt lat="43.65952" lon="1.9889">
        <ele>93.1</ele>
        <time>2017-12-20T09:20:09.000Z</time>
      </trkpt>
      <trkpt lat="43.65946" lon="1.98901">
        <ele>93.6</ele>
        <time>2017-12-20T09:20:17.000Z</time>
      </trkpt>
      <trkpt lat="43.65943" lon="1.98912">
        <ele>93.9</ele>
        <time>2017-12-20T09:20:22.000Z</time>
      </trkpt>
      <trkpt lat="43.6594" lon="1.98926">
        <ele>94.3</ele>
        <time>2017-12-20T09:20:30.000Z</time>
      </trkpt>
      <trkpt lat="43.65938" lon="1.98939">
        <ele>94.7</ele>
        <time>2017-12-20T09:20:38.000Z</time>
      </trkpt>
      <trkpt lat="43.65937" lon="1.98952">
        <ele>95.1</ele>
        <time>2017-12-20T09:20:45.000Z</time>
      </trkpt>
      <trkpt lat="43.65934" lon="1.98966">
        <ele>95.3</ele>
        <time>2017-12-20T09:20:51.000Z</time>
      </trkpt>
      <trkpt lat="43.65932" lon="1.98978">
        <ele>95.6</ele>
        <time>2017-12-20T09:20:57.000Z</time>
      </trkpt>
      <trkpt lat="43.6593" lon="1.9899">
        <ele>96</ele>
        <time>2017-12-20T09:21:04.000Z</time>
      </trkpt>
      <trkpt lat="43.6593" lon="1.99004">
        <ele>96.1</ele>
        <time>2017-12-20T09:21:11.000Z</time>
      </trkpt>
      <trkpt lat="43.65924" lon="1.99015">
        <ele>96.5</ele>
        <time>2017-12-20T09:21:17.000Z</time>
      </trkpt>
      <trkpt lat="43.65922" lon="1.99028">
        <ele>96.9</ele>
        <time>2017-12-20T09:21:25.000Z</time>
      </trkpt>
      <trkpt lat="43.65932" lon="1.99034">
        <ele>97.2</ele>
        <time>2017-12-20T09:21:34.000Z</time>
      </trkpt>
      <trkpt lat="43.6594" lon="1.99043">
        <ele>97.4</ele>
        <time>2017-12-20T09:21:41.000Z</time>
      </trkpt>
      <trkpt lat="43.65949" lon="1.99043">
        <ele>97.6</ele>
        <time>2017-12-20T09:21:47.000Z</time>
      </trkpt>
      <trkpt lat="43.65959" lon="1.99047">
        <ele>97.9</ele>
        <time>2017-12-20T09:21:53.000Z</time>
      </trkpt>
      <trkpt lat="43.65969" lon="1.99052">
        <ele>98.3</ele>
        <time>2017-12-20T09:22:00.000Z</time>
      </trkpt>
      <trkpt lat="43.65978" lon="1.99055">
        <ele>99.3</ele>
        <time>2017-12-20T09:22:13.000Z</time>
      </trkpt>
      <trkpt lat="43.65986" lon="1.99061">
        <ele>100.3</ele>
        <time>2017-12-20T09:22:21.000Z</time>
      </trkpt>
      <trkpt lat="43.65995" lon="1.99066">
        <ele>101.4</ele>
        <time>2017-12-20T09:22:29.000Z</time>
      </trkpt>
      <trkpt lat="43.66003" lon="1.99072">
        <ele>102.2</ele>
        <time>2017-12-20T09:22:36.000Z</time>
      </trkpt>
      <trkpt lat="43.66012" lon="1.99076">
        <ele>102.7</ele>
        <time>2017-12-20T09:22:42.000Z</time>
      </trkpt>
      <trkpt lat="43.6602" lon="1.99082">
        <ele>103.6</ele>
        <time>2017-12-20T09:22:49.000Z</time>
      </trkpt>
      <trkpt lat="43.66028" lon="1.99091">
        <ele>104.3</ele>
        <time>2017-12-20T09:22:57.000Z</time>
      </trkpt>
      <trkpt lat="43.66037" lon="1.99094">
        <ele>104.8</ele>
        <time>2017-12-20T09:23:04.000Z</time>
      </trkpt>
      <trkpt lat="43.66046" lon="1.99095">
        <ele>105.2</ele>
        <time>2017-12-20T09:23:12.000Z</time>
      </trkpt>
      <trkpt lat="43.66055" lon="1.99097">
        <ele>105.5</ele>
        <time>2017-12-20T09:23:19.000Z</time>
      </trkpt>
      <trkpt lat="43.66065" lon="1.99098">
        <ele>105.8</ele>
        <time>2017-12-20T09:23:26.000Z</time>
      </trkpt>
      <trkpt lat="43.66074" lon="1.99101">
        <ele>106.1</ele>
        <time>2017-12-20T09:23:34.000Z</time>
      </trkpt>
      <trkpt lat="43.66083" lon="1.99103">
        <ele>106.4</ele>
        <time>2017-12-20T09:23:42.000Z</time>
      </trkpt>
      <trkpt lat="43.66092" lon="1.99105">
        <ele>106.8</ele>
        <time>2017-12-20T09:23:50.000Z</time>
      </trkpt>
      <trkpt lat="43.66101" lon="1.99105">
        <ele>107.3</ele>
        <time>2017-12-20T09:23:57.000Z</time>
      </trkpt>
      <trkpt lat="43.6611" lon="1.99106">
        <ele>107.9</ele>
        <time>2017-12-20T09:24:04.000Z</time>
      </trkpt>
      <trkpt lat="43.66119" lon="1.99108">
        <ele>108.5</ele>
        <time>2017-12-20T09:24:12.000Z</time>
      </trkpt>
      <trkpt lat="43.66129" lon="1.99103">
        <ele>108.2</ele>
        <time>2017-12-20T09:24:21.000Z</time>
      </trkpt>
      <trkpt lat="43.66138" lon="1.99106">
        <ele>108.9</ele>
        <time>2017-12-20T09:24:26.000Z</time>
      </trkpt>
      <trkpt lat="43.66147" lon="1.99111">
        <ele>109.6</ele>
        <time>2017-12-20T09:24:33.000Z</time>
      </trkpt>
      <trkpt lat="43.66156" lon="1.99114">
        <ele>109.7</ele>
        <time>2017-12-20T09:24:39.000Z</time>
      </trkpt>
      <trkpt lat="43.66166" lon="1.99117">
        <ele>109.9</ele>
        <time>2017-12-20T09:24:47.000Z</time>
      </trkpt>
      <trkpt lat="43.66175" lon="1.99122">
        <ele>110.3</ele>
        <time>2017-12-20T09:24:56.000Z</time>
      </trkpt>
      <trkpt lat="43.66184" lon="1.99126">
        <ele>110.5</ele>
        <time>2017-12-20T09:25:03.000Z</time>
      </trkpt>
      <trkpt lat="43.66192" lon="1.99133">
        <ele>110.9</ele>
        <time>2017-12-20T09:25:12.000Z</time>
      </trkpt>
      <trkpt lat="43.662" lon="1.99141">
        <ele>113.6</ele>
        <time>2017-12-20T09:25:45.000Z</time>
      </trkpt>
      <trkpt lat="43.66199" lon="1.99155">
        <ele>114.5</ele>
        <time>2017-12-20T09:25:55.000Z</time>
      </trkpt>
      <trkpt lat="43.66201" lon="1.99169">
        <ele>114.9</ele>
        <time>2017-12-20T09:26:02.000Z</time>
      </trkpt>
      <trkpt lat="43.662" lon="1.99182">
        <ele>115.3</ele>
        <time>2017-12-20T09:26:10.000Z</time>
      </trkpt>
      <trkpt lat="43.662" lon="1.99196">
        <ele>115.4</ele>
        <time>2017-12-20T09:26:19.000Z</time>
      </trkpt>
      <trkpt lat="43.66199" lon="1.9921">
        <ele>115.5</ele>
        <time>2017-12-20T09:26:27.000Z</time>
      </trkpt>
      <trkpt lat="43.66198" lon="1.99224">
        <ele>115.9</ele>
        <time>2017-12-20T09:26:34.000Z</time>
      </trkpt>
      <trkpt lat="43.66199" lon="1.99236">
        <ele>115.3</ele>
        <time>2017-12-20T09:26:43.000Z</time>
      </trkpt>
      <trkpt lat="43.662" lon="1.9925">
        <ele>116.9</ele>
        <time>2017-12-20T09:26:53.000Z</time>
      </trkpt>
      <trkpt lat="43.662" lon="1.99264">
        <ele>116.7</ele>
        <time>2017-12-20T09:27:00.000Z</time>
      </trkpt>
      <trkpt lat="43.662" lon="1.99278">
        <ele>116.8</ele>
        <time>2017-12-20T09:27:09.000Z</time>
      </trkpt>
      <trkpt lat="43.66204" lon="1.9928">
        <ele>154.9</ele>
        <time>2017-12-20T09:27:20.000Z</time>
      </trkpt>
      <trkpt lat="43.66209" lon="1.99282">
        <ele>155</ele>
        <time>2017-12-20T09:27:28.000Z</time>
      </trkpt>
      <trkpt lat="43.66215" lon="1.99282">
        <ele>155.2</ele>
        <time>2017-12-20T09:27:38.000Z</time>
      </trkpt>
      <trkpt lat="43.66227" lon="1.9928">
        <ele>155.4</ele>
        <time>2017-12-20T09:27:47.000Z</time>
      </trkpt>
      <trkpt lat="43.66236" lon="1.99288">
        <ele>155.7</ele>
        <time>2017-12-20T09:27:57.000Z</time>
      </trkpt>
      <trkpt lat="43.66239" lon="1.99285">
        <ele>155.7</ele>
        <time>2017-12-20T09:27:58.418Z</time>
      </trkpt>
      <trkpt lat="43.66248" lon="1.99291">
        <ele>156</ele>
        <time>2017-12-20T09:28:03.000Z</time>
      </trkpt>
      <trkpt lat="43.66257" lon="1.99302">
        <ele>155.9</ele>
        <time>2017-12-20T09:28:14.000Z</time>
      </trkpt>
      <trkpt lat="43.66264" lon="1.99309">
        <ele>155.9</ele>
        <time>2017-12-20T09:28:21.000Z</time>
      </trkpt>
      <trkpt lat="43.66272" lon="1.99317">
        <ele>155.8</ele>
        <time>2017-12-20T09:28:28.000Z</time>
      </trkpt>
      <trkpt lat="43.66281" lon="1.99326">
        <ele>119.2</ele>
        <time>2017-12-20T09:28:36.000Z</time>
      </trkpt>
      <trkpt lat="43.66289" lon="1.99334">
        <ele>119.5</ele>
        <time>2017-12-20T09:28:44.000Z</time>
      </trkpt>
      <trkpt lat="43.66299" lon="1.99341">
        <ele>119.9</ele>
        <time>2017-12-20T09:28:53.000Z</time>
      </trkpt>
      <trkpt lat="43.66307" lon="1.99348">
        <ele>120.4</ele>
        <time>2017-12-20T09:29:04.000Z</time>
      </trkpt>
      <trkpt lat="43.66315" lon="1.99355">
        <ele>120.8</ele>
        <time>2017-12-20T09:29:11.000Z</time>
      </trkpt>
      <trkpt lat="43.66323" lon="1.99364">
        <ele>121.3</ele>
        <time>2017-12-20T09:29:18.000Z</time>
      </trkpt>
      <trkpt lat="43.6633" lon="1.99373">
        <ele>122.1</ele>
        <time>2017-12-20T09:29:27.000Z</time>
      </trkpt>
      <trkpt lat="43.66339" lon="1.99378">
        <ele>122.7</ele>
        <time>2017-12-20T09:29:35.000Z</time>
      </trkpt>
      <trkpt lat="43.66347" lon="1.99384">
        <ele>123.1</ele>
        <time>2017-12-20T09:29:42.000Z</time>
      </trkpt>
      <trkpt lat="43.66355" lon="1.9939">
        <ele>123.6</ele>
        <time>2017-12-20T09:29:55.000Z</time>
      </trkpt>
      <trkpt lat="43.66365" lon="1.99395">
        <ele>123.9</ele>
        <time>2017-12-20T09:30:04.000Z</time>
      </trkpt>
      <trkpt lat="43.66375" lon="1.994">
        <ele>124.1</ele>
        <time>2017-12-20T09:30:09.000Z</time>
      </trkpt>
      <trkpt lat="43.66384" lon="1.99406">
        <ele>124.3</ele>
        <time>2017-12-20T09:30:15.000Z</time>
      </trkpt>
      <trkpt lat="43.66394" lon="1.99404">
        <ele>124.5</ele>
        <time>2017-12-20T09:30:20.000Z</time>
      </trkpt>
      <trkpt lat="43.66401" lon="1.99412">
        <ele>125.1</ele>
        <time>2017-12-20T09:30:34.000Z</time>
      </trkpt>
      <trkpt lat="43.66409" lon="1.99419">
        <ele>125.8</ele>
        <time>2017-12-20T09:30:43.000Z</time>
      </trkpt>
      <trkpt lat="43.66417" lon="1.99424">
        <ele>126.7</ele>
        <time>2017-12-20T09:30:52.000Z</time>
      </trkpt>
      <trkpt lat="43.66426" lon="1.9943">
        <ele>127.5</ele>
        <time>2017-12-20T09:31:00.000Z</time>
      </trkpt>
      <trkpt lat="43.66435" lon="1.99437">
        <ele>128.3</ele>
        <time>2017-12-20T09:31:08.000Z</time>
      </trkpt>
      <trkpt lat="43.66444" lon="1.99442">
        <ele>129</ele>
        <time>2017-12-20T09:31:16.000Z</time>
      </trkpt>
      <trkpt lat="43.66452" lon="1.99448">
        <ele>129.6</ele>
        <time>2017-12-20T09:31:24.000Z</time>
      </trkpt>
      <trkpt lat="43.6646" lon="1.99454">
        <ele>130.1</ele>
        <time>2017-12-20T09:31:33.000Z</time>
      </trkpt>
      <trkpt lat="43.66469" lon="1.9946">
        <ele>130.6</ele>
        <time>2017-12-20T09:31:41.000Z</time>
      </trkpt>
      <trkpt lat="43.66477" lon="1.99468">
        <ele>131</ele>
        <time>2017-12-20T09:31:48.000Z</time>
      </trkpt>
      <trkpt lat="43.66485" lon="1.99476">
        <ele>131.5</ele>
        <time>2017-12-20T09:31:56.000Z</time>
      </trkpt>
      <trkpt lat="43.66493" lon="1.99481">
        <ele>132.2</ele>
        <time>2017-12-20T09:32:03.000Z</time>
      </trkpt>
      <trkpt lat="43.665" lon="1.9949">
        <ele>133</ele>
        <time>2017-12-20T09:32:12.000Z</time>
      </trkpt>
      <trkpt lat="43.66507" lon="1.995">
        <ele>131.9</ele>
        <time>2017-12-20T09:32:20.000Z</time>
      </trkpt>
      <trkpt lat="43.66515" lon="1.99509">
        <ele>133.3</ele>
        <time>2017-12-20T09:32:27.000Z</time>
      </trkpt>
      <trkpt lat="43.66522" lon="1.99518">
        <ele>134.3</ele>
        <time>2017-12-20T09:32:34.000Z</time>
      </trkpt>
      <trkpt lat="43.6653" lon="1.99525">
        <ele>135.3</ele>
        <time>2017-12-20T09:32:44.000Z</time>
      </trkpt>
      <trkpt lat="43.66538" lon="1.99532">
        <ele>135.7</ele>
        <time>2017-12-20T09:32:50.000Z</time>
      </trkpt>
      <trkpt lat="43.66545" lon="1.9954">
        <ele>135.9</ele>
        <time>2017-12-20T09:32:56.000Z</time>
      </trkpt>
      <trkpt lat="43.66553" lon="1.99549">
        <ele>136.3</ele>
        <time>2017-12-20T09:33:04.000Z</time>
      </trkpt>
      <trkpt lat="43.66563" lon="1.99551">
        <ele>136.6</ele>
        <time>2017-12-20T09:33:12.000Z</time>
      </trkpt>
      <trkpt lat="43.66572" lon="1.99546">
        <ele>137.1</ele>
        <time>2017-12-20T09:33:22.000Z</time>
      </trkpt>
      <trkpt lat="43.6658" lon="1.99541">
        <ele>138.6</ele>
        <time>2017-12-20T09:33:33.000Z</time>
      </trkpt>
      <trkpt lat="43.6659" lon="1.99539">
        <ele>140.2</ele>
        <time>2017-12-20T09:33:42.000Z</time>
      </trkpt>
      <trkpt lat="43.66599" lon="1.99535">
        <ele>141.5</ele>
        <time>2017-12-20T09:33:49.000Z</time>
      </trkpt>
      <trkpt lat="43.66608" lon="1.99531">
        <ele>143.4</ele>
        <time>2017-12-20T09:33:59.000Z</time>
      </trkpt>
      <trkpt lat="43.66618" lon="1.99528">
        <ele>145</ele>
        <time>2017-12-20T09:34:08.000Z</time>
      </trkpt>
      <trkpt lat="43.66626" lon="1.99522">
        <ele>146.9</ele>
        <time>2017-12-20T09:34:17.000Z</time>
      </trkpt>
      <trkpt lat="43.66636" lon="1.99518">
        <ele>148.5</ele>
        <time>2017-12-20T09:34:28.000Z</time>
      </trkpt>
      <trkpt lat="43.66645" lon="1.99516">
        <ele>149.6</ele>
        <time>2017-12-20T09:34:37.000Z</time>
      </trkpt>
      <trkpt lat="43.66654" lon="1.99517">
        <ele>150.9</ele>
        <time>2017-12-20T09:34:46.000Z</time>
      </trkpt>
      <trkpt lat="43.66663" lon="1.99518">
        <ele>152.5</ele>
        <time>2017-12-20T09:34:56.000Z</time>
      </trkpt>
      <trkpt lat="43.66672" lon="1.99519">
        <ele>154</ele>
        <time>2017-12-20T09:35:07.000Z</time>
      </trkpt>
      <trkpt lat="43.66682" lon="1.99519">
        <ele>155.6</ele>
        <time>2017-12-20T09:35:18.000Z</time>
      </trkpt>
      <trkpt lat="43.66692" lon="1.9952">
        <ele>157.1</ele>
        <time>2017-12-20T09:35:28.000Z</time>
      </trkpt>
      <trkpt lat="43.66702" lon="1.9952">
        <ele>158.2</ele>
        <time>2017-12-20T09:35:36.000Z</time>
      </trkpt>
      <trkpt lat="43.66711" lon="1.99524">
        <ele>159.5</ele>
        <time>2017-12-20T09:35:45.000Z</time>
      </trkpt>
      <trkpt lat="43.66719" lon="1.99527">
        <ele>160.7</ele>
        <time>2017-12-20T09:35:54.000Z</time>
      </trkpt>
      <trkpt lat="43.66727" lon="1.99534">
        <ele>161.8</ele>
        <time>2017-12-20T09:36:02.000Z</time>
      </trkpt>
      <trkpt lat="43.66736" lon="1.99538">
        <ele>163.1</ele>
        <time>2017-12-20T09:36:12.000Z</time>
      </trkpt>
      <trkpt lat="43.66744" lon="1.99545">
        <ele>164.6</ele>
        <time>2017-12-20T09:36:22.000Z</time>
      </trkpt>
      <trkpt lat="43.66751" lon="1.99553">
        <ele>165.8</ele>
        <time>2017-12-20T09:36:30.000Z</time>
      </trkpt>
      <trkpt lat="43.66757" lon="1.99564">
        <ele>167.5</ele>
        <time>2017-12-20T09:36:41.000Z</time>
      </trkpt>
      <trkpt lat="43.66759" lon="1.99577">
        <ele>170.1</ele>
        <time>2017-12-20T09:36:55.000Z</time>
      </trkpt>
      <trkpt lat="43.66757" lon="1.99591">
        <ele>171.5</ele>
        <time>2017-12-20T09:37:06.000Z</time>
      </trkpt>
      <trkpt lat="43.6676" lon="1.99604">
        <ele>172.9</ele>
        <time>2017-12-20T09:37:15.000Z</time>
      </trkpt>
      <trkpt lat="43.66759" lon="1.99617">
        <ele>174</ele>
        <time>2017-12-20T09:37:26.000Z</time>
      </trkpt>
      <trkpt lat="43.66761" lon="1.99629">
        <ele>174.7</ele>
        <time>2017-12-20T09:37:34.000Z</time>
      </trkpt>
      <trkpt lat="43.66764" lon="1.99641">
        <ele>175.3</ele>
        <time>2017-12-20T09:37:42.000Z</time>
      </trkpt>
      <trkpt lat="43.66766" lon="1.99654">
        <ele>176.2</ele>
        <time>2017-12-20T09:37:53.000Z</time>
      </trkpt>
      <trkpt lat="43.66771" lon="1.99665">
        <ele>177.2</ele>
        <time>2017-12-20T09:38:02.000Z</time>
      </trkpt>
      <trkpt lat="43.66775" lon="1.99676">
        <ele>178.2</ele>
        <time>2017-12-20T09:38:12.000Z</time>
      </trkpt>
      <trkpt lat="43.6678" lon="1.99686">
        <ele>178.9</ele>
        <time>2017-12-20T09:38:20.000Z</time>
      </trkpt>
      <trkpt lat="43.66786" lon="1.99697">
        <ele>179.9</ele>
        <time>2017-12-20T09:38:30.000Z</time>
      </trkpt>
      <trkpt lat="43.66792" lon="1.9971">
        <ele>180.9</ele>
        <time>2017-12-20T09:38:39.000Z</time>
      </trkpt>
      <trkpt lat="43.66796" lon="1.99721">
        <ele>182</ele>
        <time>2017-12-20T09:38:48.000Z</time>
      </trkpt>
      <trkpt lat="43.668" lon="1.99732">
        <ele>183.3</ele>
        <time>2017-12-20T09:38:59.000Z</time>
      </trkpt>
      <trkpt lat="43.66802" lon="1.99746">
        <ele>184.4</ele>
        <time>2017-12-20T09:39:09.000Z</time>
      </trkpt>
      <trkpt lat="43.66807" lon="1.99757">
        <ele>185.3</ele>
        <time>2017-12-20T09:39:17.000Z</time>
      </trkpt>
      <trkpt lat="43.66811" lon="1.99768">
        <ele>186.2</ele>
        <time>2017-12-20T09:39:27.000Z</time>
      </trkpt>
      <trkpt lat="43.66813" lon="1.99782">
        <ele>186.7</ele>
        <time>2017-12-20T09:39:37.000Z</time>
      </trkpt>
      <trkpt lat="43.66818" lon="1.99793">
        <ele>186.8</ele>
        <time>2017-12-20T09:39:44.000Z</time>
      </trkpt>
      <trkpt lat="43.66825" lon="1.99802">
        <ele>186.9</ele>
        <time>2017-12-20T09:39:53.000Z</time>
      </trkpt>
      <trkpt lat="43.66832" lon="1.99812">
        <ele>187.9</ele>
        <time>2017-12-20T09:40:05.000Z</time>
      </trkpt>
      <trkpt lat="43.66838" lon="1.99815">
        <ele>208.7</ele>
        <time>2017-12-20T09:40:18.000Z</time>
      </trkpt>
      <trkpt lat="43.66847" lon="1.99821">
        <ele>208.7</ele>
        <time>2017-12-20T09:40:37.000Z</time>
      </trkpt>
      <trkpt lat="43.66857" lon="1.99825">
        <ele>193.5</ele>
        <time>2017-12-20T09:40:51.000Z</time>
      </trkpt>
      <trkpt lat="43.66865" lon="1.99836">
        <ele>194.8</ele>
        <time>2017-12-20T09:41:02.000Z</time>
      </trkpt>
      <trkpt lat="43.66872" lon="1.99842">
        <ele>208.5</ele>
        <time>2017-12-20T09:41:15.000Z</time>
      </trkpt>
      <trkpt lat="43.6688" lon="1.99849">
        <ele>197.3</ele>
        <time>2017-12-20T09:41:20.000Z</time>
      </trkpt>
      <trkpt lat="43.66888" lon="1.99857">
        <ele>198.6</ele>
        <time>2017-12-20T09:41:29.000Z</time>
      </trkpt>
      <trkpt lat="43.66897" lon="1.99862">
        <ele>200</ele>
        <time>2017-12-20T09:41:36.000Z</time>
      </trkpt>
      <trkpt lat="43.66904" lon="1.99871">
        <ele>201.1</ele>
        <time>2017-12-20T09:41:45.000Z</time>
      </trkpt>
      <trkpt lat="43.66912" lon="1.99878">
        <ele>201.5</ele>
        <time>2017-12-20T09:41:53.000Z</time>
      </trkpt>
      <trkpt lat="43.66921" lon="1.99881">
        <ele>201.8</ele>
        <time>2017-12-20T09:42:03.000Z</time>
      </trkpt>
      <trkpt lat="43.6693" lon="1.99889">
        <ele>209.4</ele>
        <time>2017-12-20T09:42:09.000Z</time>
      </trkpt>
      <trkpt lat="43.66934" lon="1.99897">
        <ele>202</ele>
        <time>2017-12-20T09:42:16.000Z</time>
      </trkpt>
      <trkpt lat="43.66942" lon="1.99907">
        <ele>202.4</ele>
        <time>2017-12-20T09:42:26.000Z</time>
      </trkpt>
      <trkpt lat="43.66951" lon="1.99912">
        <ele>202.8</ele>
        <time>2017-12-20T09:42:34.000Z</time>
      </trkpt>
      <trkpt lat="43.66959" lon="1.99919">
        <ele>203.3</ele>
        <time>2017-12-20T09:42:42.000Z</time>
      </trkpt>
      <trkpt lat="43.66967" lon="1.99926">
        <ele>203.7</ele>
        <time>2017-12-20T09:42:50.000Z</time>
      </trkpt>
      <trkpt lat="43.66976" lon="1.99932">
        <ele>203.9</ele>
        <time>2017-12-20T09:42:58.000Z</time>
      </trkpt>
      <trkpt lat="43.66986" lon="1.99936">
        <ele>204.1</ele>
        <time>2017-12-20T09:43:05.000Z</time>
      </trkpt>
      <trkpt lat="43.66994" lon="1.99943">
        <ele>204.2</ele>
        <time>2017-12-20T09:43:13.000Z</time>
      </trkpt>
      <trkpt lat="43.67002" lon="1.99948">
        <ele>201.1</ele>
        <time>2017-12-20T09:43:20.000Z</time>
      </trkpt>
      <trkpt lat="43.67011" lon="1.99955">
        <ele>203.5</ele>
        <time>2017-12-20T09:43:28.000Z</time>
      </trkpt>
      <trkpt lat="43.67019" lon="1.99963">
        <ele>206.9</ele>
        <time>2017-12-20T09:43:37.000Z</time>
      </trkpt>
      <trkpt lat="43.67027" lon="1.99969">
        <ele>211</ele>
        <time>2017-12-20T09:43:45.000Z</time>
      </trkpt>
      <trkpt lat="43.67035" lon="1.99974">
        <ele>211.1</ele>
        <time>2017-12-20T09:43:51.000Z</time>
      </trkpt>
      <trkpt lat="43.67043" lon="1.99981">
        <ele>211.1</ele>
        <time>2017-12-20T09:44:03.000Z</time>
      </trkpt>
      <trkpt lat="43.67052" lon="1.99988">
        <ele>211.2</ele>
        <time>2017-12-20T09:44:10.000Z</time>
      </trkpt>
      <trkpt lat="43.67058" lon="1.99992">
        <ele>211.2</ele>
        <time>2017-12-20T09:44:18.000Z</time>
      </trkpt>
      <trkpt lat="43.67066" lon="1.99997">
        <ele>211.2</ele>
        <time>2017-12-20T09:44:27.000Z</time>
      </trkpt>
      <trkpt lat="43.67071" lon="2.00004">
        <ele>211.2</ele>
        <time>2017-12-20T09:44:35.000Z</time>
      </trkpt>
      <trkpt lat="43.67081" lon="2.0001">
        <ele>211.1</ele>
        <time>2017-12-20T09:44:41.000Z</time>
      </trkpt>
      <trkpt lat="43.67086" lon="2.00017">
        <ele>211.2</ele>
        <time>2017-12-20T09:44:47.000Z</time>
      </trkpt>
      <trkpt lat="43.67093" lon="2.00022">
        <ele>211.2</ele>
        <time>2017-12-20T09:44:55.000Z</time>
      </trkpt>
      <trkpt lat="43.67101" lon="2.00029">
        <ele>211.3</ele>
        <time>2017-12-20T09:45:02.000Z</time>
      </trkpt>
      <trkpt lat="43.67109" lon="2.00036">
        <ele>211.4</ele>
        <time>2017-12-20T09:45:07.000Z</time>
      </trkpt>
      <trkpt lat="43.67114" lon="2.00044">
        <ele>211.5</ele>
        <time>2017-12-20T09:45:13.000Z</time>
      </trkpt>
      <trkpt lat="43.67119" lon="2.0005">
        <ele>211.7</ele>
        <time>2017-12-20T09:45:19.000Z</time>
      </trkpt>
      <trkpt lat="43.67123" lon="2.00054">
        <ele>207.2</ele>
        <time>2017-12-20T09:45:27.000Z</time>
      </trkpt>
      <trkpt lat="43.67132" lon="2.00057">
        <ele>207.4</ele>
        <time>2017-12-20T09:45:34.000Z</time>
      </trkpt>
      <trkpt lat="43.67141" lon="2.00065">
        <ele>207.5</ele>
        <time>2017-12-20T09:45:41.000Z</time>
      </trkpt>
      <trkpt lat="43.67149" lon="2.00072">
        <ele>207.7</ele>
        <time>2017-12-20T09:45:47.000Z</time>
      </trkpt>
      <trkpt lat="43.67158" lon="2.00077">
        <ele>207.9</ele>
        <time>2017-12-20T09:45:56.000Z</time>
      </trkpt>
      <trkpt lat="43.67167" lon="2.00081">
        <ele>207.9</ele>
        <time>2017-12-20T09:46:05.000Z</time>
      </trkpt>
      <trkpt lat="43.67175" lon="2.00087">
        <ele>207.9</ele>
        <time>2017-12-20T09:46:13.000Z</time>
      </trkpt>
      <trkpt lat="43.67183" lon="2.00092">
        <ele>207.9</ele>
        <time>2017-12-20T09:46:21.000Z</time>
      </trkpt>
      <trkpt lat="43.67193" lon="2.00097">
        <ele>207.8</ele>
        <time>2017-12-20T09:46:29.000Z</time>
      </trkpt>
      <trkpt lat="43.67201" lon="2.00102">
        <ele>207.8</ele>
        <time>2017-12-20T09:46:37.000Z</time>
      </trkpt>
      <trkpt lat="43.67209" lon="2.00109">
        <ele>212.3</ele>
        <time>2017-12-20T09:46:46.000Z</time>
      </trkpt>
      <trkpt lat="43.67216" lon="2.00116">
        <ele>212.2</ele>
        <time>2017-12-20T09:46:52.000Z</time>
      </trkpt>
      <trkpt lat="43.67224" lon="2.00123">
        <ele>212.2</ele>
        <time>2017-12-20T09:47:00.000Z</time>
      </trkpt>
      <trkpt lat="43.67233" lon="2.00128">
        <ele>212.1</ele>
        <time>2017-12-20T09:47:09.000Z</time>
      </trkpt>
      <trkpt lat="43.6724" lon="2.00129">
        <ele>212.1</ele>
        <time>2017-12-20T09:48:55.000Z</time>
      </trkpt>
      <trkpt lat="43.67244" lon="2.00134">
        <ele>212</ele>
        <time>2017-12-20T09:49:30.000Z</time>
      </trkpt>
      <trkpt lat="43.67249" lon="2.00137">
        <ele>212</ele>
        <time>2017-12-20T09:49:38.000Z</time>
      </trkpt>
      <trkpt lat="43.67252" lon="2.00139">
        <ele>212</ele>
        <time>2017-12-20T09:49:39.734Z</time>
      </trkpt>
      <trkpt lat="43.67262" lon="2.00141">
        <ele>207.6</ele>
        <time>2017-12-20T09:49:46.000Z</time>
      </trkpt>
      <trkpt lat="43.6727" lon="2.00149">
        <ele>208</ele>
        <time>2017-12-20T09:49:54.000Z</time>
      </trkpt>
      <trkpt lat="43.67278" lon="2.00155">
        <ele>208.6</ele>
        <time>2017-12-20T09:50:03.000Z</time>
      </trkpt>
      <trkpt lat="43.67287" lon="2.00159">
        <ele>209.5</ele>
        <time>2017-12-20T09:50:15.000Z</time>
      </trkpt>
      <trkpt lat="43.67296" lon="2.00163">
        <ele>210.1</ele>
        <time>2017-12-20T09:50:24.000Z</time>
      </trkpt>
      <trkpt lat="43.67304" lon="2.00169">
        <ele>210.2</ele>
        <time>2017-12-20T09:50:32.000Z</time>
      </trkpt>
      <trkpt lat="43.67312" lon="2.00176">
        <ele>210.3</ele>
        <time>2017-12-20T09:50:40.000Z</time>
      </trkpt>
      <trkpt lat="43.67321" lon="2.00183">
        <ele>210.5</ele>
        <time>2017-12-20T09:50:48.000Z</time>
      </trkpt>
      <trkpt lat="43.67329" lon="2.00189">
        <ele>210.6</ele>
        <time>2017-12-20T09:50:56.000Z</time>
      </trkpt>
      <trkpt lat="43.67338" lon="2.00195">
        <ele>210.8</ele>
        <time>2017-12-20T09:51:05.000Z</time>
      </trkpt>
      <trkpt lat="43.67346" lon="2.00201">
        <ele>210.7</ele>
        <time>2017-12-20T09:51:14.000Z</time>
      </trkpt>
      <trkpt lat="43.67355" lon="2.00208">
        <ele>210.6</ele>
        <time>2017-12-20T09:51:21.000Z</time>
      </trkpt>
      <trkpt lat="43.67364" lon="2.00214">
        <ele>211.5</ele>
        <time>2017-12-20T09:51:29.000Z</time>
      </trkpt>
      <trkpt lat="43.67373" lon="2.0022">
        <ele>211.7</ele>
        <time>2017-12-20T09:51:38.000Z</time>
      </trkpt>
      <trkpt lat="43.67382" lon="2.00226">
        <ele>211.8</ele>
        <time>2017-12-20T09:51:46.000Z</time>
      </trkpt>
      <trkpt lat="43.6739" lon="2.00233">
        <ele>211.5</ele>
        <time>2017-12-20T09:51:54.000Z</time>
      </trkpt>
      <trkpt lat="43.67398" lon="2.0024">
        <ele>211.1</ele>
        <time>2017-12-20T09:52:02.000Z</time>
      </trkpt>
      <trkpt lat="43.67406" lon="2.00247">
        <ele>211.1</ele>
        <time>2017-12-20T09:52:09.000Z</time>
      </trkpt>
      <trkpt lat="43.67415" lon="2.00253">
        <ele>211</ele>
        <time>2017-12-20T09:52:16.000Z</time>
      </trkpt>
      <trkpt lat="43.67423" lon="2.0026">
        <ele>211</ele>
        <time>2017-12-20T09:52:24.000Z</time>
      </trkpt>
      <trkpt lat="43.67432" lon="2.00267">
        <ele>211</ele>
        <time>2017-12-20T09:52:32.000Z</time>
      </trkpt>
      <trkpt lat="43.6744" lon="2.00275">
        <ele>211</ele>
        <time>2017-12-20T09:52:41.000Z</time>
      </trkpt>
      <trkpt lat="43.67448" lon="2.0028">
        <ele>211.1</ele>
        <time>2017-12-20T09:52:49.000Z</time>
      </trkpt>
      <trkpt lat="43.67457" lon="2.00287">
        <ele>211.1</ele>
        <time>2017-12-20T09:52:57.000Z</time>
      </trkpt>
      <trkpt lat="43.67464" lon="2.00294">
        <ele>211.3</ele>
        <time>2017-12-20T09:53:05.000Z</time>
      </trkpt>
      <trkpt lat="43.67473" lon="2.00301">
        <ele>211.5</ele>
        <time>2017-12-20T09:53:13.000Z</time>
      </trkpt>
      <trkpt lat="43.67481" lon="2.00307">
        <ele>211.8</ele>
        <time>2017-12-20T09:53:20.000Z</time>
      </trkpt>
      <trkpt lat="43.67489" lon="2.00315">
        <ele>212</ele>
        <time>2017-12-20T09:53:27.000Z</time>
      </trkpt>
      <trkpt lat="43.67496" lon="2.00322">
        <ele>212</ele>
        <time>2017-12-20T09:53:35.000Z</time>
      </trkpt>
      <trkpt lat="43.67505" lon="2.00327">
        <ele>212.2</ele>
        <time>2017-12-20T09:53:43.000Z</time>
      </trkpt>
      <trkpt lat="43.67512" lon="2.00334">
        <ele>212.4</ele>
        <time>2017-12-20T09:53:50.000Z</time>
      </trkpt>
      <trkpt lat="43.67521" lon="2.00339">
        <ele>212.5</ele>
        <time>2017-12-20T09:53:58.000Z</time>
      </trkpt>
      <trkpt lat="43.67531" lon="2.00343">
        <ele>212.6</ele>
        <time>2017-12-20T09:54:07.000Z</time>
      </trkpt>
      <trkpt lat="43.67539" lon="2.00348">
        <ele>212.8</ele>
        <time>2017-12-20T09:54:14.000Z</time>
      </trkpt>
      <trkpt lat="43.67548" lon="2.00353">
        <ele>213</ele>
        <time>2017-12-20T09:54:21.000Z</time>
      </trkpt>
      <trkpt lat="43.67557" lon="2.00359">
        <ele>213.2</ele>
        <time>2017-12-20T09:54:29.000Z</time>
      </trkpt>
      <trkpt lat="43.67565" lon="2.00364">
        <ele>213.4</ele>
        <time>2017-12-20T09:54:37.000Z</time>
      </trkpt>
      <trkpt lat="43.67575" lon="2.00369">
        <ele>214</ele>
        <time>2017-12-20T09:54:45.000Z</time>
      </trkpt>
      <trkpt lat="43.67583" lon="2.00377">
        <ele>214.4</ele>
        <time>2017-12-20T09:54:53.000Z</time>
      </trkpt>
      <trkpt lat="43.67592" lon="2.00381">
        <ele>214.9</ele>
        <time>2017-12-20T09:55:01.000Z</time>
      </trkpt>
      <trkpt lat="43.67601" lon="2.00386">
        <ele>215.3</ele>
        <time>2017-12-20T09:55:09.000Z</time>
      </trkpt>
      <trkpt lat="43.6761" lon="2.00391">
        <ele>215.6</ele>
        <time>2017-12-20T09:55:17.000Z</time>
      </trkpt>
      <trkpt lat="43.67619" lon="2.00397">
        <ele>216</ele>
        <time>2017-12-20T09:55:26.000Z</time>
      </trkpt>
      <trkpt lat="43.67629" lon="2.00402">
        <ele>216.5</ele>
        <time>2017-12-20T09:55:34.000Z</time>
      </trkpt>
      <trkpt lat="43.67638" lon="2.00406">
        <ele>216.8</ele>
        <time>2017-12-20T09:55:42.000Z</time>
      </trkpt>
      <trkpt lat="43.67646" lon="2.00411">
        <ele>217</ele>
        <time>2017-12-20T09:55:50.000Z</time>
      </trkpt>
      <trkpt lat="43.67655" lon="2.00416">
        <ele>217.1</ele>
        <time>2017-12-20T09:55:57.000Z</time>
      </trkpt>
      <trkpt lat="43.67663" lon="2.00421">
        <ele>216.9</ele>
        <time>2017-12-20T09:56:05.000Z</time>
      </trkpt>
      <trkpt lat="43.67672" lon="2.00426">
        <ele>216.9</ele>
        <time>2017-12-20T09:56:14.000Z</time>
      </trkpt>
      <trkpt lat="43.67682" lon="2.00428">
        <ele>217.1</ele>
        <time>2017-12-20T09:56:24.000Z</time>
      </trkpt>
      <trkpt lat="43.67691" lon="2.00431">
        <ele>217.2</ele>
        <time>2017-12-20T09:56:33.000Z</time>
      </trkpt>
      <trkpt lat="43.677" lon="2.00435">
        <ele>217</ele>
        <time>2017-12-20T09:56:40.000Z</time>
      </trkpt>
      <trkpt lat="43.67709" lon="2.00438">
        <ele>216.8</ele>
        <time>2017-12-20T09:56:47.000Z</time>
      </trkpt>
      <trkpt lat="43.67718" lon="2.00443">
        <ele>216.7</ele>
        <time>2017-12-20T09:56:54.000Z</time>
      </trkpt>
      <trkpt lat="43.67727" lon="2.00447">
        <ele>216.6</ele>
        <time>2017-12-20T09:57:02.000Z</time>
      </trkpt>
      <trkpt lat="43.67736" lon="2.00452">
        <ele>216.4</ele>
        <time>2017-12-20T09:57:11.000Z</time>
      </trkpt>
      <trkpt lat="43.67746" lon="2.00454">
        <ele>215.7</ele>
        <time>2017-12-20T09:57:19.000Z</time>
      </trkpt>
      <trkpt lat="43.67755" lon="2.00457">
        <ele>215.7</ele>
        <time>2017-12-20T09:57:26.000Z</time>
      </trkpt>
      <trkpt lat="43.67764" lon="2.00462">
        <ele>215.6</ele>
        <time>2017-12-20T09:57:35.000Z</time>
      </trkpt>
      <trkpt lat="43.67773" lon="2.00466">
        <ele>215.3</ele>
        <time>2017-12-20T09:57:44.000Z</time>
      </trkpt>
      <trkpt lat="43.67781" lon="2.00474">
        <ele>215</ele>
        <time>2017-12-20T09:57:51.000Z</time>
      </trkpt>
      <trkpt lat="43.67789" lon="2.00481">
        <ele>214.4</ele>
        <time>2017-12-20T09:58:00.000Z</time>
      </trkpt>
      <trkpt lat="43.67797" lon="2.00488">
        <ele>214.6</ele>
        <time>2017-12-20T09:58:08.000Z</time>
      </trkpt>
      <trkpt lat="43.67806" lon="2.00496">
        <ele>214.5</ele>
        <time>2017-12-20T09:58:15.000Z</time>
      </trkpt>
      <trkpt lat="43.67812" lon="2.00504">
        <ele>214.3</ele>
        <time>2017-12-20T09:58:23.000Z</time>
      </trkpt>
      <trkpt lat="43.67818" lon="2.00514">
        <ele>214</ele>
        <time>2017-12-20T09:58:31.000Z</time>
      </trkpt>
      <trkpt lat="43.67824" lon="2.00524">
        <ele>213.9</ele>
        <time>2017-12-20T09:58:38.000Z</time>
      </trkpt>
      <trkpt lat="43.67831" lon="2.00534">
        <ele>213.8</ele>
        <time>2017-12-20T09:58:47.000Z</time>
      </trkpt>
      <trkpt lat="43.67839" lon="2.00543">
        <ele>213.9</ele>
        <time>2017-12-20T09:58:55.000Z</time>
      </trkpt>
      <trkpt lat="43.67845" lon="2.00554">
        <ele>214.1</ele>
        <time>2017-12-20T09:59:05.000Z</time>
      </trkpt>
      <trkpt lat="43.67852" lon="2.00562">
        <ele>214.2</ele>
        <time>2017-12-20T09:59:12.000Z</time>
      </trkpt>
      <trkpt lat="43.67858" lon="2.00573">
        <ele>214.2</ele>
        <time>2017-12-20T09:59:21.000Z</time>
      </trkpt>
      <trkpt lat="43.67865" lon="2.00582">
        <ele>214.5</ele>
        <time>2017-12-20T09:59:28.000Z</time>
      </trkpt>
      <trkpt lat="43.67872" lon="2.00592">
        <ele>215.2</ele>
        <time>2017-12-20T09:59:36.000Z</time>
      </trkpt>
      <trkpt lat="43.67879" lon="2.00602">
        <ele>215.7</ele>
        <time>2017-12-20T09:59:44.000Z</time>
      </trkpt>
      <trkpt lat="43.67886" lon="2.00611">
        <ele>216</ele>
        <time>2017-12-20T09:59:52.000Z</time>
      </trkpt>
      <trkpt lat="43.67893" lon="2.0062">
        <ele>216.6</ele>
        <time>2017-12-20T10:00:01.000Z</time>
      </trkpt>
      <trkpt lat="43.67899" lon="2.0063">
        <ele>217.2</ele>
        <time>2017-12-20T10:00:09.000Z</time>
      </trkpt>
      <trkpt lat="43.67906" lon="2.00639">
        <ele>218</ele>
        <time>2017-12-20T10:00:18.000Z</time>
      </trkpt>
      <trkpt lat="43.67913" lon="2.00647">
        <ele>218.6</ele>
        <time>2017-12-20T10:00:26.000Z</time>
      </trkpt>
      <trkpt lat="43.67919" lon="2.00657">
        <ele>219.2</ele>
        <time>2017-12-20T10:00:34.000Z</time>
      </trkpt>
      <trkpt lat="43.67927" lon="2.00666">
        <ele>219.9</ele>
        <time>2017-12-20T10:00:42.000Z</time>
      </trkpt>
      <trkpt lat="43.67934" lon="2.00674">
        <ele>220.7</ele>
        <time>2017-12-20T10:00:51.000Z</time>
      </trkpt>
      <trkpt lat="43.6794" lon="2.00683">
        <ele>221.6</ele>
        <time>2017-12-20T10:01:00.000Z</time>
      </trkpt>
      <trkpt lat="43.67945" lon="2.00694">
        <ele>222.4</ele>
        <time>2017-12-20T10:01:09.000Z</time>
      </trkpt>
      <trkpt lat="43.67949" lon="2.00706">
        <ele>223.4</ele>
        <time>2017-12-20T10:01:17.000Z</time>
      </trkpt>
      <trkpt lat="43.67951" lon="2.00719">
        <ele>224.3</ele>
        <time>2017-12-20T10:01:27.000Z</time>
      </trkpt>
      <trkpt lat="43.67953" lon="2.00732">
        <ele>224.7</ele>
        <time>2017-12-20T10:01:34.000Z</time>
      </trkpt>
      <trkpt lat="43.67953" lon="2.00745">
        <ele>225</ele>
        <time>2017-12-20T10:01:42.000Z</time>
      </trkpt>
      <trkpt lat="43.67951" lon="2.00758">
        <ele>225.2</ele>
        <time>2017-12-20T10:01:50.000Z</time>
      </trkpt>
      <trkpt lat="43.67951" lon="2.00772">
        <ele>225.8</ele>
        <time>2017-12-20T10:01:59.000Z</time>
      </trkpt>
      <trkpt lat="43.67952" lon="2.00785">
        <ele>226.2</ele>
        <time>2017-12-20T10:02:07.000Z</time>
      </trkpt>
      <trkpt lat="43.67952" lon="2.00797">
        <ele>226.4</ele>
        <time>2017-12-20T10:02:15.000Z</time>
      </trkpt>
      <trkpt lat="43.67953" lon="2.00811">
        <ele>226.7</ele>
        <time>2017-12-20T10:02:25.000Z</time>
      </trkpt>
      <trkpt lat="43.67953" lon="2.00825">
        <ele>227.1</ele>
        <time>2017-12-20T10:02:34.000Z</time>
      </trkpt>
      <trkpt lat="43.67951" lon="2.00838">
        <ele>227.5</ele>
        <time>2017-12-20T10:02:42.000Z</time>
      </trkpt>
      <trkpt lat="43.67951" lon="2.0085">
        <ele>228</ele>
        <time>2017-12-20T10:02:50.000Z</time>
      </trkpt>
      <trkpt lat="43.67952" lon="2.00863">
        <ele>228.7</ele>
        <time>2017-12-20T10:02:59.000Z</time>
      </trkpt>
      <trkpt lat="43.67953" lon="2.00877">
        <ele>229</ele>
        <time>2017-12-20T10:03:06.000Z</time>
      </trkpt>
      <trkpt lat="43.67953" lon="2.00889">
        <ele>229.9</ele>
        <time>2017-12-20T10:03:15.000Z</time>
      </trkpt>
      <trkpt lat="43.67954" lon="2.00903">
        <ele>231.1</ele>
        <time>2017-12-20T10:03:24.000Z</time>
      </trkpt>
      <trkpt lat="43.67953" lon="2.00915">
        <ele>232.2</ele>
        <time>2017-12-20T10:03:32.000Z</time>
      </trkpt>
      <trkpt lat="43.67952" lon="2.00929">
        <ele>232.8</ele>
        <time>2017-12-20T10:03:43.000Z</time>
      </trkpt>
      <trkpt lat="43.67954" lon="2.00942">
        <ele>233.3</ele>
        <time>2017-12-20T10:03:53.000Z</time>
      </trkpt>
      <trkpt lat="43.67954" lon="2.00955">
        <ele>233.8</ele>
        <time>2017-12-20T10:04:03.000Z</time>
      </trkpt>
      <trkpt lat="43.67955" lon="2.00969">
        <ele>234.5</ele>
        <time>2017-12-20T10:04:11.000Z</time>
      </trkpt>
      <trkpt lat="43.67957" lon="2.00981">
        <ele>235.8</ele>
        <time>2017-12-20T10:04:20.000Z</time>
      </trkpt>
      <trkpt lat="43.67959" lon="2.00995">
        <ele>237.1</ele>
        <time>2017-12-20T10:04:29.000Z</time>
      </trkpt>
      <trkpt lat="43.67962" lon="2.01008">
        <ele>238.2</ele>
        <time>2017-12-20T10:04:38.000Z</time>
      </trkpt>
      <trkpt lat="43.67963" lon="2.01022">
        <ele>239.2</ele>
        <time>2017-12-20T10:04:47.000Z</time>
      </trkpt>
      <trkpt lat="43.67966" lon="2.01034">
        <ele>240.2</ele>
        <time>2017-12-20T10:04:55.000Z</time>
      </trkpt>
      <trkpt lat="43.67968" lon="2.01046">
        <ele>241.5</ele>
        <time>2017-12-20T10:05:03.000Z</time>
      </trkpt>
      <trkpt lat="43.67971" lon="2.01059">
        <ele>242.7</ele>
        <time>2017-12-20T10:05:12.000Z</time>
      </trkpt>
      <trkpt lat="43.67975" lon="2.01071">
        <ele>244</ele>
        <time>2017-12-20T10:05:21.000Z</time>
      </trkpt>
      <trkpt lat="43.67978" lon="2.01083">
        <ele>245.4</ele>
        <time>2017-12-20T10:05:32.000Z</time>
      </trkpt>
      <trkpt lat="43.67983" lon="2.01096">
        <ele>246.5</ele>
        <time>2017-12-20T10:05:40.000Z</time>
      </trkpt>
      <trkpt lat="43.67988" lon="2.01108">
        <ele>247.8</ele>
        <time>2017-12-20T10:05:49.000Z</time>
      </trkpt>
      <trkpt lat="43.67994" lon="2.01119">
        <ele>249</ele>
        <time>2017-12-20T10:05:58.000Z</time>
      </trkpt>
      <trkpt lat="43.68001" lon="2.01127">
        <ele>249.8</ele>
        <time>2017-12-20T10:06:06.000Z</time>
      </trkpt>
      <trkpt lat="43.68006" lon="2.01137">
        <ele>250.4</ele>
        <time>2017-12-20T10:06:13.000Z</time>
      </trkpt>
      <trkpt lat="43.68009" lon="2.0115">
        <ele>251</ele>
        <time>2017-12-20T10:06:21.000Z</time>
      </trkpt>
      <trkpt lat="43.68014" lon="2.01161">
        <ele>251.5</ele>
        <time>2017-12-20T10:06:30.000Z</time>
      </trkpt>
      <trkpt lat="43.6802" lon="2.01172">
        <ele>251.9</ele>
        <time>2017-12-20T10:06:40.000Z</time>
      </trkpt>
      <trkpt lat="43.68022" lon="2.01185">
        <ele>252</ele>
        <time>2017-12-20T10:06:48.000Z</time>
      </trkpt>
      <trkpt lat="43.68027" lon="2.01196">
        <ele>252.2</ele>
        <time>2017-12-20T10:06:55.000Z</time>
      </trkpt>
      <trkpt lat="43.68032" lon="2.01207">
        <ele>252.5</ele>
        <time>2017-12-20T10:07:04.000Z</time>
      </trkpt>
      <trkpt lat="43.68038" lon="2.01219">
        <ele>253.2</ele>
        <time>2017-12-20T10:07:13.000Z</time>
      </trkpt>
      <trkpt lat="43.68044" lon="2.0123">
        <ele>253.5</ele>
        <time>2017-12-20T10:07:20.000Z</time>
      </trkpt>
      <trkpt lat="43.68049" lon="2.01242">
        <ele>253.9</ele>
        <time>2017-12-20T10:07:29.000Z</time>
      </trkpt>
      <trkpt lat="43.68053" lon="2.01253">
        <ele>254.1</ele>
        <time>2017-12-20T10:07:37.000Z</time>
      </trkpt>
      <trkpt lat="43.68059" lon="2.01264">
        <ele>254.6</ele>
        <time>2017-12-20T10:07:45.000Z</time>
      </trkpt>
      <trkpt lat="43.68062" lon="2.01276">
        <ele>255.2</ele>
        <time>2017-12-20T10:07:53.000Z</time>
      </trkpt>
      <trkpt lat="43.68068" lon="2.01286">
        <ele>255.9</ele>
        <time>2017-12-20T10:08:01.000Z</time>
      </trkpt>
      <trkpt lat="43.68072" lon="2.01297">
        <ele>256.6</ele>
        <time>2017-12-20T10:08:08.000Z</time>
      </trkpt>
      <trkpt lat="43.68077" lon="2.01308">
        <ele>257.4</ele>
        <time>2017-12-20T10:08:16.000Z</time>
      </trkpt>
      <trkpt lat="43.68082" lon="2.0132">
        <ele>257.9</ele>
        <time>2017-12-20T10:08:24.000Z</time>
      </trkpt>
      <trkpt lat="43.68086" lon="2.01332">
        <ele>258.4</ele>
        <time>2017-12-20T10:08:33.000Z</time>
      </trkpt>
      <trkpt lat="43.68091" lon="2.01343">
        <ele>258.9</ele>
        <time>2017-12-20T10:08:40.000Z</time>
      </trkpt>
      <trkpt lat="43.68096" lon="2.01355">
        <ele>259.4</ele>
        <time>2017-12-20T10:08:49.000Z</time>
      </trkpt>
      <trkpt lat="43.68099" lon="2.01368">
        <ele>259.7</ele>
        <time>2017-12-20T10:08:56.000Z</time>
      </trkpt>
      <trkpt lat="43.68104" lon="2.0138">
        <ele>260</ele>
        <time>2017-12-20T10:09:04.000Z</time>
      </trkpt>
      <trkpt lat="43.68108" lon="2.01392">
        <ele>260.1</ele>
        <time>2017-12-20T10:09:12.000Z</time>
      </trkpt>
      <trkpt lat="43.68112" lon="2.01404">
        <ele>260.3</ele>
        <time>2017-12-20T10:09:21.000Z</time>
      </trkpt>
      <trkpt lat="43.68115" lon="2.01416">
        <ele>260.3</ele>
        <time>2017-12-20T10:09:28.000Z</time>
      </trkpt>
      <trkpt lat="43.68117" lon="2.01429">
        <ele>260.4</ele>
        <time>2017-12-20T10:09:36.000Z</time>
      </trkpt>
      <trkpt lat="43.68121" lon="2.0144">
        <ele>260.5</ele>
        <time>2017-12-20T10:09:41.000Z</time>
      </trkpt>
      <trkpt lat="43.68126" lon="2.01452">
        <ele>260.7</ele>
        <time>2017-12-20T10:09:48.000Z</time>
      </trkpt>
      <trkpt lat="43.68129" lon="2.01464">
        <ele>260.9</ele>
        <time>2017-12-20T10:09:54.000Z</time>
      </trkpt>
      <trkpt lat="43.68132" lon="2.01477">
        <ele>261.1</ele>
        <time>2017-12-20T10:10:02.000Z</time>
      </trkpt>
      <trkpt lat="43.68134" lon="2.0149">
        <ele>261.3</ele>
        <time>2017-12-20T10:10:10.000Z</time>
      </trkpt>
      <trkpt lat="43.68138" lon="2.01502">
        <ele>261.6</ele>
        <time>2017-12-20T10:10:18.000Z</time>
      </trkpt>
      <trkpt lat="43.68142" lon="2.01514">
        <ele>261.3</ele>
        <time>2017-12-20T10:10:27.000Z</time>
      </trkpt>
      <trkpt lat="43.68145" lon="2.01526">
        <ele>261</ele>
        <time>2017-12-20T10:10:36.000Z</time>
      </trkpt>
      <trkpt lat="43.6815" lon="2.01537">
        <ele>260.6</ele>
        <time>2017-12-20T10:10:45.000Z</time>
      </trkpt>
      <trkpt lat="43.68152" lon="2.01552">
        <ele>260.3</ele>
        <time>2017-12-20T10:10:53.000Z</time>
      </trkpt>
      <trkpt lat="43.68157" lon="2.01563">
        <ele>260</ele>
        <time>2017-12-20T10:11:02.000Z</time>
      </trkpt>
      <trkpt lat="43.68159" lon="2.01575">
        <ele>259.9</ele>
        <time>2017-12-20T10:11:10.000Z</time>
      </trkpt>
      <trkpt lat="43.68161" lon="2.01588">
        <ele>259.8</ele>
        <time>2017-12-20T10:11:22.000Z</time>
      </trkpt>
      <trkpt lat="43.68164" lon="2.016">
        <ele>260.9</ele>
        <time>2017-12-20T10:11:34.000Z</time>
      </trkpt>
      <trkpt lat="43.68173" lon="2.01597">
        <ele>262</ele>
        <time>2017-12-20T10:19:36.000Z</time>
      </trkpt>
      <trkpt lat="43.68182" lon="2.016">
        <ele>261.7</ele>
        <time>2017-12-20T10:19:43.000Z</time>
      </trkpt>
      <trkpt lat="43.68192" lon="2.01603">
        <ele>261.7</ele>
        <time>2017-12-20T10:19:49.000Z</time>
      </trkpt>
      <trkpt lat="43.68201" lon="2.01605">
        <ele>260.5</ele>
        <time>2017-12-20T10:19:56.000Z</time>
      </trkpt>
      <trkpt lat="43.6821" lon="2.01606">
        <ele>260.5</ele>
        <time>2017-12-20T10:20:03.000Z</time>
      </trkpt>
      <trkpt lat="43.6822" lon="2.01605">
        <ele>260.4</ele>
        <time>2017-12-20T10:20:10.000Z</time>
      </trkpt>
      <trkpt lat="43.6823" lon="2.01606">
        <ele>260.4</ele>
        <time>2017-12-20T10:20:17.000Z</time>
      </trkpt>
      <trkpt lat="43.68239" lon="2.01608">
        <ele>260.4</ele>
        <time>2017-12-20T10:20:24.000Z</time>
      </trkpt>
      <trkpt lat="43.68248" lon="2.01609">
        <ele>260.4</ele>
        <time>2017-12-20T10:20:31.000Z</time>
      </trkpt>
      <trkpt lat="43.68258" lon="2.01613">
        <ele>260.6</ele>
        <time>2017-12-20T10:20:39.000Z</time>
      </trkpt>
      <trkpt lat="43.68265" lon="2.01618">
        <ele>254</ele>
        <time>2017-12-20T10:20:46.000Z</time>
      </trkpt>
      <trkpt lat="43.68272" lon="2.01623">
        <ele>254.3</ele>
        <time>2017-12-20T10:20:53.000Z</time>
      </trkpt>
      <trkpt lat="43.68282" lon="2.01633">
        <ele>255.2</ele>
        <time>2017-12-20T10:21:01.000Z</time>
      </trkpt>
      <trkpt lat="43.6829" lon="2.01641">
        <ele>256.1</ele>
        <time>2017-12-20T10:21:08.000Z</time>
      </trkpt>
      <trkpt lat="43.68297" lon="2.01648">
        <ele>256.7</ele>
        <time>2017-12-20T10:21:14.000Z</time>
      </trkpt>
      <trkpt lat="43.68305" lon="2.01656">
        <ele>257.5</ele>
        <time>2017-12-20T10:21:20.000Z</time>
      </trkpt>
      <trkpt lat="43.68316" lon="2.01658">
        <ele>258.9</ele>
        <time>2017-12-20T10:21:28.000Z</time>
      </trkpt>
      <trkpt lat="43.68325" lon="2.01661">
        <ele>258.4</ele>
        <time>2017-12-20T10:21:36.000Z</time>
      </trkpt>
      <trkpt lat="43.68335" lon="2.01661">
        <ele>257.9</ele>
        <time>2017-12-20T10:21:43.000Z</time>
      </trkpt>
      <trkpt lat="43.68345" lon="2.01662">
        <ele>257.6</ele>
        <time>2017-12-20T10:21:50.000Z</time>
      </trkpt>
      <trkpt lat="43.68354" lon="2.01663">
        <ele>257.3</ele>
        <time>2017-12-20T10:21:58.000Z</time>
      </trkpt>
      <trkpt lat="43.68363" lon="2.01665">
        <ele>257.2</ele>
        <time>2017-12-20T10:22:05.000Z</time>
      </trkpt>
      <trkpt lat="43.68373" lon="2.01667">
        <ele>256.8</ele>
        <time>2017-12-20T10:22:12.000Z</time>
      </trkpt>
      <trkpt lat="43.68382" lon="2.0167">
        <ele>256.5</ele>
        <time>2017-12-20T10:22:20.000Z</time>
      </trkpt>
      <trkpt lat="43.68392" lon="2.01671">
        <ele>255.9</ele>
        <time>2017-12-20T10:22:27.000Z</time>
      </trkpt>
      <trkpt lat="43.68402" lon="2.01672">
        <ele>255.5</ele>
        <time>2017-12-20T10:22:34.000Z</time>
      </trkpt>
      <trkpt lat="43.68412" lon="2.0167">
        <ele>249.4</ele>
        <time>2017-12-20T10:22:42.000Z</time>
      </trkpt>
      <trkpt lat="43.68422" lon="2.01664">
        <ele>246.2</ele>
        <time>2017-12-20T10:22:51.000Z</time>
      </trkpt>
      <trkpt lat="43.68428" lon="2.01651">
        <ele>244.7</ele>
        <time>2017-12-20T10:22:59.000Z</time>
      </trkpt>
      <trkpt lat="43.68432" lon="2.01641">
        <ele>243.6</ele>
        <time>2017-12-20T10:23:07.000Z</time>
      </trkpt>
      <trkpt lat="43.68436" lon="2.0163">
        <ele>242.4</ele>
        <time>2017-12-20T10:23:16.000Z</time>
      </trkpt>
      <trkpt lat="43.68443" lon="2.01615">
        <ele>240.5</ele>
        <time>2017-12-20T10:23:27.000Z</time>
      </trkpt>
      <trkpt lat="43.68449" lon="2.01605">
        <ele>238.8</ele>
        <time>2017-12-20T10:23:36.000Z</time>
      </trkpt>
      <trkpt lat="43.68455" lon="2.01591">
        <ele>237.1</ele>
        <time>2017-12-20T10:23:44.000Z</time>
      </trkpt>
      <trkpt lat="43.68458" lon="2.01578">
        <ele>235.9</ele>
        <time>2017-12-20T10:23:52.000Z</time>
      </trkpt>
      <trkpt lat="43.68461" lon="2.01566">
        <ele>234.8</ele>
        <time>2017-12-20T10:24:18.000Z</time>
      </trkpt>
      <trkpt lat="43.6846" lon="2.01555">
        <ele>234.3</ele>
        <time>2017-12-20T10:24:31.000Z</time>
      </trkpt>
      <trkpt lat="43.68458" lon="2.01541">
        <ele>234</ele>
        <time>2017-12-20T10:24:42.000Z</time>
      </trkpt>
      <trkpt lat="43.68453" lon="2.01527">
        <ele>246.6</ele>
        <time>2017-12-20T10:24:52.000Z</time>
      </trkpt>
      <trkpt lat="43.68452" lon="2.01515">
        <ele>245.4</ele>
        <time>2017-12-20T10:25:03.000Z</time>
      </trkpt>
      <trkpt lat="43.6845" lon="2.01502">
        <ele>243.5</ele>
        <time>2017-12-20T10:25:14.000Z</time>
      </trkpt>
      <trkpt lat="43.68449" lon="2.0149">
        <ele>241.7</ele>
        <time>2017-12-20T10:25:25.000Z</time>
      </trkpt>
      <trkpt lat="43.68445" lon="2.01477">
        <ele>239.7</ele>
        <time>2017-12-20T10:25:36.000Z</time>
      </trkpt>
      <trkpt lat="43.68442" lon="2.01464">
        <ele>237.1</ele>
        <time>2017-12-20T10:25:49.000Z</time>
      </trkpt>
      <trkpt lat="43.68439" lon="2.01452">
        <ele>234.7</ele>
        <time>2017-12-20T10:26:01.000Z</time>
      </trkpt>
      <trkpt lat="43.68437" lon="2.01439">
        <ele>232.7</ele>
        <time>2017-12-20T10:26:12.000Z</time>
      </trkpt>
      <trkpt lat="43.68437" lon="2.01426">
        <ele>230.5</ele>
        <time>2017-12-20T10:26:23.000Z</time>
      </trkpt>
      <trkpt lat="43.68436" lon="2.01412">
        <ele>228.3</ele>
        <time>2017-12-20T10:26:34.000Z</time>
      </trkpt>
      <trkpt lat="43.68433" lon="2.01399">
        <ele>238.9</ele>
        <time>2017-12-20T10:26:42.000Z</time>
      </trkpt>
      <trkpt lat="43.68431" lon="2.01386">
        <ele>239.3</ele>
        <time>2017-12-20T10:26:49.000Z</time>
      </trkpt>
      <trkpt lat="43.68429" lon="2.01376">
        <ele>239.6</ele>
        <time>2017-12-20T10:26:57.000Z</time>
      </trkpt>
      <trkpt lat="43.68426" lon="2.0136">
        <ele>240.1</ele>
        <time>2017-12-20T10:27:04.000Z</time>
      </trkpt>
      <trkpt lat="43.68423" lon="2.01346">
        <ele>240.5</ele>
        <time>2017-12-20T10:27:11.000Z</time>
      </trkpt>
      <trkpt lat="43.68422" lon="2.01333">
        <ele>240.5</ele>
        <time>2017-12-20T10:27:17.000Z</time>
      </trkpt>
      <trkpt lat="43.68421" lon="2.01322">
        <ele>218.9</ele>
        <time>2017-12-20T10:27:25.000Z</time>
      </trkpt>
      <trkpt lat="43.6842" lon="2.01308">
        <ele>217.2</ele>
        <time>2017-12-20T10:27:35.000Z</time>
      </trkpt>
      <trkpt lat="43.68418" lon="2.01295">
        <ele>216.1</ele>
        <time>2017-12-20T10:27:42.000Z</time>
      </trkpt>
      <trkpt lat="43.68416" lon="2.01283">
        <ele>215</ele>
        <time>2017-12-20T10:27:49.000Z</time>
      </trkpt>
      <trkpt lat="43.68415" lon="2.01269">
        <ele>236.8</ele>
        <time>2017-12-20T10:27:56.000Z</time>
      </trkpt>
      <trkpt lat="43.68416" lon="2.01255">
        <ele>212.5</ele>
        <time>2017-12-20T10:28:05.000Z</time>
      </trkpt>
      <trkpt lat="43.68418" lon="2.01243">
        <ele>211.3</ele>
        <time>2017-12-20T10:28:14.000Z</time>
      </trkpt>
      <trkpt lat="43.68422" lon="2.0123">
        <ele>210.3</ele>
        <time>2017-12-20T10:28:21.000Z</time>
      </trkpt>
      <trkpt lat="43.68427" lon="2.0122">
        <ele>209.1</ele>
        <time>2017-12-20T10:28:30.000Z</time>
      </trkpt>
      <trkpt lat="43.68431" lon="2.01209">
        <ele>208.1</ele>
        <time>2017-12-20T10:28:39.000Z</time>
      </trkpt>
      <trkpt lat="43.68435" lon="2.01197">
        <ele>207.3</ele>
        <time>2017-12-20T10:28:46.000Z</time>
      </trkpt>
      <trkpt lat="43.6844" lon="2.01184">
        <ele>206.4</ele>
        <time>2017-12-20T10:28:54.000Z</time>
      </trkpt>
      <trkpt lat="43.68446" lon="2.01173">
        <ele>205.4</ele>
        <time>2017-12-20T10:29:03.000Z</time>
      </trkpt>
      <trkpt lat="43.6845" lon="2.01161">
        <ele>217</ele>
        <time>2017-12-20T10:29:14.000Z</time>
      </trkpt>
      <trkpt lat="43.68456" lon="2.01153">
        <ele>215.1</ele>
        <time>2017-12-20T10:29:23.000Z</time>
      </trkpt>
      <trkpt lat="43.68462" lon="2.01145">
        <ele>213</ele>
        <time>2017-12-20T10:29:32.000Z</time>
      </trkpt>
      <trkpt lat="43.6847" lon="2.01133">
        <ele>210</ele>
        <time>2017-12-20T10:29:41.000Z</time>
      </trkpt>
      <trkpt lat="43.68476" lon="2.01125">
        <ele>207.7</ele>
        <time>2017-12-20T10:29:51.000Z</time>
      </trkpt>
      <trkpt lat="43.68482" lon="2.01117">
        <ele>205.2</ele>
        <time>2017-12-20T10:30:02.000Z</time>
      </trkpt>
      <trkpt lat="43.68491" lon="2.01109">
        <ele>202.5</ele>
        <time>2017-12-20T10:30:10.000Z</time>
      </trkpt>
      <trkpt lat="43.68497" lon="2.01098">
        <ele>199.5</ele>
        <time>2017-12-20T10:30:19.000Z</time>
      </trkpt>
      <trkpt lat="43.68504" lon="2.01091">
        <ele>197.7</ele>
        <time>2017-12-20T10:30:27.000Z</time>
      </trkpt>
      <trkpt lat="43.68509" lon="2.01082">
        <ele>196</ele>
        <time>2017-12-20T10:30:34.000Z</time>
      </trkpt>
      <trkpt lat="43.68517" lon="2.01074">
        <ele>196</ele>
        <time>2017-12-20T10:30:41.000Z</time>
      </trkpt>
      <trkpt lat="43.68524" lon="2.01067">
        <ele>196.2</ele>
        <time>2017-12-20T10:30:48.000Z</time>
      </trkpt>
      <trkpt lat="43.68533" lon="2.01051">
        <ele>196.5</ele>
        <time>2017-12-20T10:30:56.000Z</time>
      </trkpt>
      <trkpt lat="43.68539" lon="2.01044">
        <ele>196.8</ele>
        <time>2017-12-20T10:31:04.000Z</time>
      </trkpt>
      <trkpt lat="43.68548" lon="2.01036">
        <ele>197.5</ele>
        <time>2017-12-20T10:31:11.000Z</time>
      </trkpt>
      <trkpt lat="43.68559" lon="2.01029">
        <ele>191.2</ele>
        <time>2017-12-20T10:31:18.000Z</time>
      </trkpt>
      <trkpt lat="43.68566" lon="2.01021">
        <ele>189.8</ele>
        <time>2017-12-20T10:31:27.000Z</time>
      </trkpt>
      <trkpt lat="43.68571" lon="2.01009">
        <ele>200.2</ele>
        <time>2017-12-20T10:31:36.000Z</time>
      </trkpt>
      <trkpt lat="43.68579" lon="2.01001">
        <ele>201.5</ele>
        <time>2017-12-20T10:31:43.000Z</time>
      </trkpt>
      <trkpt lat="43.68584" lon="2.00992">
        <ele>203.1</ele>
        <time>2017-12-20T10:31:50.000Z</time>
      </trkpt>
      <trkpt lat="43.6859" lon="2.00984">
        <ele>205.4</ele>
        <time>2017-12-20T10:32:01.000Z</time>
      </trkpt>
      <trkpt lat="43.68596" lon="2.00975">
        <ele>207.5</ele>
        <time>2017-12-20T10:32:11.000Z</time>
      </trkpt>
      <trkpt lat="43.68604" lon="2.00965">
        <ele>210.5</ele>
        <time>2017-12-20T10:32:19.000Z</time>
      </trkpt>
      <trkpt lat="43.68612" lon="2.00959">
        <ele>213.4</ele>
        <time>2017-12-20T10:32:25.000Z</time>
      </trkpt>
      <trkpt lat="43.68622" lon="2.00946">
        <ele>217.4</ele>
        <time>2017-12-20T10:32:33.000Z</time>
      </trkpt>
      <trkpt lat="43.68631" lon="2.00941">
        <ele>220.1</ele>
        <time>2017-12-20T10:32:42.000Z</time>
      </trkpt>
      <trkpt lat="43.68638" lon="2.00935">
        <ele>222.9</ele>
        <time>2017-12-20T10:32:53.000Z</time>
      </trkpt>
      <trkpt lat="43.68644" lon="2.00936">
        <ele>187.9</ele>
        <time>2017-12-20T10:32:55.000Z</time>
      </trkpt>
      <trkpt lat="43.68651" lon="2.00928">
        <ele>189</ele>
        <time>2017-12-20T10:33:17.000Z</time>
      </trkpt>
      <trkpt lat="43.68654" lon="2.0094">
        <ele>190.9</ele>
        <time>2017-12-20T10:34:47.000Z</time>
      </trkpt>
      <trkpt lat="43.6866" lon="2.00951">
        <ele>191.4</ele>
        <time>2017-12-20T10:34:58.000Z</time>
      </trkpt>
      <trkpt lat="43.68664" lon="2.00964">
        <ele>191.7</ele>
        <time>2017-12-20T10:35:11.000Z</time>
      </trkpt>
      <trkpt lat="43.68669" lon="2.00975">
        <ele>191.8</ele>
        <time>2017-12-20T10:35:23.000Z</time>
      </trkpt>
      <trkpt lat="43.68673" lon="2.00986">
        <ele>191.7</ele>
        <time>2017-12-20T10:35:33.000Z</time>
      </trkpt>
      <trkpt lat="43.68676" lon="2.00999">
        <ele>191.7</ele>
        <time>2017-12-20T10:35:43.000Z</time>
      </trkpt>
      <trkpt lat="43.68679" lon="2.01012">
        <ele>191.6</ele>
        <time>2017-12-20T10:35:55.000Z</time>
      </trkpt>
      <trkpt lat="43.68682" lon="2.01024">
        <ele>191.6</ele>
        <time>2017-12-20T10:36:03.000Z</time>
      </trkpt>
      <trkpt lat="43.68684" lon="2.01038">
        <ele>191.5</ele>
        <time>2017-12-20T10:36:12.000Z</time>
      </trkpt>
      <trkpt lat="43.68685" lon="2.01051">
        <ele>191.6</ele>
        <time>2017-12-20T10:36:21.000Z</time>
      </trkpt>
      <trkpt lat="43.6869" lon="2.01063">
        <ele>191.6</ele>
        <time>2017-12-20T10:36:28.000Z</time>
      </trkpt>
      <trkpt lat="43.68694" lon="2.01075">
        <ele>191.7</ele>
        <time>2017-12-20T10:36:36.000Z</time>
      </trkpt>
      <trkpt lat="43.68698" lon="2.01088">
        <ele>190.6</ele>
        <time>2017-12-20T10:36:44.000Z</time>
      </trkpt>
      <trkpt lat="43.68704" lon="2.011">
        <ele>191.3</ele>
        <time>2017-12-20T10:36:53.000Z</time>
      </trkpt>
      <trkpt lat="43.68713" lon="2.01107">
        <ele>191.1</ele>
        <time>2017-12-20T10:37:00.000Z</time>
      </trkpt>
      <trkpt lat="43.6872" lon="2.01117">
        <ele>190.7</ele>
        <time>2017-12-20T10:37:09.000Z</time>
      </trkpt>
      <trkpt lat="43.68726" lon="2.01128">
        <ele>190.5</ele>
        <time>2017-12-20T10:37:17.000Z</time>
      </trkpt>
      <trkpt lat="43.68732" lon="2.01138">
        <ele>190.3</ele>
        <time>2017-12-20T10:37:25.000Z</time>
      </trkpt>
      <trkpt lat="43.68736" lon="2.01148">
        <ele>190.2</ele>
        <time>2017-12-20T10:37:33.000Z</time>
      </trkpt>
      <trkpt lat="43.68741" lon="2.0116">
        <ele>190.2</ele>
        <time>2017-12-20T10:37:42.000Z</time>
      </trkpt>
      <trkpt lat="43.68749" lon="2.01167">
        <ele>190.8</ele>
        <time>2017-12-20T10:37:50.000Z</time>
      </trkpt>
      <trkpt lat="43.68757" lon="2.01174">
        <ele>191.5</ele>
        <time>2017-12-20T10:38:01.000Z</time>
      </trkpt>
      <trkpt lat="43.68765" lon="2.01167">
        <ele>191.3</ele>
        <time>2017-12-20T10:38:09.000Z</time>
      </trkpt>
      <trkpt lat="43.68772" lon="2.01158">
        <ele>192.8</ele>
        <time>2017-12-20T10:38:19.000Z</time>
      </trkpt>
      <trkpt lat="43.68778" lon="2.01149">
        <ele>193.8</ele>
        <time>2017-12-20T10:38:28.000Z</time>
      </trkpt>
      <trkpt lat="43.68784" lon="2.01139">
        <ele>195.2</ele>
        <time>2017-12-20T10:38:37.000Z</time>
      </trkpt>
      <trkpt lat="43.6879" lon="2.01128">
        <ele>196.5</ele>
        <time>2017-12-20T10:38:50.000Z</time>
      </trkpt>
      <trkpt lat="43.68796" lon="2.01118">
        <ele>197.4</ele>
        <time>2017-12-20T10:38:59.000Z</time>
      </trkpt>
      <trkpt lat="43.68804" lon="2.0111">
        <ele>198.1</ele>
        <time>2017-12-20T10:39:05.000Z</time>
      </trkpt>
      <trkpt lat="43.68811" lon="2.01101">
        <ele>199.2</ele>
        <time>2017-12-20T10:39:14.000Z</time>
      </trkpt>
      <trkpt lat="43.68818" lon="2.01092">
        <ele>200.1</ele>
        <time>2017-12-20T10:39:23.000Z</time>
      </trkpt>
      <trkpt lat="43.68827" lon="2.01086">
        <ele>200.9</ele>
        <time>2017-12-20T10:39:31.000Z</time>
      </trkpt>
      <trkpt lat="43.68836" lon="2.01084">
        <ele>201.9</ele>
        <time>2017-12-20T10:39:41.000Z</time>
      </trkpt>
      <trkpt lat="43.68846" lon="2.01082">
        <ele>202.6</ele>
        <time>2017-12-20T10:39:50.000Z</time>
      </trkpt>
      <trkpt lat="43.68854" lon="2.01077">
        <ele>203.3</ele>
        <time>2017-12-20T10:39:59.000Z</time>
      </trkpt>
      <trkpt lat="43.68864" lon="2.0107">
        <ele>203.9</ele>
        <time>2017-12-20T10:40:08.000Z</time>
      </trkpt>
      <trkpt lat="43.68871" lon="2.01063">
        <ele>204.4</ele>
        <time>2017-12-20T10:40:17.000Z</time>
      </trkpt>
      <trkpt lat="43.68879" lon="2.01054">
        <ele>204.9</ele>
        <time>2017-12-20T10:40:25.000Z</time>
      </trkpt>
      <trkpt lat="43.68887" lon="2.01042">
        <ele>231.4</ele>
        <time>2017-12-20T10:40:34.000Z</time>
      </trkpt>
      <trkpt lat="43.68894" lon="2.01034">
        <ele>231.8</ele>
        <time>2017-12-20T10:40:43.000Z</time>
      </trkpt>
      <trkpt lat="43.68902" lon="2.0103">
        <ele>232.2</ele>
        <time>2017-12-20T10:40:51.000Z</time>
      </trkpt>
      <trkpt lat="43.6891" lon="2.01027">
        <ele>207</ele>
        <time>2017-12-20T10:41:00.000Z</time>
      </trkpt>
      <trkpt lat="43.68918" lon="2.0102">
        <ele>207.8</ele>
        <time>2017-12-20T10:41:10.000Z</time>
      </trkpt>
      <trkpt lat="43.68927" lon="2.01017">
        <ele>208.2</ele>
        <time>2017-12-20T10:41:19.000Z</time>
      </trkpt>
      <trkpt lat="43.68937" lon="2.01014">
        <ele>235.5</ele>
        <time>2017-12-20T10:41:26.000Z</time>
      </trkpt>
      <trkpt lat="43.68947" lon="2.01013">
        <ele>209.1</ele>
        <time>2017-12-20T10:41:33.000Z</time>
      </trkpt>
      <trkpt lat="43.68953" lon="2.01003">
        <ele>237</ele>
        <time>2017-12-20T10:41:43.000Z</time>
      </trkpt>
      <trkpt lat="43.68962" lon="2.00995">
        <ele>237.7</ele>
        <time>2017-12-20T10:41:51.000Z</time>
      </trkpt>
      <trkpt lat="43.68967" lon="2.00989">
        <ele>238.2</ele>
        <time>2017-12-20T10:41:58.000Z</time>
      </trkpt>
      <trkpt lat="43.68974" lon="2.00982">
        <ele>238.8</ele>
        <time>2017-12-20T10:42:05.000Z</time>
      </trkpt>
      <trkpt lat="43.6898" lon="2.00973">
        <ele>239.1</ele>
        <time>2017-12-20T10:42:12.000Z</time>
      </trkpt>
      <trkpt lat="43.68988" lon="2.00961">
        <ele>239.5</ele>
        <time>2017-12-20T10:42:22.000Z</time>
      </trkpt>
      <trkpt lat="43.68994" lon="2.00954">
        <ele>213.1</ele>
        <time>2017-12-20T10:42:31.000Z</time>
      </trkpt>
      <trkpt lat="43.69" lon="2.00943">
        <ele>240</ele>
        <time>2017-12-20T10:42:40.000Z</time>
      </trkpt>
      <trkpt lat="43.69006" lon="2.00935">
        <ele>240.8</ele>
        <time>2017-12-20T10:42:47.000Z</time>
      </trkpt>
      <trkpt lat="43.69012" lon="2.00926">
        <ele>242</ele>
        <time>2017-12-20T10:42:56.000Z</time>
      </trkpt>
      <trkpt lat="43.69018" lon="2.00916">
        <ele>242.8</ele>
        <time>2017-12-20T10:43:06.000Z</time>
      </trkpt>
      <trkpt lat="43.69023" lon="2.00906">
        <ele>244</ele>
        <time>2017-12-20T10:43:14.000Z</time>
      </trkpt>
      <trkpt lat="43.69027" lon="2.00897">
        <ele>244.8</ele>
        <time>2017-12-20T10:43:24.000Z</time>
      </trkpt>
      <trkpt lat="43.69033" lon="2.00886">
        <ele>246</ele>
        <time>2017-12-20T10:43:34.000Z</time>
      </trkpt>
      <trkpt lat="43.69039" lon="2.00875">
        <ele>217.7</ele>
        <time>2017-12-20T10:43:42.000Z</time>
      </trkpt>
      <trkpt lat="43.69042" lon="2.00862">
        <ele>218.3</ele>
        <time>2017-12-20T10:43:49.000Z</time>
      </trkpt>
      <trkpt lat="43.69043" lon="2.00847">
        <ele>218.9</ele>
        <time>2017-12-20T10:43:55.000Z</time>
      </trkpt>
      <trkpt lat="43.69043" lon="2.00834">
        <ele>219.5</ele>
        <time>2017-12-20T10:44:02.000Z</time>
      </trkpt>
      <trkpt lat="43.69043" lon="2.00821">
        <ele>220</ele>
        <time>2017-12-20T10:44:10.000Z</time>
      </trkpt>
      <trkpt lat="43.69044" lon="2.00808">
        <ele>220.4</ele>
        <time>2017-12-20T10:44:17.000Z</time>
      </trkpt>
      <trkpt lat="43.69045" lon="2.00794">
        <ele>220.7</ele>
        <time>2017-12-20T10:44:25.000Z</time>
      </trkpt>
      <trkpt lat="43.69045" lon="2.0078">
        <ele>221</ele>
        <time>2017-12-20T10:44:33.000Z</time>
      </trkpt>
      <trkpt lat="43.69044" lon="2.00768">
        <ele>221.7</ele>
        <time>2017-12-20T10:44:41.000Z</time>
      </trkpt>
      <trkpt lat="43.69044" lon="2.00754">
        <ele>222.5</ele>
        <time>2017-12-20T10:44:50.000Z</time>
      </trkpt>
      <trkpt lat="43.69043" lon="2.00742">
        <ele>223.2</ele>
        <time>2017-12-20T10:44:59.000Z</time>
      </trkpt>
      <trkpt lat="43.69042" lon="2.00729">
        <ele>223.8</ele>
        <time>2017-12-20T10:45:08.000Z</time>
      </trkpt>
      <trkpt lat="43.69042" lon="2.00716">
        <ele>224.6</ele>
        <time>2017-12-20T10:45:17.000Z</time>
      </trkpt>
      <trkpt lat="43.69044" lon="2.00703">
        <ele>225.1</ele>
        <time>2017-12-20T10:45:25.000Z</time>
      </trkpt>
      <trkpt lat="43.69043" lon="2.0069">
        <ele>225.6</ele>
        <time>2017-12-20T10:45:34.000Z</time>
      </trkpt>
      <trkpt lat="43.69043" lon="2.00676">
        <ele>226.4</ele>
        <time>2017-12-20T10:45:44.000Z</time>
      </trkpt>
      <trkpt lat="43.69044" lon="2.00662">
        <ele>227.3</ele>
        <time>2017-12-20T10:45:53.000Z</time>
      </trkpt>
      <trkpt lat="43.69046" lon="2.0065">
        <ele>228.2</ele>
        <time>2017-12-20T10:46:02.000Z</time>
      </trkpt>
      <trkpt lat="43.69049" lon="2.00638">
        <ele>228.9</ele>
        <time>2017-12-20T10:46:09.000Z</time>
      </trkpt>
      <trkpt lat="43.69049" lon="2.00625">
        <ele>229.6</ele>
        <time>2017-12-20T10:46:17.000Z</time>
      </trkpt>
      <trkpt lat="43.69051" lon="2.00613">
        <ele>230.3</ele>
        <time>2017-12-20T10:46:25.000Z</time>
      </trkpt>
      <trkpt lat="43.69053" lon="2.006">
        <ele>230.8</ele>
        <time>2017-12-20T10:46:33.000Z</time>
      </trkpt>
      <trkpt lat="43.69056" lon="2.00588">
        <ele>231.3</ele>
        <time>2017-12-20T10:46:42.000Z</time>
      </trkpt>
      <trkpt lat="43.69063" lon="2.00578">
        <ele>231.9</ele>
        <time>2017-12-20T10:46:51.000Z</time>
      </trkpt>
      <trkpt lat="43.69069" lon="2.00569">
        <ele>232.2</ele>
        <time>2017-12-20T10:47:00.000Z</time>
      </trkpt>
      <trkpt lat="43.69076" lon="2.0056">
        <ele>232.4</ele>
        <time>2017-12-20T10:47:09.000Z</time>
      </trkpt>
      <trkpt lat="43.69084" lon="2.00552">
        <ele>232.2</ele>
        <time>2017-12-20T10:47:18.000Z</time>
      </trkpt>
      <trkpt lat="43.69091" lon="2.00544">
        <ele>232.1</ele>
        <time>2017-12-20T10:47:28.000Z</time>
      </trkpt>
      <trkpt lat="43.69097" lon="2.00533">
        <ele>231.9</ele>
        <time>2017-12-20T10:47:37.000Z</time>
      </trkpt>
      <trkpt lat="43.69104" lon="2.00523">
        <ele>231.6</ele>
        <time>2017-12-20T10:47:46.000Z</time>
      </trkpt>
      <trkpt lat="43.69111" lon="2.00514">
        <ele>231</ele>
        <time>2017-12-20T10:47:55.000Z</time>
      </trkpt>
      <trkpt lat="43.69116" lon="2.00503">
        <ele>230.3</ele>
        <time>2017-12-20T10:48:03.000Z</time>
      </trkpt>
      <trkpt lat="43.69121" lon="2.00493">
        <ele>229.6</ele>
        <time>2017-12-20T10:48:11.000Z</time>
      </trkpt>
      <trkpt lat="43.69127" lon="2.00483">
        <ele>229</ele>
        <time>2017-12-20T10:48:19.000Z</time>
      </trkpt>
      <trkpt lat="43.69132" lon="2.00472">
        <ele>228.2</ele>
        <time>2017-12-20T10:48:27.000Z</time>
      </trkpt>
      <trkpt lat="43.69134" lon="2.00459">
        <ele>227.9</ele>
        <time>2017-12-20T10:48:33.000Z</time>
      </trkpt>
      <trkpt lat="43.69139" lon="2.00447">
        <ele>227.6</ele>
        <time>2017-12-20T10:48:41.000Z</time>
      </trkpt>
      <trkpt lat="43.69143" lon="2.00435">
        <ele>227.2</ele>
        <time>2017-12-20T10:48:49.000Z</time>
      </trkpt>
      <trkpt lat="43.69149" lon="2.00424">
        <ele>226.9</ele>
        <time>2017-12-20T10:48:58.000Z</time>
      </trkpt>
      <trkpt lat="43.69155" lon="2.00415">
        <ele>226.8</ele>
        <time>2017-12-20T10:49:08.000Z</time>
      </trkpt>
      <trkpt lat="43.6916" lon="2.00404">
        <ele>226.6</ele>
        <time>2017-12-20T10:49:17.000Z</time>
      </trkpt>
      <trkpt lat="43.69165" lon="2.00392">
        <ele>226.3</ele>
        <time>2017-12-20T10:49:26.000Z</time>
      </trkpt>
      <trkpt lat="43.69172" lon="2.00382">
        <ele>226.2</ele>
        <time>2017-12-20T10:49:34.000Z</time>
      </trkpt>
      <trkpt lat="43.69177" lon="2.00371">
        <ele>226.1</ele>
        <time>2017-12-20T10:49:44.000Z</time>
      </trkpt>
      <trkpt lat="43.69182" lon="2.0036">
        <ele>226</ele>
        <time>2017-12-20T10:49:52.000Z</time>
      </trkpt>
      <trkpt lat="43.69187" lon="2.00348">
        <ele>226</ele>
        <time>2017-12-20T10:50:00.000Z</time>
      </trkpt>
      <trkpt lat="43.69191" lon="2.00336">
        <ele>225.9</ele>
        <time>2017-12-20T10:50:09.000Z</time>
      </trkpt>
      <trkpt lat="43.69195" lon="2.00325">
        <ele>225.9</ele>
        <time>2017-12-20T10:50:18.000Z</time>
      </trkpt>
      <trkpt lat="43.69201" lon="2.00313">
        <ele>225.9</ele>
        <time>2017-12-20T10:50:28.000Z</time>
      </trkpt>
      <trkpt lat="43.69206" lon="2.00302">
        <ele>225.9</ele>
        <time>2017-12-20T10:50:33.000Z</time>
      </trkpt>
      <trkpt lat="43.69211" lon="2.0029">
        <ele>225.9</ele>
        <time>2017-12-20T10:50:41.000Z</time>
      </trkpt>
      <trkpt lat="43.69215" lon="2.00279">
        <ele>226.4</ele>
        <time>2017-12-20T10:50:50.000Z</time>
      </trkpt>
      <trkpt lat="43.69219" lon="2.00268">
        <ele>227.6</ele>
        <time>2017-12-20T10:50:59.000Z</time>
      </trkpt>
      <trkpt lat="43.69224" lon="2.00255">
        <ele>229.7</ele>
        <time>2017-12-20T10:51:07.000Z</time>
      </trkpt>
      <trkpt lat="43.69229" lon="2.00245">
        <ele>229.4</ele>
        <time>2017-12-20T10:51:15.000Z</time>
      </trkpt>
      <trkpt lat="43.69238" lon="2.00242">
        <ele>228.6</ele>
        <time>2017-12-20T10:51:24.000Z</time>
      </trkpt>
      <trkpt lat="43.69244" lon="2.00232">
        <ele>228.2</ele>
        <time>2017-12-20T10:51:31.000Z</time>
      </trkpt>
      <trkpt lat="43.69248" lon="2.0022">
        <ele>227.8</ele>
        <time>2017-12-20T10:51:40.000Z</time>
      </trkpt>
      <trkpt lat="43.69251" lon="2.00207">
        <ele>227.6</ele>
        <time>2017-12-20T10:51:49.000Z</time>
      </trkpt>
      <trkpt lat="43.69255" lon="2.00195">
        <ele>227.5</ele>
        <time>2017-12-20T10:51:57.000Z</time>
      </trkpt>
      <trkpt lat="43.69265" lon="2.00191">
        <ele>227.4</ele>
        <time>2017-12-20T10:52:06.000Z</time>
      </trkpt>
      <trkpt lat="43.69275" lon="2.00197">
        <ele>227.3</ele>
        <time>2017-12-20T10:52:15.000Z</time>
      </trkpt>
      <trkpt lat="43.69283" lon="2.00204">
        <ele>226.9</ele>
        <time>2017-12-20T10:52:22.000Z</time>
      </trkpt>
      <trkpt lat="43.6929" lon="2.00213">
        <ele>226.6</ele>
        <time>2017-12-20T10:52:29.000Z</time>
      </trkpt>
      <trkpt lat="43.69298" lon="2.0022">
        <ele>225.5</ele>
        <time>2017-12-20T10:52:38.000Z</time>
      </trkpt>
      <trkpt lat="43.69303" lon="2.00231">
        <ele>224.5</ele>
        <time>2017-12-20T10:52:46.000Z</time>
      </trkpt>
      <trkpt lat="43.6931" lon="2.00241">
        <ele>223.5</ele>
        <time>2017-12-20T10:52:54.000Z</time>
      </trkpt>
      <trkpt lat="43.69316" lon="2.0025">
        <ele>222</ele>
        <time>2017-12-20T10:53:03.000Z</time>
      </trkpt>
      <trkpt lat="43.69327" lon="2.00247">
        <ele>220.9</ele>
        <time>2017-12-20T10:53:10.000Z</time>
      </trkpt>
      <trkpt lat="43.69332" lon="2.00236">
        <ele>219.8</ele>
        <time>2017-12-20T10:53:18.000Z</time>
      </trkpt>
      <trkpt lat="43.69333" lon="2.00223">
        <ele>219</ele>
        <time>2017-12-20T10:53:26.000Z</time>
      </trkpt>
      <trkpt lat="43.69335" lon="2.00211">
        <ele>218.5</ele>
        <time>2017-12-20T10:53:34.000Z</time>
      </trkpt>
      <trkpt lat="43.69335" lon="2.00197">
        <ele>218.2</ele>
        <time>2017-12-20T10:53:42.000Z</time>
      </trkpt>
      <trkpt lat="43.69335" lon="2.00184">
        <ele>218</ele>
        <time>2017-12-20T10:53:50.000Z</time>
      </trkpt>
      <trkpt lat="43.69333" lon="2.00172">
        <ele>217.7</ele>
        <time>2017-12-20T10:53:57.000Z</time>
      </trkpt>
      <trkpt lat="43.69334" lon="2.00158">
        <ele>217.2</ele>
        <time>2017-12-20T10:54:05.000Z</time>
      </trkpt>
      <trkpt lat="43.69336" lon="2.00146">
        <ele>217</ele>
        <time>2017-12-20T10:54:12.000Z</time>
      </trkpt>
      <trkpt lat="43.69337" lon="2.00132">
        <ele>216.5</ele>
        <time>2017-12-20T10:54:21.000Z</time>
      </trkpt>
      <trkpt lat="43.69339" lon="2.0012">
        <ele>216.3</ele>
        <time>2017-12-20T10:54:29.000Z</time>
      </trkpt>
      <trkpt lat="43.69339" lon="2.00106">
        <ele>216.1</ele>
        <time>2017-12-20T10:54:37.000Z</time>
      </trkpt>
      <trkpt lat="43.69338" lon="2.00093">
        <ele>215.9</ele>
        <time>2017-12-20T10:54:44.000Z</time>
      </trkpt>
      <trkpt lat="43.69337" lon="2.00079">
        <ele>215.5</ele>
        <time>2017-12-20T10:54:52.000Z</time>
      </trkpt>
      <trkpt lat="43.69339" lon="2.00067">
        <ele>214.9</ele>
        <time>2017-12-20T10:54:59.000Z</time>
      </trkpt>
      <trkpt lat="43.69339" lon="2.00053">
        <ele>214</ele>
        <time>2017-12-20T10:55:08.000Z</time>
      </trkpt>
      <trkpt lat="43.69339" lon="2.0004">
        <ele>213.3</ele>
        <time>2017-12-20T10:55:16.000Z</time>
      </trkpt>
      <trkpt lat="43.69338" lon="2.00027">
        <ele>212.8</ele>
        <time>2017-12-20T10:55:25.000Z</time>
      </trkpt>
      <trkpt lat="43.69336" lon="2.00014">
        <ele>212.4</ele>
        <time>2017-12-20T10:55:33.000Z</time>
      </trkpt>
      <trkpt lat="43.69339" lon="2.00001">
        <ele>211.9</ele>
        <time>2017-12-20T10:55:40.000Z</time>
      </trkpt>
      <trkpt lat="43.69336" lon="1.99988">
        <ele>211.5</ele>
        <time>2017-12-20T10:55:49.000Z</time>
      </trkpt>
      <trkpt lat="43.69333" lon="1.99976">
        <ele>210.7</ele>
        <time>2017-12-20T10:55:57.000Z</time>
      </trkpt>
      <trkpt lat="43.69329" lon="1.99963">
        <ele>210.1</ele>
        <time>2017-12-20T10:56:05.000Z</time>
      </trkpt>
      <trkpt lat="43.69327" lon="1.99951">
        <ele>209.7</ele>
        <time>2017-12-20T10:56:12.000Z</time>
      </trkpt>
      <trkpt lat="43.69324" lon="1.99938">
        <ele>209.1</ele>
        <time>2017-12-20T10:56:20.000Z</time>
      </trkpt>
      <trkpt lat="43.69317" lon="1.99927">
        <ele>208.5</ele>
        <time>2017-12-20T10:56:28.000Z</time>
      </trkpt>
      <trkpt lat="43.69313" lon="1.99916">
        <ele>207.6</ele>
        <time>2017-12-20T10:56:36.000Z</time>
      </trkpt>
      <trkpt lat="43.6931" lon="1.99904">
        <ele>206.7</ele>
        <time>2017-12-20T10:56:44.000Z</time>
      </trkpt>
      <trkpt lat="43.69304" lon="1.99894">
        <ele>205.9</ele>
        <time>2017-12-20T10:56:51.000Z</time>
      </trkpt>
      <trkpt lat="43.693" lon="1.99882">
        <ele>205.2</ele>
        <time>2017-12-20T10:57:00.000Z</time>
      </trkpt>
      <trkpt lat="43.69295" lon="1.99872">
        <ele>204.1</ele>
        <time>2017-12-20T10:57:08.000Z</time>
      </trkpt>
      <trkpt lat="43.6929" lon="1.9986">
        <ele>203.5</ele>
        <time>2017-12-20T10:57:16.000Z</time>
      </trkpt>
      <trkpt lat="43.69284" lon="1.9985">
        <ele>203.2</ele>
        <time>2017-12-20T10:57:24.000Z</time>
      </trkpt>
      <trkpt lat="43.69277" lon="1.99841">
        <ele>210.2</ele>
        <time>2017-12-20T10:57:32.000Z</time>
      </trkpt>
      <trkpt lat="43.69272" lon="1.99832">
        <ele>209.9</ele>
        <time>2017-12-20T10:57:39.000Z</time>
      </trkpt>
      <trkpt lat="43.69265" lon="1.99818">
        <ele>210</ele>
        <time>2017-12-20T10:57:46.000Z</time>
      </trkpt>
      <trkpt lat="43.69262" lon="1.99808">
        <ele>210.2</ele>
        <time>2017-12-20T10:57:53.000Z</time>
      </trkpt>
      <trkpt lat="43.69258" lon="1.99796">
        <ele>210.5</ele>
        <time>2017-12-20T10:58:01.000Z</time>
      </trkpt>
      <trkpt lat="43.69255" lon="1.99782">
        <ele>210.9</ele>
        <time>2017-12-20T10:58:10.000Z</time>
      </trkpt>
      <trkpt lat="43.69254" lon="1.9977">
        <ele>202.3</ele>
        <time>2017-12-20T10:58:24.000Z</time>
      </trkpt>
      <trkpt lat="43.69249" lon="1.9976">
        <ele>204.6</ele>
        <time>2017-12-20T10:58:42.000Z</time>
      </trkpt>
      <trkpt lat="43.69249" lon="1.99747">
        <ele>204.8</ele>
        <time>2017-12-20T10:58:52.000Z</time>
      </trkpt>
      <trkpt lat="43.69248" lon="1.99734">
        <ele>205.1</ele>
        <time>2017-12-20T10:59:00.000Z</time>
      </trkpt>
      <trkpt lat="43.69249" lon="1.9972">
        <ele>205.1</ele>
        <time>2017-12-20T10:59:10.000Z</time>
      </trkpt>
      <trkpt lat="43.69248" lon="1.99707">
        <ele>205.3</ele>
        <time>2017-12-20T10:59:19.000Z</time>
      </trkpt>
      <trkpt lat="43.69253" lon="1.99695">
        <ele>205.7</ele>
        <time>2017-12-20T10:59:29.000Z</time>
      </trkpt>
      <trkpt lat="43.69256" lon="1.99682">
        <ele>206.2</ele>
        <time>2017-12-20T10:59:37.000Z</time>
      </trkpt>
      <trkpt lat="43.69256" lon="1.99669">
        <ele>206.9</ele>
        <time>2017-12-20T10:59:46.000Z</time>
      </trkpt>
      <trkpt lat="43.69257" lon="1.99656">
        <ele>208.2</ele>
        <time>2017-12-20T10:59:56.000Z</time>
      </trkpt>
      <trkpt lat="43.69261" lon="1.99645">
        <ele>209.4</ele>
        <time>2017-12-20T11:00:04.000Z</time>
      </trkpt>
      <trkpt lat="43.69265" lon="1.99633">
        <ele>210.8</ele>
        <time>2017-12-20T11:00:12.000Z</time>
      </trkpt>
      <trkpt lat="43.69268" lon="1.9962">
        <ele>211.7</ele>
        <time>2017-12-20T11:00:20.000Z</time>
      </trkpt>
      <trkpt lat="43.6927" lon="1.99607">
        <ele>212.5</ele>
        <time>2017-12-20T11:00:29.000Z</time>
      </trkpt>
      <trkpt lat="43.69274" lon="1.99595">
        <ele>212.9</ele>
        <time>2017-12-20T11:00:38.000Z</time>
      </trkpt>
      <trkpt lat="43.6928" lon="1.99584">
        <ele>213.4</ele>
        <time>2017-12-20T11:00:46.000Z</time>
      </trkpt>
      <trkpt lat="43.69283" lon="1.99571">
        <ele>213.8</ele>
        <time>2017-12-20T11:00:55.000Z</time>
      </trkpt>
      <trkpt lat="43.69286" lon="1.99558">
        <ele>214.6</ele>
        <time>2017-12-20T11:01:05.000Z</time>
      </trkpt>
      <trkpt lat="43.69289" lon="1.99546">
        <ele>215.2</ele>
        <time>2017-12-20T11:01:12.000Z</time>
      </trkpt>
      <trkpt lat="43.69294" lon="1.99534">
        <ele>216</ele>
        <time>2017-12-20T11:01:20.000Z</time>
      </trkpt>
      <trkpt lat="43.69298" lon="1.99523">
        <ele>216.9</ele>
        <time>2017-12-20T11:01:29.000Z</time>
      </trkpt>
      <trkpt lat="43.69301" lon="1.99511">
        <ele>217.5</ele>
        <time>2017-12-20T11:01:37.000Z</time>
      </trkpt>
      <trkpt lat="43.69305" lon="1.99498">
        <ele>218.3</ele>
        <time>2017-12-20T11:01:46.000Z</time>
      </trkpt>
      <trkpt lat="43.69308" lon="1.99485">
        <ele>219.1</ele>
        <time>2017-12-20T11:01:54.000Z</time>
      </trkpt>
      <trkpt lat="43.69311" lon="1.99474">
        <ele>220.2</ele>
        <time>2017-12-20T11:02:02.000Z</time>
      </trkpt>
      <trkpt lat="43.69315" lon="1.99462">
        <ele>221.5</ele>
        <time>2017-12-20T11:02:12.000Z</time>
      </trkpt>
      <trkpt lat="43.69319" lon="1.9945">
        <ele>222.5</ele>
        <time>2017-12-20T11:02:20.000Z</time>
      </trkpt>
      <trkpt lat="43.69323" lon="1.99439">
        <ele>223.2</ele>
        <time>2017-12-20T11:02:28.000Z</time>
      </trkpt>
      <trkpt lat="43.69327" lon="1.99426">
        <ele>224.1</ele>
        <time>2017-12-20T11:02:37.000Z</time>
      </trkpt>
      <trkpt lat="43.6933" lon="1.99414">
        <ele>224.8</ele>
        <time>2017-12-20T11:02:46.000Z</time>
      </trkpt>
      <trkpt lat="43.69334" lon="1.99402">
        <ele>225.5</ele>
        <time>2017-12-20T11:02:55.000Z</time>
      </trkpt>
      <trkpt lat="43.69339" lon="1.9939">
        <ele>226.7</ele>
        <time>2017-12-20T11:03:04.000Z</time>
      </trkpt>
      <trkpt lat="43.69344" lon="1.99379">
        <ele>228</ele>
        <time>2017-12-20T11:03:11.000Z</time>
      </trkpt>
      <trkpt lat="43.69352" lon="1.99371">
        <ele>229.4</ele>
        <time>2017-12-20T11:03:20.000Z</time>
      </trkpt>
      <trkpt lat="43.69361" lon="1.99365">
        <ele>230.2</ele>
        <time>2017-12-20T11:03:29.000Z</time>
      </trkpt>
      <trkpt lat="43.6937" lon="1.99361">
        <ele>231.1</ele>
        <time>2017-12-20T11:03:39.000Z</time>
      </trkpt>
      <trkpt lat="43.69379" lon="1.99356">
        <ele>232</ele>
        <time>2017-12-20T11:03:48.000Z</time>
      </trkpt>
      <trkpt lat="43.69388" lon="1.9935">
        <ele>233.3</ele>
        <time>2017-12-20T11:03:59.000Z</time>
      </trkpt>
      <trkpt lat="43.69396" lon="1.99344">
        <ele>234.1</ele>
        <time>2017-12-20T11:04:07.000Z</time>
      </trkpt>
      <trkpt lat="43.69405" lon="1.9934">
        <ele>235.5</ele>
        <time>2017-12-20T11:04:15.000Z</time>
      </trkpt>
      <trkpt lat="43.69414" lon="1.99338">
        <ele>236.7</ele>
        <time>2017-12-20T11:04:22.000Z</time>
      </trkpt>
      <trkpt lat="43.69423" lon="1.99335">
        <ele>235.9</ele>
        <time>2017-12-20T11:04:30.000Z</time>
      </trkpt>
      <trkpt lat="43.69433" lon="1.99335">
        <ele>237.7</ele>
        <time>2017-12-20T11:04:39.000Z</time>
      </trkpt>
      <trkpt lat="43.69442" lon="1.99331">
        <ele>239.4</ele>
        <time>2017-12-20T11:04:49.000Z</time>
      </trkpt>
      <trkpt lat="43.6945" lon="1.99324">
        <ele>240.3</ele>
        <time>2017-12-20T11:04:58.000Z</time>
      </trkpt>
      <trkpt lat="43.69458" lon="1.99317">
        <ele>240.8</ele>
        <time>2017-12-20T11:05:11.000Z</time>
      </trkpt>
      <trkpt lat="43.69467" lon="1.99312">
        <ele>240.7</ele>
        <time>2017-12-20T11:05:23.000Z</time>
      </trkpt>
      <trkpt lat="43.69476" lon="1.99309">
        <ele>240.7</ele>
        <time>2017-12-20T11:05:32.000Z</time>
      </trkpt>
      <trkpt lat="43.69484" lon="1.99304">
        <ele>247.8</ele>
        <time>2017-12-20T11:05:39.000Z</time>
      </trkpt>
      <trkpt lat="43.69492" lon="1.99298">
        <ele>240.9</ele>
        <time>2017-12-20T11:05:49.000Z</time>
      </trkpt>
      <trkpt lat="43.69501" lon="1.99295">
        <ele>241.1</ele>
        <time>2017-12-20T11:05:59.000Z</time>
      </trkpt>
      <trkpt lat="43.6951" lon="1.99293">
        <ele>241.3</ele>
        <time>2017-12-20T11:06:09.000Z</time>
      </trkpt>
      <trkpt lat="43.69519" lon="1.99286">
        <ele>241.4</ele>
        <time>2017-12-20T11:06:20.000Z</time>
      </trkpt>
      <trkpt lat="43.69526" lon="1.9928">
        <ele>250.8</ele>
        <time>2017-12-20T11:06:29.000Z</time>
      </trkpt>
      <trkpt lat="43.69532" lon="1.99273">
        <ele>251.6</ele>
        <time>2017-12-20T11:06:39.000Z</time>
      </trkpt>
      <trkpt lat="43.69539" lon="1.99267">
        <ele>252.1</ele>
        <time>2017-12-20T11:06:51.000Z</time>
      </trkpt>
      <trkpt lat="43.69543" lon="1.99255">
        <ele>253.1</ele>
        <time>2017-12-20T11:07:01.000Z</time>
      </trkpt>
      <trkpt lat="43.69548" lon="1.99242">
        <ele>254.3</ele>
        <time>2017-12-20T11:07:16.000Z</time>
      </trkpt>
      <trkpt lat="43.69554" lon="1.99231">
        <ele>255.2</ele>
        <time>2017-12-20T11:07:25.000Z</time>
      </trkpt>
      <trkpt lat="43.69558" lon="1.9922">
        <ele>256.1</ele>
        <time>2017-12-20T11:07:33.000Z</time>
      </trkpt>
      <trkpt lat="43.69565" lon="1.99211">
        <ele>256.9</ele>
        <time>2017-12-20T11:07:42.000Z</time>
      </trkpt>
      <trkpt lat="43.6957" lon="1.992">
        <ele>258</ele>
        <time>2017-12-20T11:07:53.000Z</time>
      </trkpt>
      <trkpt lat="43.69576" lon="1.99189">
        <ele>258.9</ele>
        <time>2017-12-20T11:08:05.000Z</time>
      </trkpt>
      <trkpt lat="43.69582" lon="1.99179">
        <ele>259.8</ele>
        <time>2017-12-20T11:08:18.000Z</time>
      </trkpt>
      <trkpt lat="43.69591" lon="1.99171">
        <ele>260</ele>
        <time>2017-12-20T11:08:28.000Z</time>
      </trkpt>
      <trkpt lat="43.69598" lon="1.99161">
        <ele>260.4</ele>
        <time>2017-12-20T11:08:40.000Z</time>
      </trkpt>
      <trkpt lat="43.69603" lon="1.9915">
        <ele>260.9</ele>
        <time>2017-12-20T11:08:51.000Z</time>
      </trkpt>
      <trkpt lat="43.69608" lon="1.99142">
        <ele>261.3</ele>
        <time>2017-12-20T11:09:04.000Z</time>
      </trkpt>
      <trkpt lat="43.69614" lon="1.99131">
        <ele>261.7</ele>
        <time>2017-12-20T11:09:19.000Z</time>
      </trkpt>
      <trkpt lat="43.6962" lon="1.99123">
        <ele>261.9</ele>
        <time>2017-12-20T11:09:31.000Z</time>
      </trkpt>
      <trkpt lat="43.69628" lon="1.99114">
        <ele>258.1</ele>
        <time>2017-12-20T11:09:43.000Z</time>
      </trkpt>
      <trkpt lat="43.69634" lon="1.99103">
        <ele>260</ele>
        <time>2017-12-20T11:09:58.000Z</time>
      </trkpt>
      <trkpt lat="43.6964" lon="1.99093">
        <ele>261.5</ele>
        <time>2017-12-20T11:10:12.000Z</time>
      </trkpt>
      <trkpt lat="43.69643" lon="1.9908">
        <ele>263</ele>
        <time>2017-12-20T11:10:30.000Z</time>
      </trkpt>
      <trkpt lat="43.69647" lon="1.99069">
        <ele>264.6</ele>
        <time>2017-12-20T11:10:37.000Z</time>
      </trkpt>
      <trkpt lat="43.69651" lon="1.9906">
        <ele>265.3</ele>
        <time>2017-12-20T11:10:47.000Z</time>
      </trkpt>
      <trkpt lat="43.69655" lon="1.99052">
        <ele>265.9</ele>
        <time>2017-12-20T11:11:00.000Z</time>
      </trkpt>
      <trkpt lat="43.6966" lon="1.99039">
        <ele>266.9</ele>
        <time>2017-12-20T11:11:15.000Z</time>
      </trkpt>
      <trkpt lat="43.69665" lon="1.99024">
        <ele>268.3</ele>
        <time>2017-12-20T11:11:26.000Z</time>
      </trkpt>
      <trkpt lat="43.69667" lon="1.99004">
        <ele>270.5</ele>
        <time>2017-12-20T11:11:36.000Z</time>
      </trkpt>
      <trkpt lat="43.69669" lon="1.9899">
        <ele>272.3</ele>
        <time>2017-12-20T11:11:44.000Z</time>
      </trkpt>
      <trkpt lat="43.69675" lon="1.98976">
        <ele>274</ele>
        <time>2017-12-20T11:11:55.000Z</time>
      </trkpt>
      <trkpt lat="43.69681" lon="1.98957">
        <ele>276.2</ele>
        <time>2017-12-20T11:12:08.000Z</time>
      </trkpt>
      <trkpt lat="43.69691" lon="1.98943">
        <ele>277.5</ele>
        <time>2017-12-20T11:12:20.000Z</time>
      </trkpt>
      <trkpt lat="43.697" lon="1.98936">
        <ele>277.8</ele>
        <time>2017-12-20T11:12:30.000Z</time>
      </trkpt>
      <trkpt lat="43.69707" lon="1.98933">
        <ele>277.8</ele>
        <time>2017-12-20T11:12:42.000Z</time>
      </trkpt>
      <trkpt lat="43.69716" lon="1.98927">
        <ele>278.1</ele>
        <time>2017-12-20T11:12:53.000Z</time>
      </trkpt>
      <trkpt lat="43.69724" lon="1.98924">
        <ele>278</ele>
        <time>2017-12-20T11:13:04.000Z</time>
      </trkpt>
      <trkpt lat="43.69733" lon="1.9892">
        <ele>277.8</ele>
        <time>2017-12-20T11:13:13.000Z</time>
      </trkpt>
      <trkpt lat="43.69743" lon="1.98914">
        <ele>277.8</ele>
        <time>2017-12-20T11:13:21.000Z</time>
      </trkpt>
      <trkpt lat="43.69751" lon="1.98907">
        <ele>278.2</ele>
        <time>2017-12-20T11:13:33.000Z</time>
      </trkpt>
      <trkpt lat="43.6976" lon="1.98902">
        <ele>278.6</ele>
        <time>2017-12-20T11:13:41.000Z</time>
      </trkpt>
      <trkpt lat="43.69771" lon="1.98893">
        <ele>279.5</ele>
        <time>2017-12-20T11:13:51.000Z</time>
      </trkpt>
      <trkpt lat="43.69781" lon="1.98885">
        <ele>279.9</ele>
        <time>2017-12-20T11:14:01.000Z</time>
      </trkpt>
      <trkpt lat="43.69788" lon="1.98872">
        <ele>280.7</ele>
        <time>2017-12-20T11:14:12.000Z</time>
      </trkpt>
      <trkpt lat="43.69797" lon="1.98866">
        <ele>280.8</ele>
        <time>2017-12-20T11:14:23.000Z</time>
      </trkpt>
      <trkpt lat="43.69805" lon="1.98857">
        <ele>281</ele>
        <time>2017-12-20T11:14:33.000Z</time>
      </trkpt>
      <trkpt lat="43.6981" lon="1.98843">
        <ele>281.4</ele>
        <time>2017-12-20T11:14:43.000Z</time>
      </trkpt>
      <trkpt lat="43.69814" lon="1.98827">
        <ele>282.2</ele>
        <time>2017-12-20T11:14:58.000Z</time>
      </trkpt>
      <trkpt lat="43.69821" lon="1.98813">
        <ele>282.9</ele>
        <time>2017-12-20T11:15:08.000Z</time>
      </trkpt>
      <trkpt lat="43.69828" lon="1.98799">
        <ele>283.7</ele>
        <time>2017-12-20T11:15:17.000Z</time>
      </trkpt>
      <trkpt lat="43.69837" lon="1.98786">
        <ele>285.2</ele>
        <time>2017-12-20T11:15:29.000Z</time>
      </trkpt>
      <trkpt lat="43.69846" lon="1.98772">
        <ele>287.6</ele>
        <time>2017-12-20T11:15:41.000Z</time>
      </trkpt>
      <trkpt lat="43.69857" lon="1.98757">
        <ele>290.5</ele>
        <time>2017-12-20T11:15:51.000Z</time>
      </trkpt>
      <trkpt lat="43.69865" lon="1.9874">
        <ele>292.8</ele>
        <time>2017-12-20T11:16:02.000Z</time>
      </trkpt>
      <trkpt lat="43.69877" lon="1.98725">
        <ele>295.2</ele>
        <time>2017-12-20T11:16:12.000Z</time>
      </trkpt>
      <trkpt lat="43.69889" lon="1.98713">
        <ele>297</ele>
        <time>2017-12-20T11:16:21.000Z</time>
      </trkpt>
      <trkpt lat="43.69898" lon="1.98702">
        <ele>298.4</ele>
        <time>2017-12-20T11:16:30.000Z</time>
      </trkpt>
      <trkpt lat="43.69911" lon="1.98695">
        <ele>299.9</ele>
        <time>2017-12-20T11:16:40.000Z</time>
      </trkpt>
      <trkpt lat="43.69918" lon="1.98684">
        <ele>300.9</ele>
        <time>2017-12-20T11:16:54.000Z</time>
      </trkpt>
      <trkpt lat="43.6992" lon="1.9866">
        <ele>301.7</ele>
        <time>2017-12-20T11:17:11.000Z</time>
      </trkpt>
      <trkpt lat="43.69924" lon="1.98643">
        <ele>302.5</ele>
        <time>2017-12-20T11:17:25.000Z</time>
      </trkpt>
      <trkpt lat="43.6993" lon="1.98628">
        <ele>303.9</ele>
        <time>2017-12-20T11:17:39.000Z</time>
      </trkpt>
      <trkpt lat="43.69942" lon="1.98617">
        <ele>306.8</ele>
        <time>2017-12-20T11:17:47.000Z</time>
      </trkpt>
      <trkpt lat="43.69953" lon="1.98615">
        <ele>309.3</ele>
        <time>2017-12-20T11:18:17.000Z</time>
      </trkpt>
      <trkpt lat="43.69968" lon="1.98609">
        <ele>312.8</ele>
        <time>2017-12-20T11:18:26.000Z</time>
      </trkpt>
      <trkpt lat="43.69982" lon="1.98599">
        <ele>316.3</ele>
        <time>2017-12-20T11:18:34.000Z</time>
      </trkpt>
      <trkpt lat="43.69992" lon="1.98587">
        <ele>319.1</ele>
        <time>2017-12-20T11:18:48.000Z</time>
      </trkpt>
      <trkpt lat="43.70002" lon="1.98566">
        <ele>322.2</ele>
        <time>2017-12-20T11:18:59.000Z</time>
      </trkpt>
      <trkpt lat="43.70008" lon="1.98545">
        <ele>324.3</ele>
        <time>2017-12-20T11:19:10.000Z</time>
      </trkpt>
      <trkpt lat="43.70009" lon="1.98517">
        <ele>325.4</ele>
        <time>2017-12-20T11:19:21.000Z</time>
      </trkpt>
      <trkpt lat="43.70005" lon="1.98484">
        <ele>328.1</ele>
        <time>2017-12-20T11:19:22.000Z</time>
      </trkpt>
      <trkpt lat="43.70017" lon="1.98477">
        <ele>330</ele>
        <time>2017-12-20T11:19:23.000Z</time>
      </trkpt>
      <trkpt lat="43.70025" lon="1.98477">
        <ele>330.7</ele>
        <time>2017-12-20T11:19:24.000Z</time>
      </trkpt>
      <trkpt lat="43.70034" lon="1.98475">
        <ele>331.6</ele>
        <time>2017-12-20T11:19:48.000Z</time>
      </trkpt>
      <trkpt lat="43.70045" lon="1.98477">
        <ele>332.3</ele>
        <time>2017-12-20T11:19:58.000Z</time>
      </trkpt>
      <trkpt lat="43.70053" lon="1.98477">
        <ele>332.9</ele>
        <time>2017-12-20T11:20:09.000Z</time>
      </trkpt>
      <trkpt lat="43.70062" lon="1.98476">
        <ele>333.8</ele>
        <time>2017-12-20T11:20:42.000Z</time>
      </trkpt>
      <trkpt lat="43.70069" lon="1.98476">
        <ele>334.3</ele>
        <time>2017-12-20T11:20:53.000Z</time>
      </trkpt>
      <trkpt lat="43.70075" lon="1.98475">
        <ele>334.9</ele>
        <time>2017-12-20T11:21:06.000Z</time>
      </trkpt>
      <trkpt lat="43.70083" lon="1.98476">
        <ele>335.4</ele>
        <time>2017-12-20T11:21:30.000Z</time>
      </trkpt>
      <trkpt lat="43.70087" lon="1.98476">
        <ele>334.9</ele>
        <time>2017-12-20T11:21:48.000Z</time>
      </trkpt>
      <trkpt lat="43.7009" lon="1.98483">
        <ele>334.2</ele>
        <time>2017-12-20T11:22:02.000Z</time>
      </trkpt>
      <trkpt lat="43.70091" lon="1.98489">
        <ele>333.8</ele>
        <time>2017-12-20T11:22:19.000Z</time>
      </trkpt>
      <trkpt lat="43.70092" lon="1.98497">
        <ele>333.3</ele>
        <time>2017-12-20T11:22:35.000Z</time>
      </trkpt>
      <trkpt lat="43.70094" lon="1.98508">
        <ele>333.4</ele>
        <time>2017-12-20T11:22:49.000Z</time>
      </trkpt>
      <trkpt lat="43.70099" lon="1.98514">
        <ele>333.4</ele>
        <time>2017-12-20T11:23:03.000Z</time>
      </trkpt>
      <trkpt lat="43.70103" lon="1.98518">
        <ele>333.4</ele>
        <time>2017-12-20T11:23:15.000Z</time>
      </trkpt>
      <trkpt lat="43.70106" lon="1.9852">
        <ele>333.3</ele>
        <time>2017-12-20T11:23:27.000Z</time>
      </trkpt>
      <trkpt lat="43.70111" lon="1.98523">
        <ele>333</ele>
        <time>2017-12-20T11:23:54.000Z</time>
      </trkpt>
      <trkpt lat="43.70116" lon="1.98523">
        <ele>332.6</ele>
        <time>2017-12-20T11:24:27.000Z</time>
      </trkpt>
      <trkpt lat="43.7012" lon="1.98522">
        <ele>332.3</ele>
        <time>2017-12-20T11:55:03.000Z</time>
      </trkpt>
      <trkpt lat="43.70125" lon="1.98519">
        <ele>331.5</ele>
        <time>2017-12-20T11:55:21.000Z</time>
      </trkpt>
      <trkpt lat="43.70129" lon="1.98509">
        <ele>330</ele>
        <time>2017-12-20T11:55:53.000Z</time>
      </trkpt>
      <trkpt lat="43.70131" lon="1.98498">
        <ele>328.8</ele>
        <time>2017-12-20T11:56:34.000Z</time>
      </trkpt>
      <trkpt lat="43.70131" lon="1.98484">
        <ele>328.7</ele>
        <time>2017-12-20T11:57:07.000Z</time>
      </trkpt>
      <trkpt lat="43.70132" lon="1.98473">
        <ele>328.5</ele>
        <time>2017-12-20T11:57:23.000Z</time>
      </trkpt>
      <trkpt lat="43.70131" lon="1.98462">
        <ele>328.5</ele>
        <time>2017-12-20T11:57:33.000Z</time>
      </trkpt>
      <trkpt lat="43.70128" lon="1.98448">
        <ele>328.9</ele>
        <time>2017-12-20T11:57:42.000Z</time>
      </trkpt>
      <trkpt lat="43.70121" lon="1.98437">
        <ele>330.3</ele>
        <time>2017-12-20T11:57:50.000Z</time>
      </trkpt>
      <trkpt lat="43.70114" lon="1.98426">
        <ele>331.9</ele>
        <time>2017-12-20T11:57:58.000Z</time>
      </trkpt>
      <trkpt lat="43.70105" lon="1.98414">
        <ele>334.3</ele>
        <time>2017-12-20T11:58:08.000Z</time>
      </trkpt>
      <trkpt lat="43.70097" lon="1.98405">
        <ele>337.1</ele>
        <time>2017-12-20T11:58:18.000Z</time>
      </trkpt>
      <trkpt lat="43.70092" lon="1.98398">
        <ele>339.2</ele>
        <time>2017-12-20T11:58:26.000Z</time>
      </trkpt>
      <trkpt lat="43.70087" lon="1.98385">
        <ele>341.5</ele>
        <time>2017-12-20T11:58:33.000Z</time>
      </trkpt>
      <trkpt lat="43.70081" lon="1.98378">
        <ele>343.2</ele>
        <time>2017-12-20T11:58:38.000Z</time>
      </trkpt>
      <trkpt lat="43.70074" lon="1.9837">
        <ele>344</ele>
        <time>2017-12-20T11:58:46.000Z</time>
      </trkpt>
      <trkpt lat="43.7007" lon="1.98362">
        <ele>345</ele>
        <time>2017-12-20T11:58:55.000Z</time>
      </trkpt>
      <trkpt lat="43.70065" lon="1.98352">
        <ele>346</ele>
        <time>2017-12-20T11:59:01.000Z</time>
      </trkpt>
      <trkpt lat="43.70062" lon="1.98349">
        <ele>346.3</ele>
        <time>2017-12-20T11:59:03.378Z</time>
      </trkpt>
      <trkpt lat="43.7006" lon="1.98344">
        <ele>346.8</ele>
        <time>2017-12-20T11:59:06.000Z</time>
      </trkpt>
      <trkpt lat="43.70055" lon="1.98336">
        <ele>347.7</ele>
        <time>2017-12-20T11:59:11.000Z</time>
      </trkpt>
      <trkpt lat="43.70053" lon="1.98322">
        <ele>241.7</ele>
        <time>2017-12-20T11:59:17.000Z</time>
      </trkpt>
      <trkpt lat="43.7006" lon="1.98312">
        <ele>242.5</ele>
        <time>2017-12-20T11:59:25.000Z</time>
      </trkpt>
      <trkpt lat="43.70065" lon="1.983">
        <ele>243.2</ele>
        <time>2017-12-20T11:59:33.000Z</time>
      </trkpt>
      <trkpt lat="43.70069" lon="1.98289">
        <ele>243.9</ele>
        <time>2017-12-20T11:59:40.000Z</time>
      </trkpt>
      <trkpt lat="43.70075" lon="1.98277">
        <ele>244.5</ele>
        <time>2017-12-20T11:59:47.000Z</time>
      </trkpt>
      <trkpt lat="43.70081" lon="1.98266">
        <ele>245.3</ele>
        <time>2017-12-20T11:59:56.000Z</time>
      </trkpt>
      <trkpt lat="43.70082" lon="1.98253">
        <ele>245.7</ele>
        <time>2017-12-20T12:00:02.000Z</time>
      </trkpt>
      <trkpt lat="43.70089" lon="1.98243">
        <ele>351</ele>
        <time>2017-12-20T12:00:09.000Z</time>
      </trkpt>
      <trkpt lat="43.70093" lon="1.98233">
        <ele>350.3</ele>
        <time>2017-12-20T12:00:18.000Z</time>
      </trkpt>
      <trkpt lat="43.70095" lon="1.98225">
        <ele>349.9</ele>
        <time>2017-12-20T12:00:28.000Z</time>
      </trkpt>
      <trkpt lat="43.70101" lon="1.98217">
        <ele>349</ele>
        <time>2017-12-20T12:00:35.000Z</time>
      </trkpt>
      <trkpt lat="43.70106" lon="1.98205">
        <ele>348.4</ele>
        <time>2017-12-20T12:00:44.000Z</time>
      </trkpt>
      <trkpt lat="43.70109" lon="1.98196">
        <ele>348.1</ele>
        <time>2017-12-20T12:00:54.000Z</time>
      </trkpt>
      <trkpt lat="43.70115" lon="1.98186">
        <ele>347.5</ele>
        <time>2017-12-20T12:01:01.000Z</time>
      </trkpt>
      <trkpt lat="43.70119" lon="1.98173">
        <ele>347.3</ele>
        <time>2017-12-20T12:01:07.000Z</time>
      </trkpt>
      <trkpt lat="43.70125" lon="1.98167">
        <ele>347</ele>
        <time>2017-12-20T12:01:13.000Z</time>
      </trkpt>
      <trkpt lat="43.70129" lon="1.98156">
        <ele>346.7</ele>
        <time>2017-12-20T12:01:20.000Z</time>
      </trkpt>
      <trkpt lat="43.70138" lon="1.98149">
        <ele>346.3</ele>
        <time>2017-12-20T12:01:27.000Z</time>
      </trkpt>
      <trkpt lat="43.70145" lon="1.98138">
        <ele>244.9</ele>
        <time>2017-12-20T12:01:34.000Z</time>
      </trkpt>
      <trkpt lat="43.70152" lon="1.98131">
        <ele>346.1</ele>
        <time>2017-12-20T12:01:40.000Z</time>
      </trkpt>
      <trkpt lat="43.70156" lon="1.98126">
        <ele>346.2</ele>
        <time>2017-12-20T12:01:46.000Z</time>
      </trkpt>
      <trkpt lat="43.70163" lon="1.98119">
        <ele>346.3</ele>
        <time>2017-12-20T12:01:54.000Z</time>
      </trkpt>
      <trkpt lat="43.70169" lon="1.98115">
        <ele>346.3</ele>
        <time>2017-12-20T12:02:00.000Z</time>
      </trkpt>
      <trkpt lat="43.70176" lon="1.98102">
        <ele>346.3</ele>
        <time>2017-12-20T12:02:10.000Z</time>
      </trkpt>
      <trkpt lat="43.70182" lon="1.98094">
        <ele>346.3</ele>
        <time>2017-12-20T12:02:17.000Z</time>
      </trkpt>
      <trkpt lat="43.70191" lon="1.98084">
        <ele>346.3</ele>
        <time>2017-12-20T12:02:24.000Z</time>
      </trkpt>
      <trkpt lat="43.70199" lon="1.98078">
        <ele>345.6</ele>
        <time>2017-12-20T12:02:32.000Z</time>
      </trkpt>
      <trkpt lat="43.70208" lon="1.98072">
        <ele>345</ele>
        <time>2017-12-20T12:02:40.000Z</time>
      </trkpt>
      <trkpt lat="43.70218" lon="1.98064">
        <ele>246.1</ele>
        <time>2017-12-20T12:02:48.000Z</time>
      </trkpt>
      <trkpt lat="43.70225" lon="1.98054">
        <ele>246.4</ele>
        <time>2017-12-20T12:02:57.000Z</time>
      </trkpt>
      <trkpt lat="43.70233" lon="1.98047">
        <ele>245.9</ele>
        <time>2017-12-20T12:03:04.000Z</time>
      </trkpt>
      <trkpt lat="43.70241" lon="1.98039">
        <ele>246</ele>
        <time>2017-12-20T12:03:13.000Z</time>
      </trkpt>
      <trkpt lat="43.7025" lon="1.98034">
        <ele>245.6</ele>
        <time>2017-12-20T12:03:21.000Z</time>
      </trkpt>
      <trkpt lat="43.70257" lon="1.98025">
        <ele>245</ele>
        <time>2017-12-20T12:03:28.000Z</time>
      </trkpt>
      <trkpt lat="43.70264" lon="1.98016">
        <ele>244.4</ele>
        <time>2017-12-20T12:03:35.000Z</time>
      </trkpt>
      <trkpt lat="43.70271" lon="1.98006">
        <ele>243.9</ele>
        <time>2017-12-20T12:03:43.000Z</time>
      </trkpt>
      <trkpt lat="43.70278" lon="1.97995">
        <ele>243.5</ele>
        <time>2017-12-20T12:03:52.000Z</time>
      </trkpt>
      <trkpt lat="43.70284" lon="1.97986">
        <ele>242.4</ele>
        <time>2017-12-20T12:04:00.000Z</time>
      </trkpt>
      <trkpt lat="43.70288" lon="1.97974">
        <ele>242.8</ele>
        <time>2017-12-20T12:04:08.000Z</time>
      </trkpt>
      <trkpt lat="43.70293" lon="1.97959">
        <ele>242.5</ele>
        <time>2017-12-20T12:04:15.000Z</time>
      </trkpt>
      <trkpt lat="43.70299" lon="1.97948">
        <ele>330.4</ele>
        <time>2017-12-20T12:04:19.000Z</time>
      </trkpt>
      <trkpt lat="43.70304" lon="1.97937">
        <ele>328.4</ele>
        <time>2017-12-20T12:04:23.000Z</time>
      </trkpt>
      <trkpt lat="43.70306" lon="1.97925">
        <ele>327</ele>
        <time>2017-12-20T12:04:32.000Z</time>
      </trkpt>
      <trkpt lat="43.7031" lon="1.97916">
        <ele>325.4</ele>
        <time>2017-12-20T12:04:39.000Z</time>
      </trkpt>
      <trkpt lat="43.70316" lon="1.97905">
        <ele>322.9</ele>
        <time>2017-12-20T12:04:49.000Z</time>
      </trkpt>
      <trkpt lat="43.70319" lon="1.9789">
        <ele>321.1</ele>
        <time>2017-12-20T12:04:55.000Z</time>
      </trkpt>
      <trkpt lat="43.70323" lon="1.9788">
        <ele>319.3</ele>
        <time>2017-12-20T12:05:02.000Z</time>
      </trkpt>
      <trkpt lat="43.70325" lon="1.97869">
        <ele>317.8</ele>
        <time>2017-12-20T12:05:09.000Z</time>
      </trkpt>
      <trkpt lat="43.70329" lon="1.97855">
        <ele>315.7</ele>
        <time>2017-12-20T12:05:16.000Z</time>
      </trkpt>
      <trkpt lat="43.70332" lon="1.9784">
        <ele>313.8</ele>
        <time>2017-12-20T12:05:22.000Z</time>
      </trkpt>
      <trkpt lat="43.70334" lon="1.97828">
        <ele>312.9</ele>
        <time>2017-12-20T12:05:31.000Z</time>
      </trkpt>
      <trkpt lat="43.70336" lon="1.97817">
        <ele>312.7</ele>
        <time>2017-12-20T12:05:38.000Z</time>
      </trkpt>
      <trkpt lat="43.7034" lon="1.97805">
        <ele>311.8</ele>
        <time>2017-12-20T12:05:48.000Z</time>
      </trkpt>
      <trkpt lat="43.70342" lon="1.97791">
        <ele>229</ele>
        <time>2017-12-20T12:05:58.000Z</time>
      </trkpt>
      <trkpt lat="43.70346" lon="1.97778">
        <ele>228.1</ele>
        <time>2017-12-20T12:06:04.000Z</time>
      </trkpt>
      <trkpt lat="43.7035" lon="1.97766">
        <ele>227.3</ele>
        <time>2017-12-20T12:06:11.000Z</time>
      </trkpt>
      <trkpt lat="43.70354" lon="1.97754">
        <ele>226.6</ele>
        <time>2017-12-20T12:06:19.000Z</time>
      </trkpt>
      <trkpt lat="43.70359" lon="1.97742">
        <ele>225.8</ele>
        <time>2017-12-20T12:06:33.000Z</time>
      </trkpt>
      <trkpt lat="43.70361" lon="1.97729">
        <ele>225.3</ele>
        <time>2017-12-20T12:06:41.000Z</time>
      </trkpt>
      <trkpt lat="43.70365" lon="1.97717">
        <ele>224.6</ele>
        <time>2017-12-20T12:06:50.000Z</time>
      </trkpt>
      <trkpt lat="43.70368" lon="1.97704">
        <ele>224.1</ele>
        <time>2017-12-20T12:06:59.000Z</time>
      </trkpt>
      <trkpt lat="43.7037" lon="1.97691">
        <ele>223.7</ele>
        <time>2017-12-20T12:07:07.000Z</time>
      </trkpt>
      <trkpt lat="43.70373" lon="1.97678">
        <ele>223.4</ele>
        <time>2017-12-20T12:07:14.000Z</time>
      </trkpt>
      <trkpt lat="43.70375" lon="1.97666">
        <ele>223.3</ele>
        <time>2017-12-20T12:07:21.000Z</time>
      </trkpt>
      <trkpt lat="43.70375" lon="1.97652">
        <ele>223.2</ele>
        <time>2017-12-20T12:07:28.000Z</time>
      </trkpt>
      <trkpt lat="43.70374" lon="1.97639">
        <ele>223.1</ele>
        <time>2017-12-20T12:07:35.000Z</time>
      </trkpt>
      <trkpt lat="43.70372" lon="1.97626">
        <ele>223</ele>
        <time>2017-12-20T12:07:43.000Z</time>
      </trkpt>
      <trkpt lat="43.70369" lon="1.97614">
        <ele>223</ele>
        <time>2017-12-20T12:07:51.000Z</time>
      </trkpt>
      <trkpt lat="43.70367" lon="1.97601">
        <ele>223</ele>
        <time>2017-12-20T12:07:59.000Z</time>
      </trkpt>
      <trkpt lat="43.70367" lon="1.97588">
        <ele>223.1</ele>
        <time>2017-12-20T12:08:08.000Z</time>
      </trkpt>
      <trkpt lat="43.70366" lon="1.97576">
        <ele>223.1</ele>
        <time>2017-12-20T12:08:14.000Z</time>
      </trkpt>
      <trkpt lat="43.70368" lon="1.97563">
        <ele>223.1</ele>
        <time>2017-12-20T12:08:22.000Z</time>
      </trkpt>
      <trkpt lat="43.70367" lon="1.9755">
        <ele>223</ele>
        <time>2017-12-20T12:08:30.000Z</time>
      </trkpt>
      <trkpt lat="43.70367" lon="1.97536">
        <ele>222.9</ele>
        <time>2017-12-20T12:08:38.000Z</time>
      </trkpt>
      <trkpt lat="43.70369" lon="1.97521">
        <ele>222.6</ele>
        <time>2017-12-20T12:08:45.000Z</time>
      </trkpt>
      <trkpt lat="43.70368" lon="1.97508">
        <ele>222.3</ele>
        <time>2017-12-20T12:08:51.000Z</time>
      </trkpt>
      <trkpt lat="43.70367" lon="1.97494">
        <ele>221.8</ele>
        <time>2017-12-20T12:08:58.000Z</time>
      </trkpt>
      <trkpt lat="43.70365" lon="1.97481">
        <ele>221.4</ele>
        <time>2017-12-20T12:09:05.000Z</time>
      </trkpt>
      <trkpt lat="43.70363" lon="1.97467">
        <ele>220.7</ele>
        <time>2017-12-20T12:09:15.000Z</time>
      </trkpt>
      <trkpt lat="43.70363" lon="1.97455">
        <ele>220.1</ele>
        <time>2017-12-20T12:09:21.000Z</time>
      </trkpt>
      <trkpt lat="43.70356" lon="1.97445">
        <ele>218.2</ele>
        <time>2017-12-20T12:11:23.000Z</time>
      </trkpt>
      <trkpt lat="43.70352" lon="1.97432">
        <ele>218</ele>
        <time>2017-12-20T12:11:33.000Z</time>
      </trkpt>
      <trkpt lat="43.70345" lon="1.97423">
        <ele>217.4</ele>
        <time>2017-12-20T12:11:41.000Z</time>
      </trkpt>
      <trkpt lat="43.7034" lon="1.97411">
        <ele>216.9</ele>
        <time>2017-12-20T12:11:48.000Z</time>
      </trkpt>
      <trkpt lat="43.70336" lon="1.97399">
        <ele>216.5</ele>
        <time>2017-12-20T12:11:55.000Z</time>
      </trkpt>
      <trkpt lat="43.70331" lon="1.97387">
        <ele>215.5</ele>
        <time>2017-12-20T12:12:03.000Z</time>
      </trkpt>
      <trkpt lat="43.70327" lon="1.97374">
        <ele>214.7</ele>
        <time>2017-12-20T12:12:10.000Z</time>
      </trkpt>
      <trkpt lat="43.70324" lon="1.97361">
        <ele>213.5</ele>
        <time>2017-12-20T12:12:18.000Z</time>
      </trkpt>
      <trkpt lat="43.7032" lon="1.97348">
        <ele>212.5</ele>
        <time>2017-12-20T12:12:26.000Z</time>
      </trkpt>
      <trkpt lat="43.70316" lon="1.97336">
        <ele>211.8</ele>
        <time>2017-12-20T12:12:33.000Z</time>
      </trkpt>
      <trkpt lat="43.70314" lon="1.97322">
        <ele>211</ele>
        <time>2017-12-20T12:12:40.000Z</time>
      </trkpt>
      <trkpt lat="43.70309" lon="1.97311">
        <ele>210.4</ele>
        <time>2017-12-20T12:12:48.000Z</time>
      </trkpt>
      <trkpt lat="43.70303" lon="1.973">
        <ele>210</ele>
        <time>2017-12-20T12:12:57.000Z</time>
      </trkpt>
      <trkpt lat="43.70296" lon="1.97291">
        <ele>209.7</ele>
        <time>2017-12-20T12:13:10.000Z</time>
      </trkpt>
      <trkpt lat="43.70288" lon="1.97286">
        <ele>208.9</ele>
        <time>2017-12-20T12:13:18.000Z</time>
      </trkpt>
      <trkpt lat="43.70279" lon="1.97282">
        <ele>206.9</ele>
        <time>2017-12-20T12:13:26.000Z</time>
      </trkpt>
      <trkpt lat="43.70269" lon="1.9728">
        <ele>205.1</ele>
        <time>2017-12-20T12:13:34.000Z</time>
      </trkpt>
      <trkpt lat="43.7026" lon="1.97275">
        <ele>203.9</ele>
        <time>2017-12-20T12:13:42.000Z</time>
      </trkpt>
      <trkpt lat="43.70252" lon="1.97269">
        <ele>202.5</ele>
        <time>2017-12-20T12:13:53.000Z</time>
      </trkpt>
      <trkpt lat="43.70244" lon="1.97261">
        <ele>201.6</ele>
        <time>2017-12-20T12:13:59.000Z</time>
      </trkpt>
      <trkpt lat="43.70236" lon="1.97252">
        <ele>200.2</ele>
        <time>2017-12-20T12:14:08.000Z</time>
      </trkpt>
      <trkpt lat="43.7023" lon="1.97242">
        <ele>198.8</ele>
        <time>2017-12-20T12:14:15.000Z</time>
      </trkpt>
      <trkpt lat="43.70226" lon="1.97231">
        <ele>197.7</ele>
        <time>2017-12-20T12:14:24.000Z</time>
      </trkpt>
      <trkpt lat="43.70218" lon="1.97221">
        <ele>197.2</ele>
        <time>2017-12-20T12:14:31.000Z</time>
      </trkpt>
      <trkpt lat="43.7021" lon="1.97214">
        <ele>196.7</ele>
        <time>2017-12-20T12:14:37.000Z</time>
      </trkpt>
      <trkpt lat="43.70201" lon="1.97209">
        <ele>196.3</ele>
        <time>2017-12-20T12:14:47.000Z</time>
      </trkpt>
      <trkpt lat="43.70191" lon="1.97208">
        <ele>195.7</ele>
        <time>2017-12-20T12:14:57.000Z</time>
      </trkpt>
      <trkpt lat="43.70181" lon="1.97207">
        <ele>195</ele>
        <time>2017-12-20T12:15:05.000Z</time>
      </trkpt>
      <trkpt lat="43.70172" lon="1.97206">
        <ele>194.3</ele>
        <time>2017-12-20T12:15:13.000Z</time>
      </trkpt>
      <trkpt lat="43.70163" lon="1.97202">
        <ele>193.7</ele>
        <time>2017-12-20T12:15:24.000Z</time>
      </trkpt>
      <trkpt lat="43.70155" lon="1.97195">
        <ele>192.9</ele>
        <time>2017-12-20T12:15:34.000Z</time>
      </trkpt>
      <trkpt lat="43.70147" lon="1.97187">
        <ele>191.9</ele>
        <time>2017-12-20T12:15:43.000Z</time>
      </trkpt>
      <trkpt lat="43.7014" lon="1.97178">
        <ele>190.5</ele>
        <time>2017-12-20T12:15:52.000Z</time>
      </trkpt>
      <trkpt lat="43.70132" lon="1.97172">
        <ele>189.3</ele>
        <time>2017-12-20T12:16:03.000Z</time>
      </trkpt>
      <trkpt lat="43.70122" lon="1.97171">
        <ele>188.4</ele>
        <time>2017-12-20T12:16:12.000Z</time>
      </trkpt>
      <trkpt lat="43.70114" lon="1.97176">
        <ele>187.1</ele>
        <time>2017-12-20T12:16:23.000Z</time>
      </trkpt>
      <trkpt lat="43.70109" lon="1.97187">
        <ele>184.6</ele>
        <time>2017-12-20T12:16:33.000Z</time>
      </trkpt>
      <trkpt lat="43.70103" lon="1.97197">
        <ele>183.5</ele>
        <time>2017-12-20T12:16:43.000Z</time>
      </trkpt>
      <trkpt lat="43.70095" lon="1.97202">
        <ele>181</ele>
        <time>2017-12-20T12:16:54.000Z</time>
      </trkpt>
      <trkpt lat="43.70085" lon="1.97201">
        <ele>178.8</ele>
        <time>2017-12-20T12:17:04.000Z</time>
      </trkpt>
      <trkpt lat="43.70076" lon="1.97197">
        <ele>176.3</ele>
        <time>2017-12-20T12:17:15.000Z</time>
      </trkpt>
      <trkpt lat="43.7007" lon="1.97187">
        <ele>174.3</ele>
        <time>2017-12-20T12:17:23.000Z</time>
      </trkpt>
      <trkpt lat="43.70063" lon="1.97178">
        <ele>172.6</ele>
        <time>2017-12-20T12:17:32.000Z</time>
      </trkpt>
      <trkpt lat="43.70054" lon="1.97173">
        <ele>171</ele>
        <time>2017-12-20T12:17:42.000Z</time>
      </trkpt>
      <trkpt lat="43.70046" lon="1.97166">
        <ele>170.3</ele>
        <time>2017-12-20T12:17:51.000Z</time>
      </trkpt>
      <trkpt lat="43.70039" lon="1.97158">
        <ele>168.8</ele>
        <time>2017-12-20T12:17:59.000Z</time>
      </trkpt>
      <trkpt lat="43.70031" lon="1.97151">
        <ele>168.1</ele>
        <time>2017-12-20T12:18:05.000Z</time>
      </trkpt>
      <trkpt lat="43.70022" lon="1.97146">
        <ele>167.3</ele>
        <time>2017-12-20T12:18:12.000Z</time>
      </trkpt>
      <trkpt lat="43.70015" lon="1.97138">
        <ele>166.4</ele>
        <time>2017-12-20T12:18:19.000Z</time>
      </trkpt>
      <trkpt lat="43.70006" lon="1.97129">
        <ele>165.6</ele>
        <time>2017-12-20T12:18:27.000Z</time>
      </trkpt>
      <trkpt lat="43.69999" lon="1.97121">
        <ele>165</ele>
        <time>2017-12-20T12:18:34.000Z</time>
      </trkpt>
      <trkpt lat="43.6999" lon="1.97117">
        <ele>164</ele>
        <time>2017-12-20T12:18:42.000Z</time>
      </trkpt>
      <trkpt lat="43.69982" lon="1.97112">
        <ele>163</ele>
        <time>2017-12-20T12:18:49.000Z</time>
      </trkpt>
      <trkpt lat="43.69972" lon="1.97107">
        <ele>161.3</ele>
        <time>2017-12-20T12:18:58.000Z</time>
      </trkpt>
      <trkpt lat="43.69962" lon="1.97102">
        <ele>159.7</ele>
        <time>2017-12-20T12:19:07.000Z</time>
      </trkpt>
      <trkpt lat="43.69954" lon="1.97095">
        <ele>158.3</ele>
        <time>2017-12-20T12:19:16.000Z</time>
      </trkpt>
      <trkpt lat="43.69946" lon="1.97089">
        <ele>157.2</ele>
        <time>2017-12-20T12:19:23.000Z</time>
      </trkpt>
      <trkpt lat="43.69936" lon="1.97085">
        <ele>156.3</ele>
        <time>2017-12-20T12:19:31.000Z</time>
      </trkpt>
      <trkpt lat="43.69926" lon="1.9708">
        <ele>155.4</ele>
        <time>2017-12-20T12:19:38.000Z</time>
      </trkpt>
      <trkpt lat="43.69918" lon="1.97075">
        <ele>154.5</ele>
        <time>2017-12-20T12:19:45.000Z</time>
      </trkpt>
      <trkpt lat="43.69909" lon="1.97069">
        <ele>153.8</ele>
        <time>2017-12-20T12:19:52.000Z</time>
      </trkpt>
      <trkpt lat="43.699" lon="1.97067">
        <ele>153</ele>
        <time>2017-12-20T12:19:59.000Z</time>
      </trkpt>
      <trkpt lat="43.69891" lon="1.97064">
        <ele>151.8</ele>
        <time>2017-12-20T12:20:08.000Z</time>
      </trkpt>
      <trkpt lat="43.69884" lon="1.97054">
        <ele>150.4</ele>
        <time>2017-12-20T12:20:16.000Z</time>
      </trkpt>
      <trkpt lat="43.69876" lon="1.97048">
        <ele>149.2</ele>
        <time>2017-12-20T12:20:24.000Z</time>
      </trkpt>
      <trkpt lat="43.69868" lon="1.97038">
        <ele>148</ele>
        <time>2017-12-20T12:20:32.000Z</time>
      </trkpt>
      <trkpt lat="43.69859" lon="1.9703">
        <ele>146.9</ele>
        <time>2017-12-20T12:20:41.000Z</time>
      </trkpt>
      <trkpt lat="43.6985" lon="1.97025">
        <ele>146</ele>
        <time>2017-12-20T12:20:49.000Z</time>
      </trkpt>
      <trkpt lat="43.69843" lon="1.97016">
        <ele>144.9</ele>
        <time>2017-12-20T12:20:57.000Z</time>
      </trkpt>
      <trkpt lat="43.69834" lon="1.97009">
        <ele>144.1</ele>
        <time>2017-12-20T12:21:05.000Z</time>
      </trkpt>
      <trkpt lat="43.69825" lon="1.97003">
        <ele>143.1</ele>
        <time>2017-12-20T12:21:14.000Z</time>
      </trkpt>
      <trkpt lat="43.69816" lon="1.97001">
        <ele>142.1</ele>
        <time>2017-12-20T12:21:24.000Z</time>
      </trkpt>
      <trkpt lat="43.69807" lon="1.96995">
        <ele>141.3</ele>
        <time>2017-12-20T12:21:33.000Z</time>
      </trkpt>
      <trkpt lat="43.69799" lon="1.96988">
        <ele>140.6</ele>
        <time>2017-12-20T12:21:40.000Z</time>
      </trkpt>
      <trkpt lat="43.6979" lon="1.96984">
        <ele>139.4</ele>
        <time>2017-12-20T12:21:48.000Z</time>
      </trkpt>
      <trkpt lat="43.69782" lon="1.96977">
        <ele>137.9</ele>
        <time>2017-12-20T12:21:57.000Z</time>
      </trkpt>
      <trkpt lat="43.69774" lon="1.96973">
        <ele>136.7</ele>
        <time>2017-12-20T12:22:05.000Z</time>
      </trkpt>
      <trkpt lat="43.69764" lon="1.9697">
        <ele>135.5</ele>
        <time>2017-12-20T12:22:13.000Z</time>
      </trkpt>
      <trkpt lat="43.69755" lon="1.96963">
        <ele>134.1</ele>
        <time>2017-12-20T12:22:21.000Z</time>
      </trkpt>
      <trkpt lat="43.69747" lon="1.96956">
        <ele>132.9</ele>
        <time>2017-12-20T12:22:29.000Z</time>
      </trkpt>
      <trkpt lat="43.69739" lon="1.96949">
        <ele>132</ele>
        <time>2017-12-20T12:22:36.000Z</time>
      </trkpt>
      <trkpt lat="43.6973" lon="1.96944">
        <ele>131.3</ele>
        <time>2017-12-20T12:22:43.000Z</time>
      </trkpt>
      <trkpt lat="43.69722" lon="1.96937">
        <ele>130.8</ele>
        <time>2017-12-20T12:22:51.000Z</time>
      </trkpt>
      <trkpt lat="43.69714" lon="1.96929">
        <ele>130.5</ele>
        <time>2017-12-20T12:22:59.000Z</time>
      </trkpt>
      <trkpt lat="43.69708" lon="1.96916">
        <ele>130.3</ele>
        <time>2017-12-20T12:23:07.000Z</time>
      </trkpt>
      <trkpt lat="43.69704" lon="1.96904">
        <ele>130.2</ele>
        <time>2017-12-20T12:23:16.000Z</time>
      </trkpt>
      <trkpt lat="43.69697" lon="1.96895">
        <ele>130.1</ele>
        <time>2017-12-20T12:23:24.000Z</time>
      </trkpt>
      <trkpt lat="43.69691" lon="1.96885">
        <ele>130.2</ele>
        <time>2017-12-20T12:23:33.000Z</time>
      </trkpt>
      <trkpt lat="43.69684" lon="1.96876">
        <ele>131.2</ele>
        <time>2017-12-20T12:23:44.000Z</time>
      </trkpt>
      <trkpt lat="43.69675" lon="1.9687">
        <ele>132.1</ele>
        <time>2017-12-20T12:23:52.000Z</time>
      </trkpt>
      <trkpt lat="43.69667" lon="1.96866">
        <ele>133.1</ele>
        <time>2017-12-20T12:24:00.000Z</time>
      </trkpt>
      <trkpt lat="43.69658" lon="1.96859">
        <ele>134.2</ele>
        <time>2017-12-20T12:24:08.000Z</time>
      </trkpt>
      <trkpt lat="43.6965" lon="1.9685">
        <ele>135.1</ele>
        <time>2017-12-20T12:24:17.000Z</time>
      </trkpt>
      <trkpt lat="43.69642" lon="1.96843">
        <ele>135.9</ele>
        <time>2017-12-20T12:24:24.000Z</time>
      </trkpt>
      <trkpt lat="43.69633" lon="1.96836">
        <ele>136.7</ele>
        <time>2017-12-20T12:24:33.000Z</time>
      </trkpt>
      <trkpt lat="43.69625" lon="1.9683">
        <ele>137.3</ele>
        <time>2017-12-20T12:24:41.000Z</time>
      </trkpt>
      <trkpt lat="43.69616" lon="1.96824">
        <ele>138.4</ele>
        <time>2017-12-20T12:24:52.000Z</time>
      </trkpt>
      <trkpt lat="43.69606" lon="1.96819">
        <ele>139.1</ele>
        <time>2017-12-20T12:24:58.000Z</time>
      </trkpt>
      <trkpt lat="43.69597" lon="1.96818">
        <ele>140.1</ele>
        <time>2017-12-20T12:25:05.000Z</time>
      </trkpt>
      <trkpt lat="43.69587" lon="1.96814">
        <ele>141</ele>
        <time>2017-12-20T12:25:15.000Z</time>
      </trkpt>
      <trkpt lat="43.69578" lon="1.9681">
        <ele>141.7</ele>
        <time>2017-12-20T12:25:22.000Z</time>
      </trkpt>
      <trkpt lat="43.69569" lon="1.96806">
        <ele>142.2</ele>
        <time>2017-12-20T12:25:30.000Z</time>
      </trkpt>
      <trkpt lat="43.69559" lon="1.96808">
        <ele>142.5</ele>
        <time>2017-12-20T12:25:38.000Z</time>
      </trkpt>
      <trkpt lat="43.69556" lon="1.9682">
        <ele>146.6</ele>
        <time>2017-12-20T12:28:03.000Z</time>
      </trkpt>
      <trkpt lat="43.69555" lon="1.96833">
        <ele>146.9</ele>
        <time>2017-12-20T12:28:12.000Z</time>
      </trkpt>
      <trkpt lat="43.69554" lon="1.96846">
        <ele>147.4</ele>
        <time>2017-12-20T12:28:20.000Z</time>
      </trkpt>
      <trkpt lat="43.69552" lon="1.96858">
        <ele>148.3</ele>
        <time>2017-12-20T12:28:28.000Z</time>
      </trkpt>
      <trkpt lat="43.6955" lon="1.96872">
        <ele>149.5</ele>
        <time>2017-12-20T12:28:38.000Z</time>
      </trkpt>
      <trkpt lat="43.69549" lon="1.96884">
        <ele>150.8</ele>
        <time>2017-12-20T12:28:46.000Z</time>
      </trkpt>
      <trkpt lat="43.69548" lon="1.96898">
        <ele>152</ele>
        <time>2017-12-20T12:28:55.000Z</time>
      </trkpt>
      <trkpt lat="43.69546" lon="1.96911">
        <ele>153.5</ele>
        <time>2017-12-20T12:29:04.000Z</time>
      </trkpt>
      <trkpt lat="43.69543" lon="1.96923">
        <ele>155.4</ele>
        <time>2017-12-20T12:29:13.000Z</time>
      </trkpt>
      <trkpt lat="43.69542" lon="1.96937">
        <ele>156.6</ele>
        <time>2017-12-20T12:29:20.000Z</time>
      </trkpt>
      <trkpt lat="43.69539" lon="1.96949">
        <ele>158</ele>
        <time>2017-12-20T12:29:28.000Z</time>
      </trkpt>
      <trkpt lat="43.69539" lon="1.96962">
        <ele>159.7</ele>
        <time>2017-12-20T12:29:36.000Z</time>
      </trkpt>
      <trkpt lat="43.69535" lon="1.96974">
        <ele>161</ele>
        <time>2017-12-20T12:29:43.000Z</time>
      </trkpt>
      <trkpt lat="43.69533" lon="1.96988">
        <ele>162</ele>
        <time>2017-12-20T12:29:50.000Z</time>
      </trkpt>
      <trkpt lat="43.69533" lon="1.97">
        <ele>163.3</ele>
        <time>2017-12-20T12:29:59.000Z</time>
      </trkpt>
      <trkpt lat="43.69528" lon="1.97011">
        <ele>164.4</ele>
        <time>2017-12-20T12:30:06.000Z</time>
      </trkpt>
      <trkpt lat="43.69527" lon="1.97024">
        <ele>165.8</ele>
        <time>2017-12-20T12:30:15.000Z</time>
      </trkpt>
      <trkpt lat="43.6952" lon="1.97032">
        <ele>167.4</ele>
        <time>2017-12-20T12:30:26.000Z</time>
      </trkpt>
      <trkpt lat="43.69511" lon="1.97034">
        <ele>168.7</ele>
        <time>2017-12-20T12:30:34.000Z</time>
      </trkpt>
      <trkpt lat="43.69502" lon="1.97032">
        <ele>169.8</ele>
        <time>2017-12-20T12:30:41.000Z</time>
      </trkpt>
      <trkpt lat="43.69493" lon="1.97033">
        <ele>171.1</ele>
        <time>2017-12-20T12:30:50.000Z</time>
      </trkpt>
      <trkpt lat="43.69484" lon="1.97036">
        <ele>172.5</ele>
        <time>2017-12-20T12:30:57.000Z</time>
      </trkpt>
      <trkpt lat="43.69478" lon="1.97046">
        <ele>174.3</ele>
        <time>2017-12-20T12:31:05.000Z</time>
      </trkpt>
      <trkpt lat="43.69475" lon="1.97058">
        <ele>176</ele>
        <time>2017-12-20T12:31:13.000Z</time>
      </trkpt>
      <trkpt lat="43.69472" lon="1.9707">
        <ele>178</ele>
        <time>2017-12-20T12:31:21.000Z</time>
      </trkpt>
      <trkpt lat="43.6947" lon="1.97083">
        <ele>179.7</ele>
        <time>2017-12-20T12:31:28.000Z</time>
      </trkpt>
      <trkpt lat="43.69469" lon="1.97095">
        <ele>181.5</ele>
        <time>2017-12-20T12:31:35.000Z</time>
      </trkpt>
      <trkpt lat="43.6947" lon="1.97109">
        <ele>183.4</ele>
        <time>2017-12-20T12:31:42.000Z</time>
      </trkpt>
      <trkpt lat="43.6947" lon="1.97123">
        <ele>184.8</ele>
        <time>2017-12-20T12:31:48.000Z</time>
      </trkpt>
      <trkpt lat="43.69473" lon="1.97136">
        <ele>186.5</ele>
        <time>2017-12-20T12:31:56.000Z</time>
      </trkpt>
      <trkpt lat="43.69474" lon="1.97148">
        <ele>188.3</ele>
        <time>2017-12-20T12:32:04.000Z</time>
      </trkpt>
      <trkpt lat="43.6947" lon="1.97161">
        <ele>190</ele>
        <time>2017-12-20T12:32:12.000Z</time>
      </trkpt>
      <trkpt lat="43.69465" lon="1.97172">
        <ele>191.6</ele>
        <time>2017-12-20T12:32:19.000Z</time>
      </trkpt>
      <trkpt lat="43.69456" lon="1.97178">
        <ele>193.3</ele>
        <time>2017-12-20T12:32:26.000Z</time>
      </trkpt>
      <trkpt lat="43.69447" lon="1.97182">
        <ele>195.2</ele>
        <time>2017-12-20T12:32:34.000Z</time>
      </trkpt>
      <trkpt lat="43.69437" lon="1.97185">
        <ele>196.8</ele>
        <time>2017-12-20T12:32:41.000Z</time>
      </trkpt>
      <trkpt lat="43.69428" lon="1.97189">
        <ele>198.1</ele>
        <time>2017-12-20T12:32:47.000Z</time>
      </trkpt>
      <trkpt lat="43.69419" lon="1.97193">
        <ele>199.5</ele>
        <time>2017-12-20T12:32:53.000Z</time>
      </trkpt>
      <trkpt lat="43.6941" lon="1.9719">
        <ele>202.7</ele>
        <time>2017-12-20T12:33:06.000Z</time>
      </trkpt>
      <trkpt lat="43.69409" lon="1.97177">
        <ele>204.4</ele>
        <time>2017-12-20T12:33:15.000Z</time>
      </trkpt>
      <trkpt lat="43.69404" lon="1.97166">
        <ele>206.2</ele>
        <time>2017-12-20T12:33:27.000Z</time>
      </trkpt>
      <trkpt lat="43.69398" lon="1.97157">
        <ele>213.4</ele>
        <time>2017-12-20T12:35:15.000Z</time>
      </trkpt>
      <trkpt lat="43.69389" lon="1.97153">
        <ele>213.6</ele>
        <time>2017-12-20T12:35:24.000Z</time>
      </trkpt>
      <trkpt lat="43.6938" lon="1.97148">
        <ele>213.5</ele>
        <time>2017-12-20T12:35:32.000Z</time>
      </trkpt>
      <trkpt lat="43.69371" lon="1.97142">
        <ele>213.3</ele>
        <time>2017-12-20T12:35:41.000Z</time>
      </trkpt>
      <trkpt lat="43.69362" lon="1.97138">
        <ele>213.1</ele>
        <time>2017-12-20T12:35:49.000Z</time>
      </trkpt>
      <trkpt lat="43.69354" lon="1.97133">
        <ele>212.9</ele>
        <time>2017-12-20T12:35:57.000Z</time>
      </trkpt>
      <trkpt lat="43.69345" lon="1.97129">
        <ele>212.8</ele>
        <time>2017-12-20T12:36:04.000Z</time>
      </trkpt>
      <trkpt lat="43.69335" lon="1.97124">
        <ele>212.6</ele>
        <time>2017-12-20T12:36:13.000Z</time>
      </trkpt>
      <trkpt lat="43.69327" lon="1.97118">
        <ele>212.5</ele>
        <time>2017-12-20T12:36:23.000Z</time>
      </trkpt>
      <trkpt lat="43.69318" lon="1.97112">
        <ele>212.3</ele>
        <time>2017-12-20T12:36:30.000Z</time>
      </trkpt>
      <trkpt lat="43.69309" lon="1.97107">
        <ele>212.1</ele>
        <time>2017-12-20T12:36:39.000Z</time>
      </trkpt>
      <trkpt lat="43.69301" lon="1.97101">
        <ele>211.9</ele>
        <time>2017-12-20T12:36:47.000Z</time>
      </trkpt>
      <trkpt lat="43.69293" lon="1.97096">
        <ele>211.9</ele>
        <time>2017-12-20T12:36:56.000Z</time>
      </trkpt>
      <trkpt lat="43.69284" lon="1.97091">
        <ele>211.8</ele>
        <time>2017-12-20T12:37:06.000Z</time>
      </trkpt>
      <trkpt lat="43.69275" lon="1.97088">
        <ele>211.7</ele>
        <time>2017-12-20T12:37:16.000Z</time>
      </trkpt>
      <trkpt lat="43.69266" lon="1.97084">
        <ele>211.5</ele>
        <time>2017-12-20T12:37:22.000Z</time>
      </trkpt>
      <trkpt lat="43.69257" lon="1.97079">
        <ele>211.2</ele>
        <time>2017-12-20T12:37:29.000Z</time>
      </trkpt>
      <trkpt lat="43.69248" lon="1.97074">
        <ele>210.9</ele>
        <time>2017-12-20T12:37:37.000Z</time>
      </trkpt>
      <trkpt lat="43.69241" lon="1.97066">
        <ele>210.3</ele>
        <time>2017-12-20T12:37:44.000Z</time>
      </trkpt>
      <trkpt lat="43.69237" lon="1.97055">
        <ele>209.2</ele>
        <time>2017-12-20T12:37:55.000Z</time>
      </trkpt>
      <trkpt lat="43.69227" lon="1.97057">
        <ele>208.1</ele>
        <time>2017-12-20T12:39:33.000Z</time>
      </trkpt>
      <trkpt lat="43.69219" lon="1.97063">
        <ele>292.9</ele>
        <time>2017-12-20T12:39:46.000Z</time>
      </trkpt>
      <trkpt lat="43.69213" lon="1.9708">
        <ele>295.4</ele>
        <time>2017-12-20T12:40:11.000Z</time>
      </trkpt>
      <trkpt lat="43.69205" lon="1.9709">
        <ele>297.1</ele>
        <time>2017-12-20T12:40:21.000Z</time>
      </trkpt>
      <trkpt lat="43.69202" lon="1.97103">
        <ele>299.1</ele>
        <time>2017-12-20T12:40:33.000Z</time>
      </trkpt>
      <trkpt lat="43.69196" lon="1.97114">
        <ele>301.4</ele>
        <time>2017-12-20T12:40:44.000Z</time>
      </trkpt>
      <trkpt lat="43.6919" lon="1.97126">
        <ele>303.6</ele>
        <time>2017-12-20T12:40:56.000Z</time>
      </trkpt>
      <trkpt lat="43.69187" lon="1.97138">
        <ele>305.7</ele>
        <time>2017-12-20T12:41:07.000Z</time>
      </trkpt>
      <trkpt lat="43.69182" lon="1.97147">
        <ele>307.3</ele>
        <time>2017-12-20T12:41:19.000Z</time>
      </trkpt>
      <trkpt lat="43.69177" lon="1.97155">
        <ele>309.2</ele>
        <time>2017-12-20T12:41:29.000Z</time>
      </trkpt>
      <trkpt lat="43.69174" lon="1.97165">
        <ele>226.7</ele>
        <time>2017-12-20T12:41:37.000Z</time>
      </trkpt>
      <trkpt lat="43.69165" lon="1.97175">
        <ele>313.3</ele>
        <time>2017-12-20T12:41:45.000Z</time>
      </trkpt>
      <trkpt lat="43.69158" lon="1.97181">
        <ele>313.8</ele>
        <time>2017-12-20T12:41:52.000Z</time>
      </trkpt>
      <trkpt lat="43.6915" lon="1.97188">
        <ele>314.3</ele>
        <time>2017-12-20T12:42:03.000Z</time>
      </trkpt>
      <trkpt lat="43.69142" lon="1.97194">
        <ele>314.6</ele>
        <time>2017-12-20T12:42:15.000Z</time>
      </trkpt>
      <trkpt lat="43.69133" lon="1.97195">
        <ele>229.4</ele>
        <time>2017-12-20T12:42:22.000Z</time>
      </trkpt>
      <trkpt lat="43.69124" lon="1.97196">
        <ele>230.1</ele>
        <time>2017-12-20T12:42:30.000Z</time>
      </trkpt>
      <trkpt lat="43.69115" lon="1.97198">
        <ele>230.6</ele>
        <time>2017-12-20T12:42:39.000Z</time>
      </trkpt>
      <trkpt lat="43.69105" lon="1.972">
        <ele>231.3</ele>
        <time>2017-12-20T12:42:47.000Z</time>
      </trkpt>
      <trkpt lat="43.69096" lon="1.97195">
        <ele>231.9</ele>
        <time>2017-12-20T12:42:55.000Z</time>
      </trkpt>
      <trkpt lat="43.69088" lon="1.97189">
        <ele>232.3</ele>
        <time>2017-12-20T12:43:01.000Z</time>
      </trkpt>
      <trkpt lat="43.69079" lon="1.97185">
        <ele>232.8</ele>
        <time>2017-12-20T12:43:10.000Z</time>
      </trkpt>
      <trkpt lat="43.69069" lon="1.97182">
        <ele>233.1</ele>
        <time>2017-12-20T12:43:19.000Z</time>
      </trkpt>
      <trkpt lat="43.6906" lon="1.9718">
        <ele>233.4</ele>
        <time>2017-12-20T12:43:29.000Z</time>
      </trkpt>
      <trkpt lat="43.6905" lon="1.97181">
        <ele>233.6</ele>
        <time>2017-12-20T12:43:37.000Z</time>
      </trkpt>
      <trkpt lat="43.69041" lon="1.97187">
        <ele>234</ele>
        <time>2017-12-20T12:43:46.000Z</time>
      </trkpt>
      <trkpt lat="43.69031" lon="1.97192">
        <ele>234.5</ele>
        <time>2017-12-20T12:43:55.000Z</time>
      </trkpt>
      <trkpt lat="43.69022" lon="1.97196">
        <ele>235.3</ele>
        <time>2017-12-20T12:44:04.000Z</time>
      </trkpt>
      <trkpt lat="43.69014" lon="1.97205">
        <ele>236.2</ele>
        <time>2017-12-20T12:44:13.000Z</time>
      </trkpt>
      <trkpt lat="43.69006" lon="1.97211">
        <ele>236.8</ele>
        <time>2017-12-20T12:44:22.000Z</time>
      </trkpt>
      <trkpt lat="43.68999" lon="1.9722">
        <ele>237.6</ele>
        <time>2017-12-20T12:44:27.000Z</time>
      </trkpt>
      <trkpt lat="43.68994" lon="1.97231">
        <ele>238.6</ele>
        <time>2017-12-20T12:44:35.000Z</time>
      </trkpt>
      <trkpt lat="43.68986" lon="1.97239">
        <ele>239.3</ele>
        <time>2017-12-20T12:44:42.000Z</time>
      </trkpt>
      <trkpt lat="43.68978" lon="1.97246">
        <ele>239.9</ele>
        <time>2017-12-20T12:44:51.000Z</time>
      </trkpt>
      <trkpt lat="43.68969" lon="1.97247">
        <ele>240.8</ele>
        <time>2017-12-20T12:45:07.000Z</time>
      </trkpt>
      <trkpt lat="43.68961" lon="1.97239">
        <ele>241.3</ele>
        <time>2017-12-20T12:45:19.000Z</time>
      </trkpt>
      <trkpt lat="43.68955" lon="1.9723">
        <ele>241.1</ele>
        <time>2017-12-20T12:45:28.000Z</time>
      </trkpt>
      <trkpt lat="43.68947" lon="1.97224">
        <ele>240.6</ele>
        <time>2017-12-20T12:45:38.000Z</time>
      </trkpt>
      <trkpt lat="43.68939" lon="1.97217">
        <ele>240.3</ele>
        <time>2017-12-20T12:45:47.000Z</time>
      </trkpt>
      <trkpt lat="43.68933" lon="1.97205">
        <ele>239.5</ele>
        <time>2017-12-20T12:45:58.000Z</time>
      </trkpt>
      <trkpt lat="43.68925" lon="1.97197">
        <ele>238.8</ele>
        <time>2017-12-20T12:46:06.000Z</time>
      </trkpt>
      <trkpt lat="43.68917" lon="1.97191">
        <ele>238.2</ele>
        <time>2017-12-20T12:46:15.000Z</time>
      </trkpt>
      <trkpt lat="43.68909" lon="1.97184">
        <ele>236.9</ele>
        <time>2017-12-20T12:46:27.000Z</time>
      </trkpt>
      <trkpt lat="43.68901" lon="1.97179">
        <ele>235.7</ele>
        <time>2017-12-20T12:46:37.000Z</time>
      </trkpt>
      <trkpt lat="43.68893" lon="1.97171">
        <ele>234.4</ele>
        <time>2017-12-20T12:46:47.000Z</time>
      </trkpt>
      <trkpt lat="43.68885" lon="1.97164">
        <ele>233.4</ele>
        <time>2017-12-20T12:46:56.000Z</time>
      </trkpt>
      <trkpt lat="43.68878" lon="1.97153">
        <ele>232.3</ele>
        <time>2017-12-20T12:47:06.000Z</time>
      </trkpt>
      <trkpt lat="43.6887" lon="1.97147">
        <ele>231.2</ele>
        <time>2017-12-20T12:47:15.000Z</time>
      </trkpt>
      <trkpt lat="43.68862" lon="1.9714">
        <ele>229.5</ele>
        <time>2017-12-20T12:47:26.000Z</time>
      </trkpt>
      <trkpt lat="43.68855" lon="1.97132">
        <ele>227.7</ele>
        <time>2017-12-20T12:47:36.000Z</time>
      </trkpt>
      <trkpt lat="43.68849" lon="1.97122">
        <ele>226.4</ele>
        <time>2017-12-20T12:47:46.000Z</time>
      </trkpt>
      <trkpt lat="43.68844" lon="1.97111">
        <ele>225</ele>
        <time>2017-12-20T12:47:56.000Z</time>
      </trkpt>
      <trkpt lat="43.68842" lon="1.97098">
        <ele>223.9</ele>
        <time>2017-12-20T12:48:04.000Z</time>
      </trkpt>
      <trkpt lat="43.68842" lon="1.97085">
        <ele>222.3</ele>
        <time>2017-12-20T12:48:14.000Z</time>
      </trkpt>
      <trkpt lat="43.68841" lon="1.97071">
        <ele>221</ele>
        <time>2017-12-20T12:48:23.000Z</time>
      </trkpt>
      <trkpt lat="43.68842" lon="1.97058">
        <ele>219.9</ele>
        <time>2017-12-20T12:48:31.000Z</time>
      </trkpt>
      <trkpt lat="43.68842" lon="1.97045">
        <ele>219.1</ele>
        <time>2017-12-20T12:48:39.000Z</time>
      </trkpt>
      <trkpt lat="43.68844" lon="1.97032">
        <ele>218.1</ele>
        <time>2017-12-20T12:48:46.000Z</time>
      </trkpt>
      <trkpt lat="43.68846" lon="1.97019">
        <ele>216.2</ele>
        <time>2017-12-20T12:48:58.000Z</time>
      </trkpt>
      <trkpt lat="43.68844" lon="1.97006">
        <ele>214.5</ele>
        <time>2017-12-20T12:49:08.000Z</time>
      </trkpt>
      <trkpt lat="43.68839" lon="1.96995">
        <ele>212.9</ele>
        <time>2017-12-20T12:49:17.000Z</time>
      </trkpt>
      <trkpt lat="43.68836" lon="1.96983">
        <ele>212.2</ele>
        <time>2017-12-20T12:49:21.000Z</time>
      </trkpt>
      <trkpt lat="43.68831" lon="1.96972">
        <ele>211.1</ele>
        <time>2017-12-20T12:49:28.000Z</time>
      </trkpt>
      <trkpt lat="43.68825" lon="1.96961">
        <ele>209.8</ele>
        <time>2017-12-20T12:49:37.000Z</time>
      </trkpt>
      <trkpt lat="43.6882" lon="1.96949">
        <ele>208.4</ele>
        <time>2017-12-20T12:49:45.000Z</time>
      </trkpt>
      <trkpt lat="43.68815" lon="1.96937">
        <ele>206.8</ele>
        <time>2017-12-20T12:49:54.000Z</time>
      </trkpt>
      <trkpt lat="43.6881" lon="1.96926">
        <ele>205.2</ele>
        <time>2017-12-20T12:50:03.000Z</time>
      </trkpt>
      <trkpt lat="43.68803" lon="1.96916">
        <ele>203.7</ele>
        <time>2017-12-20T12:50:12.000Z</time>
      </trkpt>
      <trkpt lat="43.68799" lon="1.96904">
        <ele>202.4</ele>
        <time>2017-12-20T12:50:20.000Z</time>
      </trkpt>
      <trkpt lat="43.68795" lon="1.96893">
        <ele>200.7</ele>
        <time>2017-12-20T12:50:29.000Z</time>
      </trkpt>
      <trkpt lat="43.6879" lon="1.96881">
        <ele>199.3</ele>
        <time>2017-12-20T12:50:38.000Z</time>
      </trkpt>
      <trkpt lat="43.68785" lon="1.9687">
        <ele>198.5</ele>
        <time>2017-12-20T12:50:45.000Z</time>
      </trkpt>
      <trkpt lat="43.68781" lon="1.96859">
        <ele>197.4</ele>
        <time>2017-12-20T12:50:51.000Z</time>
      </trkpt>
      <trkpt lat="43.68776" lon="1.96848">
        <ele>196.3</ele>
        <time>2017-12-20T12:50:59.000Z</time>
      </trkpt>
      <trkpt lat="43.68768" lon="1.96839">
        <ele>194.9</ele>
        <time>2017-12-20T12:51:08.000Z</time>
      </trkpt>
      <trkpt lat="43.68763" lon="1.96829">
        <ele>193.4</ele>
        <time>2017-12-20T12:51:17.000Z</time>
      </trkpt>
      <trkpt lat="43.68754" lon="1.96822">
        <ele>191.9</ele>
        <time>2017-12-20T12:51:26.000Z</time>
      </trkpt>
      <trkpt lat="43.68745" lon="1.96816">
        <ele>190.8</ele>
        <time>2017-12-20T12:51:33.000Z</time>
      </trkpt>
      <trkpt lat="43.68737" lon="1.96808">
        <ele>189.6</ele>
        <time>2017-12-20T12:51:42.000Z</time>
      </trkpt>
      <trkpt lat="43.68728" lon="1.96804">
        <ele>188.6</ele>
        <time>2017-12-20T12:51:50.000Z</time>
      </trkpt>
      <trkpt lat="43.68719" lon="1.968">
        <ele>187.5</ele>
        <time>2017-12-20T12:52:00.000Z</time>
      </trkpt>
      <trkpt lat="43.68712" lon="1.96791">
        <ele>186.6</ele>
        <time>2017-12-20T12:52:14.000Z</time>
      </trkpt>
      <trkpt lat="43.68705" lon="1.96783">
        <ele>186</ele>
        <time>2017-12-20T12:52:23.000Z</time>
      </trkpt>
      <trkpt lat="43.68702" lon="1.96796">
        <ele>184.3</ele>
        <time>2017-12-20T12:52:49.000Z</time>
      </trkpt>
      <trkpt lat="43.687" lon="1.96808">
        <ele>183.3</ele>
        <time>2017-12-20T12:53:09.000Z</time>
      </trkpt>
      <trkpt lat="43.68695" lon="1.96818">
        <ele>184.3</ele>
        <time>2017-12-20T12:53:18.000Z</time>
      </trkpt>
      <trkpt lat="43.6869" lon="1.9683">
        <ele>185.6</ele>
        <time>2017-12-20T12:53:27.000Z</time>
      </trkpt>
      <trkpt lat="43.68686" lon="1.96841">
        <ele>186.3</ele>
        <time>2017-12-20T12:53:36.000Z</time>
      </trkpt>
      <trkpt lat="43.6868" lon="1.96851">
        <ele>186.7</ele>
        <time>2017-12-20T12:53:43.000Z</time>
      </trkpt>
      <trkpt lat="43.68674" lon="1.96862">
        <ele>187.2</ele>
        <time>2017-12-20T12:53:52.000Z</time>
      </trkpt>
      <trkpt lat="43.6867" lon="1.96873">
        <ele>187.6</ele>
        <time>2017-12-20T12:54:00.000Z</time>
      </trkpt>
      <trkpt lat="43.68663" lon="1.96884">
        <ele>187.8</ele>
        <time>2017-12-20T12:54:08.000Z</time>
      </trkpt>
      <trkpt lat="43.68657" lon="1.96895">
        <ele>188.1</ele>
        <time>2017-12-20T12:54:16.000Z</time>
      </trkpt>
      <trkpt lat="43.68652" lon="1.96907">
        <ele>188.6</ele>
        <time>2017-12-20T12:54:24.000Z</time>
      </trkpt>
      <trkpt lat="43.68646" lon="1.96918">
        <ele>189</ele>
        <time>2017-12-20T12:54:32.000Z</time>
      </trkpt>
      <trkpt lat="43.68642" lon="1.96931">
        <ele>189.4</ele>
        <time>2017-12-20T12:54:41.000Z</time>
      </trkpt>
      <trkpt lat="43.68637" lon="1.96941">
        <ele>190.1</ele>
        <time>2017-12-20T12:54:50.000Z</time>
      </trkpt>
      <trkpt lat="43.68632" lon="1.96952">
        <ele>190.7</ele>
        <time>2017-12-20T12:54:58.000Z</time>
      </trkpt>
      <trkpt lat="43.68625" lon="1.96963">
        <ele>191.1</ele>
        <time>2017-12-20T12:55:06.000Z</time>
      </trkpt>
      <trkpt lat="43.68622" lon="1.96975">
        <ele>191.6</ele>
        <time>2017-12-20T12:55:14.000Z</time>
      </trkpt>
      <trkpt lat="43.68616" lon="1.96985">
        <ele>192.1</ele>
        <time>2017-12-20T12:55:23.000Z</time>
      </trkpt>
      <trkpt lat="43.68609" lon="1.96996">
        <ele>192.5</ele>
        <time>2017-12-20T12:55:30.000Z</time>
      </trkpt>
      <trkpt lat="43.68603" lon="1.97005">
        <ele>192.8</ele>
        <time>2017-12-20T12:55:39.000Z</time>
      </trkpt>
      <trkpt lat="43.68596" lon="1.97014">
        <ele>192.9</ele>
        <time>2017-12-20T12:55:45.000Z</time>
      </trkpt>
      <trkpt lat="43.68589" lon="1.97025">
        <ele>193</ele>
        <time>2017-12-20T12:55:51.000Z</time>
      </trkpt>
      <trkpt lat="43.68584" lon="1.97037">
        <ele>193.1</ele>
        <time>2017-12-20T12:55:59.000Z</time>
      </trkpt>
      <trkpt lat="43.68581" lon="1.97049">
        <ele>193</ele>
        <time>2017-12-20T12:56:07.000Z</time>
      </trkpt>
      <trkpt lat="43.68578" lon="1.97063">
        <ele>193</ele>
        <time>2017-12-20T12:56:15.000Z</time>
      </trkpt>
      <trkpt lat="43.68573" lon="1.97074">
        <ele>193.1</ele>
        <time>2017-12-20T12:56:24.000Z</time>
      </trkpt>
      <trkpt lat="43.68568" lon="1.97084">
        <ele>193.2</ele>
        <time>2017-12-20T12:56:30.000Z</time>
      </trkpt>
      <trkpt lat="43.68564" lon="1.97097">
        <ele>193.2</ele>
        <time>2017-12-20T12:56:37.000Z</time>
      </trkpt>
      <trkpt lat="43.68558" lon="1.97108">
        <ele>193.3</ele>
        <time>2017-12-20T12:56:45.000Z</time>
      </trkpt>
      <trkpt lat="43.68553" lon="1.97121">
        <ele>193.3</ele>
        <time>2017-12-20T12:56:52.000Z</time>
      </trkpt>
      <trkpt lat="43.68548" lon="1.97131">
        <ele>193.3</ele>
        <time>2017-12-20T12:56:58.000Z</time>
      </trkpt>
      <trkpt lat="43.68544" lon="1.97144">
        <ele>193.5</ele>
        <time>2017-12-20T12:57:06.000Z</time>
      </trkpt>
      <trkpt lat="43.68539" lon="1.97156">
        <ele>193.4</ele>
        <time>2017-12-20T12:57:14.000Z</time>
      </trkpt>
      <trkpt lat="43.68534" lon="1.97167">
        <ele>193.4</ele>
        <time>2017-12-20T12:57:21.000Z</time>
      </trkpt>
      <trkpt lat="43.68528" lon="1.97176">
        <ele>193.3</ele>
        <time>2017-12-20T12:57:27.000Z</time>
      </trkpt>
      <trkpt lat="43.68522" lon="1.97188">
        <ele>193.1</ele>
        <time>2017-12-20T12:57:35.000Z</time>
      </trkpt>
      <trkpt lat="43.68517" lon="1.97199">
        <ele>193.1</ele>
        <time>2017-12-20T12:57:42.000Z</time>
      </trkpt>
      <trkpt lat="43.68511" lon="1.97211">
        <ele>192.9</ele>
        <time>2017-12-20T12:57:50.000Z</time>
      </trkpt>
      <trkpt lat="43.68506" lon="1.97221">
        <ele>192.5</ele>
        <time>2017-12-20T12:57:57.000Z</time>
      </trkpt>
      <trkpt lat="43.685" lon="1.97233">
        <ele>192</ele>
        <time>2017-12-20T12:58:05.000Z</time>
      </trkpt>
      <trkpt lat="43.68495" lon="1.97243">
        <ele>191.5</ele>
        <time>2017-12-20T12:58:12.000Z</time>
      </trkpt>
      <trkpt lat="43.68491" lon="1.97255">
        <ele>191.1</ele>
        <time>2017-12-20T12:58:20.000Z</time>
      </trkpt>
      <trkpt lat="43.68488" lon="1.97268">
        <ele>190.6</ele>
        <time>2017-12-20T12:58:29.000Z</time>
      </trkpt>
      <trkpt lat="43.68487" lon="1.97281">
        <ele>190.2</ele>
        <time>2017-12-20T12:58:38.000Z</time>
      </trkpt>
      <trkpt lat="43.68481" lon="1.97293">
        <ele>189.8</ele>
        <time>2017-12-20T12:58:44.000Z</time>
      </trkpt>
      <trkpt lat="43.68476" lon="1.97305">
        <ele>189.5</ele>
        <time>2017-12-20T12:58:51.000Z</time>
      </trkpt>
      <trkpt lat="43.68471" lon="1.97317">
        <ele>189.2</ele>
        <time>2017-12-20T12:58:59.000Z</time>
      </trkpt>
      <trkpt lat="43.68465" lon="1.97328">
        <ele>189.1</ele>
        <time>2017-12-20T12:59:07.000Z</time>
      </trkpt>
      <trkpt lat="43.68459" lon="1.97338">
        <ele>189</ele>
        <time>2017-12-20T12:59:13.000Z</time>
      </trkpt>
      <trkpt lat="43.68454" lon="1.9735">
        <ele>188.7</ele>
        <time>2017-12-20T12:59:21.000Z</time>
      </trkpt>
      <trkpt lat="43.68447" lon="1.97361">
        <ele>188.4</ele>
        <time>2017-12-20T12:59:30.000Z</time>
      </trkpt>
      <trkpt lat="43.68444" lon="1.97373">
        <ele>188.6</ele>
        <time>2017-12-20T12:59:39.000Z</time>
      </trkpt>
      <trkpt lat="43.68442" lon="1.97387">
        <ele>188.9</ele>
        <time>2017-12-20T12:59:48.000Z</time>
      </trkpt>
      <trkpt lat="43.68436" lon="1.97397">
        <ele>189.2</ele>
        <time>2017-12-20T12:59:56.000Z</time>
      </trkpt>
      <trkpt lat="43.68431" lon="1.9741">
        <ele>189.5</ele>
        <time>2017-12-20T13:00:05.000Z</time>
      </trkpt>
      <trkpt lat="43.68426" lon="1.97422">
        <ele>189.6</ele>
        <time>2017-12-20T13:00:14.000Z</time>
      </trkpt>
      <trkpt lat="43.6842" lon="1.97433">
        <ele>189.7</ele>
        <time>2017-12-20T13:00:19.000Z</time>
      </trkpt>
      <trkpt lat="43.68415" lon="1.97443">
        <ele>189.8</ele>
        <time>2017-12-20T13:00:27.000Z</time>
      </trkpt>
      <trkpt lat="43.68409" lon="1.97453">
        <ele>189.8</ele>
        <time>2017-12-20T13:00:34.000Z</time>
      </trkpt>
      <trkpt lat="43.68403" lon="1.97463">
        <ele>189.8</ele>
        <time>2017-12-20T13:00:44.000Z</time>
      </trkpt>
      <trkpt lat="43.68396" lon="1.97472">
        <ele>189.7</ele>
        <time>2017-12-20T13:00:51.000Z</time>
      </trkpt>
      <trkpt lat="43.6839" lon="1.97483">
        <ele>189.6</ele>
        <time>2017-12-20T13:00:57.000Z</time>
      </trkpt>
      <trkpt lat="43.68382" lon="1.97492">
        <ele>189.4</ele>
        <time>2017-12-20T13:01:07.000Z</time>
      </trkpt>
      <trkpt lat="43.68376" lon="1.97504">
        <ele>189.2</ele>
        <time>2017-12-20T13:01:14.000Z</time>
      </trkpt>
      <trkpt lat="43.68371" lon="1.97515">
        <ele>189.1</ele>
        <time>2017-12-20T13:01:20.000Z</time>
      </trkpt>
      <trkpt lat="43.68367" lon="1.97528">
        <ele>189.1</ele>
        <time>2017-12-20T13:01:26.000Z</time>
      </trkpt>
      <trkpt lat="43.68365" lon="1.97541">
        <ele>189</ele>
        <time>2017-12-20T13:01:34.000Z</time>
      </trkpt>
      <trkpt lat="43.68364" lon="1.97554">
        <ele>189</ele>
        <time>2017-12-20T13:01:43.000Z</time>
      </trkpt>
      <trkpt lat="43.68364" lon="1.97567">
        <ele>189</ele>
        <time>2017-12-20T13:01:51.000Z</time>
      </trkpt>
      <trkpt lat="43.68361" lon="1.9758">
        <ele>189.1</ele>
        <time>2017-12-20T13:01:58.000Z</time>
      </trkpt>
      <trkpt lat="43.68358" lon="1.97593">
        <ele>189.1</ele>
        <time>2017-12-20T13:02:07.000Z</time>
      </trkpt>
      <trkpt lat="43.68354" lon="1.97604">
        <ele>189.2</ele>
        <time>2017-12-20T13:02:15.000Z</time>
      </trkpt>
      <trkpt lat="43.68349" lon="1.97616">
        <ele>189.3</ele>
        <time>2017-12-20T13:02:24.000Z</time>
      </trkpt>
      <trkpt lat="43.68343" lon="1.97627">
        <ele>189.3</ele>
        <time>2017-12-20T13:02:31.000Z</time>
      </trkpt>
      <trkpt lat="43.68337" lon="1.97637">
        <ele>189.4</ele>
        <time>2017-12-20T13:02:39.000Z</time>
      </trkpt>
      <trkpt lat="43.68331" lon="1.97647">
        <ele>189.4</ele>
        <time>2017-12-20T13:02:46.000Z</time>
      </trkpt>
      <trkpt lat="43.68324" lon="1.97657">
        <ele>189.4</ele>
        <time>2017-12-20T13:02:54.000Z</time>
      </trkpt>
      <trkpt lat="43.68316" lon="1.97666">
        <ele>189.4</ele>
        <time>2017-12-20T13:03:00.000Z</time>
      </trkpt>
      <trkpt lat="43.68311" lon="1.97676">
        <ele>189.3</ele>
        <time>2017-12-20T13:03:07.000Z</time>
      </trkpt>
      <trkpt lat="43.68306" lon="1.97687">
        <ele>189.1</ele>
        <time>2017-12-20T13:03:14.000Z</time>
      </trkpt>
      <trkpt lat="43.683" lon="1.97698">
        <ele>188.8</ele>
        <time>2017-12-20T13:03:24.000Z</time>
      </trkpt>
      <trkpt lat="43.68293" lon="1.97707">
        <ele>188.4</ele>
        <time>2017-12-20T13:03:32.000Z</time>
      </trkpt>
      <trkpt lat="43.68286" lon="1.97716">
        <ele>187.9</ele>
        <time>2017-12-20T13:03:39.000Z</time>
      </trkpt>
      <trkpt lat="43.6828" lon="1.97725">
        <ele>187.2</ele>
        <time>2017-12-20T13:03:47.000Z</time>
      </trkpt>
      <trkpt lat="43.68275" lon="1.97736">
        <ele>186.4</ele>
        <time>2017-12-20T13:03:56.000Z</time>
      </trkpt>
      <trkpt lat="43.68275" lon="1.97749">
        <ele>185.7</ele>
        <time>2017-12-20T13:04:04.000Z</time>
      </trkpt>
      <trkpt lat="43.68271" lon="1.97761">
        <ele>185.3</ele>
        <time>2017-12-20T13:04:12.000Z</time>
      </trkpt>
      <trkpt lat="43.68269" lon="1.97774">
        <ele>185</ele>
        <time>2017-12-20T13:04:21.000Z</time>
      </trkpt>
      <trkpt lat="43.68262" lon="1.97785">
        <ele>184.9</ele>
        <time>2017-12-20T13:04:29.000Z</time>
      </trkpt>
      <trkpt lat="43.68258" lon="1.97797">
        <ele>184.8</ele>
        <time>2017-12-20T13:04:37.000Z</time>
      </trkpt>
      <trkpt lat="43.68254" lon="1.97809">
        <ele>184.7</ele>
        <time>2017-12-20T13:04:45.000Z</time>
      </trkpt>
      <trkpt lat="43.68246" lon="1.97816">
        <ele>184.7</ele>
        <time>2017-12-20T13:04:52.000Z</time>
      </trkpt>
      <trkpt lat="43.68237" lon="1.97824">
        <ele>184.8</ele>
        <time>2017-12-20T13:05:02.000Z</time>
      </trkpt>
      <trkpt lat="43.6823" lon="1.9783">
        <ele>185.1</ele>
        <time>2017-12-20T13:05:09.000Z</time>
      </trkpt>
      <trkpt lat="43.68222" lon="1.97837">
        <ele>185.6</ele>
        <time>2017-12-20T13:05:16.000Z</time>
      </trkpt>
      <trkpt lat="43.68213" lon="1.97845">
        <ele>186.3</ele>
        <time>2017-12-20T13:05:24.000Z</time>
      </trkpt>
      <trkpt lat="43.68206" lon="1.97853">
        <ele>187</ele>
        <time>2017-12-20T13:05:31.000Z</time>
      </trkpt>
      <trkpt lat="43.68198" lon="1.97861">
        <ele>187.9</ele>
        <time>2017-12-20T13:05:41.000Z</time>
      </trkpt>
      <trkpt lat="43.68189" lon="1.97869">
        <ele>188.9</ele>
        <time>2017-12-20T13:05:50.000Z</time>
      </trkpt>
      <trkpt lat="43.68182" lon="1.97876">
        <ele>189.7</ele>
        <time>2017-12-20T13:05:59.000Z</time>
      </trkpt>
      <trkpt lat="43.68174" lon="1.97883">
        <ele>190.5</ele>
        <time>2017-12-20T13:06:06.000Z</time>
      </trkpt>
      <trkpt lat="43.68166" lon="1.97889">
        <ele>191.2</ele>
        <time>2017-12-20T13:06:13.000Z</time>
      </trkpt>
      <trkpt lat="43.68157" lon="1.97896">
        <ele>191.7</ele>
        <time>2017-12-20T13:06:20.000Z</time>
      </trkpt>
      <trkpt lat="43.6815" lon="1.97904">
        <ele>192.2</ele>
        <time>2017-12-20T13:06:28.000Z</time>
      </trkpt>
      <trkpt lat="43.68141" lon="1.97913">
        <ele>192.6</ele>
        <time>2017-12-20T13:06:35.000Z</time>
      </trkpt>
      <trkpt lat="43.68134" lon="1.97921">
        <ele>192.9</ele>
        <time>2017-12-20T13:06:43.000Z</time>
      </trkpt>
      <trkpt lat="43.68125" lon="1.97929">
        <ele>193.1</ele>
        <time>2017-12-20T13:06:50.000Z</time>
      </trkpt>
      <trkpt lat="43.68118" lon="1.97939">
        <ele>193.2</ele>
        <time>2017-12-20T13:06:58.000Z</time>
      </trkpt>
      <trkpt lat="43.68111" lon="1.97947">
        <ele>193.2</ele>
        <time>2017-12-20T13:07:05.000Z</time>
      </trkpt>
      <trkpt lat="43.68103" lon="1.97954">
        <ele>193.3</ele>
        <time>2017-12-20T13:07:12.000Z</time>
      </trkpt>
      <trkpt lat="43.68095" lon="1.97961">
        <ele>193.3</ele>
        <time>2017-12-20T13:07:19.000Z</time>
      </trkpt>
      <trkpt lat="43.68088" lon="1.97968">
        <ele>193.3</ele>
        <time>2017-12-20T13:07:26.000Z</time>
      </trkpt>
      <trkpt lat="43.6808" lon="1.97977">
        <ele>193.3</ele>
        <time>2017-12-20T13:07:33.000Z</time>
      </trkpt>
      <trkpt lat="43.68071" lon="1.97984">
        <ele>193.1</ele>
        <time>2017-12-20T13:07:41.000Z</time>
      </trkpt>
      <trkpt lat="43.68063" lon="1.97991">
        <ele>192.7</ele>
        <time>2017-12-20T13:07:50.000Z</time>
      </trkpt>
      <trkpt lat="43.68056" lon="1.97999">
        <ele>192.6</ele>
        <time>2017-12-20T13:07:57.000Z</time>
      </trkpt>
      <trkpt lat="43.68049" lon="1.98007">
        <ele>192.4</ele>
        <time>2017-12-20T13:08:06.000Z</time>
      </trkpt>
      <trkpt lat="43.68041" lon="1.98016">
        <ele>192.3</ele>
        <time>2017-12-20T13:08:13.000Z</time>
      </trkpt>
      <trkpt lat="43.68034" lon="1.98023">
        <ele>192.2</ele>
        <time>2017-12-20T13:08:19.000Z</time>
      </trkpt>
      <trkpt lat="43.68025" lon="1.98029">
        <ele>192</ele>
        <time>2017-12-20T13:08:25.000Z</time>
      </trkpt>
      <trkpt lat="43.68018" lon="1.98038">
        <ele>191.8</ele>
        <time>2017-12-20T13:08:33.000Z</time>
      </trkpt>
      <trkpt lat="43.6801" lon="1.98044">
        <ele>191.7</ele>
        <time>2017-12-20T13:08:39.000Z</time>
      </trkpt>
      <trkpt lat="43.68003" lon="1.98052">
        <ele>191.7</ele>
        <time>2017-12-20T13:08:46.000Z</time>
      </trkpt>
      <trkpt lat="43.67994" lon="1.98061">
        <ele>191.8</ele>
        <time>2017-12-20T13:08:53.000Z</time>
      </trkpt>
      <trkpt lat="43.67986" lon="1.98068">
        <ele>191.8</ele>
        <time>2017-12-20T13:08:58.000Z</time>
      </trkpt>
      <trkpt lat="43.67979" lon="1.98077">
        <ele>191.7</ele>
        <time>2017-12-20T13:09:06.000Z</time>
      </trkpt>
      <trkpt lat="43.67972" lon="1.98086">
        <ele>191.6</ele>
        <time>2017-12-20T13:09:14.000Z</time>
      </trkpt>
      <trkpt lat="43.67964" lon="1.98095">
        <ele>191.6</ele>
        <time>2017-12-20T13:09:22.000Z</time>
      </trkpt>
      <trkpt lat="43.67956" lon="1.98102">
        <ele>191.7</ele>
        <time>2017-12-20T13:09:30.000Z</time>
      </trkpt>
      <trkpt lat="43.67949" lon="1.9811">
        <ele>191.7</ele>
        <time>2017-12-20T13:09:37.000Z</time>
      </trkpt>
      <trkpt lat="43.67942" lon="1.98119">
        <ele>191.7</ele>
        <time>2017-12-20T13:09:45.000Z</time>
      </trkpt>
      <trkpt lat="43.67935" lon="1.98127">
        <ele>191.7</ele>
        <time>2017-12-20T13:09:52.000Z</time>
      </trkpt>
      <trkpt lat="43.67928" lon="1.98136">
        <ele>191.8</ele>
        <time>2017-12-20T13:09:59.000Z</time>
      </trkpt>
      <trkpt lat="43.67921" lon="1.98144">
        <ele>191.8</ele>
        <time>2017-12-20T13:10:06.000Z</time>
      </trkpt>
      <trkpt lat="43.67913" lon="1.98152">
        <ele>191.9</ele>
        <time>2017-12-20T13:10:14.000Z</time>
      </trkpt>
      <trkpt lat="43.67906" lon="1.9816">
        <ele>192.1</ele>
        <time>2017-12-20T13:10:22.000Z</time>
      </trkpt>
      <trkpt lat="43.67898" lon="1.98168">
        <ele>192.4</ele>
        <time>2017-12-20T13:10:30.000Z</time>
      </trkpt>
      <trkpt lat="43.6789" lon="1.98174">
        <ele>192.7</ele>
        <time>2017-12-20T13:10:37.000Z</time>
      </trkpt>
      <trkpt lat="43.67882" lon="1.98181">
        <ele>193</ele>
        <time>2017-12-20T13:10:43.000Z</time>
      </trkpt>
      <trkpt lat="43.67874" lon="1.98187">
        <ele>193.2</ele>
        <time>2017-12-20T13:10:50.000Z</time>
      </trkpt>
      <trkpt lat="43.67867" lon="1.98195">
        <ele>193.5</ele>
        <time>2017-12-20T13:10:58.000Z</time>
      </trkpt>
      <trkpt lat="43.67859" lon="1.98202">
        <ele>193.8</ele>
        <time>2017-12-20T13:11:05.000Z</time>
      </trkpt>
      <trkpt lat="43.67851" lon="1.98211">
        <ele>194.1</ele>
        <time>2017-12-20T13:11:13.000Z</time>
      </trkpt>
      <trkpt lat="43.67843" lon="1.98218">
        <ele>194.3</ele>
        <time>2017-12-20T13:11:20.000Z</time>
      </trkpt>
      <trkpt lat="43.67834" lon="1.98224">
        <ele>194.5</ele>
        <time>2017-12-20T13:11:28.000Z</time>
      </trkpt>
      <trkpt lat="43.67823" lon="1.98219">
        <ele>230.6</ele>
        <time>2017-12-20T13:11:50.000Z</time>
      </trkpt>
      <trkpt lat="43.67818" lon="1.98213">
        <ele>230.1</ele>
        <time>2017-12-20T13:15:01.000Z</time>
      </trkpt>
      <trkpt lat="43.6781" lon="1.98202">
        <ele>229.3</ele>
        <time>2017-12-20T13:15:09.000Z</time>
      </trkpt>
      <trkpt lat="43.67801" lon="1.98197">
        <ele>228.8</ele>
        <time>2017-12-20T13:15:41.000Z</time>
      </trkpt>
      <trkpt lat="43.67794" lon="1.98189">
        <ele>228.1</ele>
        <time>2017-12-20T13:15:49.000Z</time>
      </trkpt>
      <trkpt lat="43.67787" lon="1.98181">
        <ele>227.5</ele>
        <time>2017-12-20T13:15:58.000Z</time>
      </trkpt>
      <trkpt lat="43.6778" lon="1.98178">
        <ele>227.1</ele>
        <time>2017-12-20T13:16:07.000Z</time>
      </trkpt>
      <trkpt lat="43.67773" lon="1.98172">
        <ele>196.3</ele>
        <time>2017-12-20T13:16:16.000Z</time>
      </trkpt>
      <trkpt lat="43.67764" lon="1.98167">
        <ele>195.7</ele>
        <time>2017-12-20T13:16:23.000Z</time>
      </trkpt>
      <trkpt lat="43.67755" lon="1.98161">
        <ele>194.7</ele>
        <time>2017-12-20T13:16:31.000Z</time>
      </trkpt>
      <trkpt lat="43.67746" lon="1.98157">
        <ele>193.8</ele>
        <time>2017-12-20T13:16:39.000Z</time>
      </trkpt>
      <trkpt lat="43.67737" lon="1.98152">
        <ele>192.9</ele>
        <time>2017-12-20T13:16:48.000Z</time>
      </trkpt>
      <trkpt lat="43.67728" lon="1.9815">
        <ele>192.1</ele>
        <time>2017-12-20T13:16:56.000Z</time>
      </trkpt>
      <trkpt lat="43.67718" lon="1.98154">
        <ele>191.5</ele>
        <time>2017-12-20T13:17:02.000Z</time>
      </trkpt>
      <trkpt lat="43.67709" lon="1.98157">
        <ele>190.7</ele>
        <time>2017-12-20T13:17:09.000Z</time>
      </trkpt>
      <trkpt lat="43.67699" lon="1.98158">
        <ele>189.9</ele>
        <time>2017-12-20T13:17:20.000Z</time>
      </trkpt>
      <trkpt lat="43.6769" lon="1.98161">
        <ele>189.4</ele>
        <time>2017-12-20T13:17:26.000Z</time>
      </trkpt>
      <trkpt lat="43.67681" lon="1.98162">
        <ele>188.8</ele>
        <time>2017-12-20T13:17:35.000Z</time>
      </trkpt>
      <trkpt lat="43.67672" lon="1.98164">
        <ele>188.3</ele>
        <time>2017-12-20T13:17:42.000Z</time>
      </trkpt>
      <trkpt lat="43.67662" lon="1.98169">
        <ele>187.9</ele>
        <time>2017-12-20T13:17:49.000Z</time>
      </trkpt>
      <trkpt lat="43.67652" lon="1.98174">
        <ele>187.5</ele>
        <time>2017-12-20T13:17:57.000Z</time>
      </trkpt>
      <trkpt lat="43.67643" lon="1.98178">
        <ele>187.1</ele>
        <time>2017-12-20T13:18:05.000Z</time>
      </trkpt>
      <trkpt lat="43.67634" lon="1.98181">
        <ele>186.9</ele>
        <time>2017-12-20T13:18:12.000Z</time>
      </trkpt>
      <trkpt lat="43.67625" lon="1.98183">
        <ele>186.8</ele>
        <time>2017-12-20T13:18:20.000Z</time>
      </trkpt>
      <trkpt lat="43.67616" lon="1.98188">
        <ele>186.7</ele>
        <time>2017-12-20T13:18:23.000Z</time>
      </trkpt>
      <trkpt lat="43.67607" lon="1.98187">
        <ele>186.1</ele>
        <time>2017-12-20T13:18:34.000Z</time>
      </trkpt>
      <trkpt lat="43.67596" lon="1.9819">
        <ele>185.8</ele>
        <time>2017-12-20T13:18:41.000Z</time>
      </trkpt>
      <trkpt lat="43.67587" lon="1.98191">
        <ele>185.4</ele>
        <time>2017-12-20T13:18:54.000Z</time>
      </trkpt>
      <trkpt lat="43.67577" lon="1.98196">
        <ele>185.2</ele>
        <time>2017-12-20T13:19:01.000Z</time>
      </trkpt>
      <trkpt lat="43.67568" lon="1.982">
        <ele>185</ele>
        <time>2017-12-20T13:19:06.000Z</time>
      </trkpt>
      <trkpt lat="43.67559" lon="1.98203">
        <ele>185</ele>
        <time>2017-12-20T13:19:11.000Z</time>
      </trkpt>
      <trkpt lat="43.67555" lon="1.98189">
        <ele>184.4</ele>
        <time>2017-12-20T13:19:35.000Z</time>
      </trkpt>
      <trkpt lat="43.67556" lon="1.98176">
        <ele>183.6</ele>
        <time>2017-12-20T13:19:44.000Z</time>
      </trkpt>
      <trkpt lat="43.67559" lon="1.98164">
        <ele>183.1</ele>
        <time>2017-12-20T13:19:51.000Z</time>
      </trkpt>
      <trkpt lat="43.67563" lon="1.98152">
        <ele>182.5</ele>
        <time>2017-12-20T13:19:59.000Z</time>
      </trkpt>
      <trkpt lat="43.67567" lon="1.98138">
        <ele>182.3</ele>
        <time>2017-12-20T13:20:06.000Z</time>
      </trkpt>
      <trkpt lat="43.6757" lon="1.98126">
        <ele>182.5</ele>
        <time>2017-12-20T13:20:12.000Z</time>
      </trkpt>
      <trkpt lat="43.67575" lon="1.98114">
        <ele>182.7</ele>
        <time>2017-12-20T13:20:18.000Z</time>
      </trkpt>
      <trkpt lat="43.67576" lon="1.98102">
        <ele>183.2</ele>
        <time>2017-12-20T13:20:27.000Z</time>
      </trkpt>
      <trkpt lat="43.67579" lon="1.9809">
        <ele>183.3</ele>
        <time>2017-12-20T13:20:33.000Z</time>
      </trkpt>
      <trkpt lat="43.67582" lon="1.98077">
        <ele>183</ele>
        <time>2017-12-20T13:20:39.000Z</time>
      </trkpt>
      <trkpt lat="43.67584" lon="1.98064">
        <ele>183</ele>
        <time>2017-12-20T13:20:46.000Z</time>
      </trkpt>
      <trkpt lat="43.67587" lon="1.98051">
        <ele>183.1</ele>
        <time>2017-12-20T13:20:54.000Z</time>
      </trkpt>
      <trkpt lat="43.67588" lon="1.98037">
        <ele>183.1</ele>
        <time>2017-12-20T13:21:01.000Z</time>
      </trkpt>
      <trkpt lat="43.6759" lon="1.98026">
        <ele>182.6</ele>
        <time>2017-12-20T13:21:07.000Z</time>
      </trkpt>
      <trkpt lat="43.67591" lon="1.98013">
        <ele>182.2</ele>
        <time>2017-12-20T13:21:14.000Z</time>
      </trkpt>
      <trkpt lat="43.67593" lon="1.98001">
        <ele>181</ele>
        <time>2017-12-20T13:21:21.000Z</time>
      </trkpt>
      <trkpt lat="43.67598" lon="1.97988">
        <ele>182.6</ele>
        <time>2017-12-20T13:21:28.000Z</time>
      </trkpt>
      <trkpt lat="43.67599" lon="1.97975">
        <ele>183.4</ele>
        <time>2017-12-20T13:21:36.000Z</time>
      </trkpt>
      <trkpt lat="43.67601" lon="1.97962">
        <ele>183.5</ele>
        <time>2017-12-20T13:21:41.000Z</time>
      </trkpt>
      <trkpt lat="43.67603" lon="1.9795">
        <ele>183.5</ele>
        <time>2017-12-20T13:21:49.000Z</time>
      </trkpt>
      <trkpt lat="43.67606" lon="1.97938">
        <ele>183.2</ele>
        <time>2017-12-20T13:21:57.000Z</time>
      </trkpt>
      <trkpt lat="43.67608" lon="1.97925">
        <ele>183.1</ele>
        <time>2017-12-20T13:22:02.000Z</time>
      </trkpt>
      <trkpt lat="43.6761" lon="1.97913">
        <ele>183</ele>
        <time>2017-12-20T13:22:11.000Z</time>
      </trkpt>
      <trkpt lat="43.67612" lon="1.97899">
        <ele>183</ele>
        <time>2017-12-20T13:22:18.000Z</time>
      </trkpt>
      <trkpt lat="43.67613" lon="1.97886">
        <ele>184</ele>
        <time>2017-12-20T13:23:47.000Z</time>
      </trkpt>
      <trkpt lat="43.67614" lon="1.97873">
        <ele>183.5</ele>
        <time>2017-12-20T13:23:54.000Z</time>
      </trkpt>
      <trkpt lat="43.67618" lon="1.97862">
        <ele>182.6</ele>
        <time>2017-12-20T13:24:02.000Z</time>
      </trkpt>
      <trkpt lat="43.67623" lon="1.9785">
        <ele>183.4</ele>
        <time>2017-12-20T13:24:09.000Z</time>
      </trkpt>
      <trkpt lat="43.67627" lon="1.97838">
        <ele>183.9</ele>
        <time>2017-12-20T13:24:16.000Z</time>
      </trkpt>
      <trkpt lat="43.67631" lon="1.97826">
        <ele>184.3</ele>
        <time>2017-12-20T13:24:24.000Z</time>
      </trkpt>
      <trkpt lat="43.67634" lon="1.97812">
        <ele>184.5</ele>
        <time>2017-12-20T13:24:32.000Z</time>
      </trkpt>
      <trkpt lat="43.67638" lon="1.978">
        <ele>184.7</ele>
        <time>2017-12-20T13:24:40.000Z</time>
      </trkpt>
      <trkpt lat="43.67632" lon="1.9779">
        <ele>185.8</ele>
        <time>2017-12-20T13:25:20.000Z</time>
      </trkpt>
      <trkpt lat="43.67623" lon="1.97787">
        <ele>186</ele>
        <time>2017-12-20T13:25:27.000Z</time>
      </trkpt>
      <trkpt lat="43.67614" lon="1.97786">
        <ele>186.2</ele>
        <time>2017-12-20T13:25:33.000Z</time>
      </trkpt>
      <trkpt lat="43.67604" lon="1.97782">
        <ele>186.3</ele>
        <time>2017-12-20T13:25:41.000Z</time>
      </trkpt>
      <trkpt lat="43.67594" lon="1.9778">
        <ele>186.4</ele>
        <time>2017-12-20T13:25:48.000Z</time>
      </trkpt>
      <trkpt lat="43.67584" lon="1.97779">
        <ele>186.5</ele>
        <time>2017-12-20T13:25:55.000Z</time>
      </trkpt>
      <trkpt lat="43.67575" lon="1.97777">
        <ele>186.5</ele>
        <time>2017-12-20T13:26:01.000Z</time>
      </trkpt>
      <trkpt lat="43.67565" lon="1.97776">
        <ele>186.5</ele>
        <time>2017-12-20T13:26:09.000Z</time>
      </trkpt>
      <trkpt lat="43.67555" lon="1.97774">
        <ele>186.2</ele>
        <time>2017-12-20T13:26:18.000Z</time>
      </trkpt>
      <trkpt lat="43.67545" lon="1.97771">
        <ele>185.9</ele>
        <time>2017-12-20T13:26:26.000Z</time>
      </trkpt>
      <trkpt lat="43.67536" lon="1.97767">
        <ele>185.7</ele>
        <time>2017-12-20T13:26:35.000Z</time>
      </trkpt>
      <trkpt lat="43.67527" lon="1.97766">
        <ele>185.6</ele>
        <time>2017-12-20T13:26:43.000Z</time>
      </trkpt>
      <trkpt lat="43.67517" lon="1.97766">
        <ele>185.4</ele>
        <time>2017-12-20T13:26:52.000Z</time>
      </trkpt>
      <trkpt lat="43.67508" lon="1.97765">
        <ele>185.1</ele>
        <time>2017-12-20T13:27:01.000Z</time>
      </trkpt>
      <trkpt lat="43.67498" lon="1.97765">
        <ele>184.8</ele>
        <time>2017-12-20T13:27:09.000Z</time>
      </trkpt>
      <trkpt lat="43.67488" lon="1.97764">
        <ele>184.6</ele>
        <time>2017-12-20T13:27:17.000Z</time>
      </trkpt>
      <trkpt lat="43.67479" lon="1.97763">
        <ele>184.5</ele>
        <time>2017-12-20T13:27:25.000Z</time>
      </trkpt>
      <trkpt lat="43.67468" lon="1.97763">
        <ele>184.4</ele>
        <time>2017-12-20T13:27:32.000Z</time>
      </trkpt>
      <trkpt lat="43.67459" lon="1.97762">
        <ele>184.3</ele>
        <time>2017-12-20T13:27:40.000Z</time>
      </trkpt>
      <trkpt lat="43.67449" lon="1.9776">
        <ele>184.2</ele>
        <time>2017-12-20T13:27:47.000Z</time>
      </trkpt>
      <trkpt lat="43.6744" lon="1.9776">
        <ele>184.2</ele>
        <time>2017-12-20T13:27:55.000Z</time>
      </trkpt>
      <trkpt lat="43.67431" lon="1.97755">
        <ele>184.1</ele>
        <time>2017-12-20T13:28:05.000Z</time>
      </trkpt>
      <trkpt lat="43.67422" lon="1.97753">
        <ele>183.9</ele>
        <time>2017-12-20T13:28:14.000Z</time>
      </trkpt>
      <trkpt lat="43.67412" lon="1.97749">
        <ele>183.6</ele>
        <time>2017-12-20T13:28:23.000Z</time>
      </trkpt>
      <trkpt lat="43.67403" lon="1.97747">
        <ele>183.1</ele>
        <time>2017-12-20T13:28:32.000Z</time>
      </trkpt>
      <trkpt lat="43.67393" lon="1.97744">
        <ele>182.6</ele>
        <time>2017-12-20T13:28:38.000Z</time>
      </trkpt>
      <trkpt lat="43.67384" lon="1.97744">
        <ele>181.8</ele>
        <time>2017-12-20T13:28:45.000Z</time>
      </trkpt>
      <trkpt lat="43.67375" lon="1.9774">
        <ele>180.8</ele>
        <time>2017-12-20T13:28:53.000Z</time>
      </trkpt>
      <trkpt lat="43.67369" lon="1.97731">
        <ele>179.9</ele>
        <time>2017-12-20T13:29:02.000Z</time>
      </trkpt>
      <trkpt lat="43.67368" lon="1.97717">
        <ele>179.5</ele>
        <time>2017-12-20T13:29:07.000Z</time>
      </trkpt>
      <trkpt lat="43.67364" lon="1.97706">
        <ele>178.7</ele>
        <time>2017-12-20T13:29:16.000Z</time>
      </trkpt>
      <trkpt lat="43.67361" lon="1.97693">
        <ele>178.3</ele>
        <time>2017-12-20T13:29:25.000Z</time>
      </trkpt>
      <trkpt lat="43.67362" lon="1.97679">
        <ele>178.1</ele>
        <time>2017-12-20T13:29:33.000Z</time>
      </trkpt>
      <trkpt lat="43.67362" lon="1.97666">
        <ele>177.9</ele>
        <time>2017-12-20T13:29:40.000Z</time>
      </trkpt>
      <trkpt lat="43.67362" lon="1.97653">
        <ele>177.8</ele>
        <time>2017-12-20T13:29:47.000Z</time>
      </trkpt>
      <trkpt lat="43.67361" lon="1.9764">
        <ele>177.7</ele>
        <time>2017-12-20T13:29:56.000Z</time>
      </trkpt>
      <trkpt lat="43.67357" lon="1.97627">
        <ele>203.8</ele>
        <time>2017-12-20T13:30:04.000Z</time>
      </trkpt>
      <trkpt lat="43.67352" lon="1.97618">
        <ele>203.5</ele>
        <time>2017-12-20T13:30:11.000Z</time>
      </trkpt>
      <trkpt lat="43.67347" lon="1.97609">
        <ele>203.2</ele>
        <time>2017-12-20T13:30:17.000Z</time>
      </trkpt>
      <trkpt lat="43.67343" lon="1.97596">
        <ele>202.6</ele>
        <time>2017-12-20T13:30:24.000Z</time>
      </trkpt>
      <trkpt lat="43.67341" lon="1.97587">
        <ele>202.3</ele>
        <time>2017-12-20T13:30:31.000Z</time>
      </trkpt>
      <trkpt lat="43.67339" lon="1.97575">
        <ele>202.1</ele>
        <time>2017-12-20T13:30:39.000Z</time>
      </trkpt>
      <trkpt lat="43.67336" lon="1.97565">
        <ele>202.1</ele>
        <time>2017-12-20T13:30:51.000Z</time>
      </trkpt>
      <trkpt lat="43.67332" lon="1.97557">
        <ele>201.9</ele>
        <time>2017-12-20T13:30:59.000Z</time>
      </trkpt>
      <trkpt lat="43.6733" lon="1.97545">
        <ele>201.7</ele>
        <time>2017-12-20T13:31:12.000Z</time>
      </trkpt>
      <trkpt lat="43.67324" lon="1.97539">
        <ele>201.2</ele>
        <time>2017-12-20T13:36:20.000Z</time>
      </trkpt>
      <trkpt lat="43.67317" lon="1.9754">
        <ele>200.6</ele>
        <time>2017-12-20T13:36:26.000Z</time>
      </trkpt>
      <trkpt lat="43.67306" lon="1.97543">
        <ele>199.7</ele>
        <time>2017-12-20T13:36:35.000Z</time>
      </trkpt>
      <trkpt lat="43.67295" lon="1.97542">
        <ele>198.8</ele>
        <time>2017-12-20T13:36:45.000Z</time>
      </trkpt>
      <trkpt lat="43.67285" lon="1.97543">
        <ele>197.9</ele>
        <time>2017-12-20T13:36:53.000Z</time>
      </trkpt>
      <trkpt lat="43.67275" lon="1.9754">
        <ele>197.1</ele>
        <time>2017-12-20T13:37:00.000Z</time>
      </trkpt>
      <trkpt lat="43.67265" lon="1.97531">
        <ele>177.8</ele>
        <time>2017-12-20T13:37:08.000Z</time>
      </trkpt>
      <trkpt lat="43.67256" lon="1.97526">
        <ele>177.8</ele>
        <time>2017-12-20T13:37:17.000Z</time>
      </trkpt>
      <trkpt lat="43.67248" lon="1.9752">
        <ele>177.7</ele>
        <time>2017-12-20T13:37:25.000Z</time>
      </trkpt>
      <trkpt lat="43.6724" lon="1.97513">
        <ele>177.6</ele>
        <time>2017-12-20T13:37:32.000Z</time>
      </trkpt>
      <trkpt lat="43.67232" lon="1.97508">
        <ele>177.6</ele>
        <time>2017-12-20T13:37:40.000Z</time>
      </trkpt>
      <trkpt lat="43.67223" lon="1.97503">
        <ele>177.6</ele>
        <time>2017-12-20T13:37:47.000Z</time>
      </trkpt>
      <trkpt lat="43.67214" lon="1.97498">
        <ele>177.6</ele>
        <time>2017-12-20T13:37:55.000Z</time>
      </trkpt>
      <trkpt lat="43.67205" lon="1.97494">
        <ele>177.7</ele>
        <time>2017-12-20T13:38:03.000Z</time>
      </trkpt>
      <trkpt lat="43.67197" lon="1.97488">
        <ele>177.8</ele>
        <time>2017-12-20T13:38:11.000Z</time>
      </trkpt>
      <trkpt lat="43.67187" lon="1.97483">
        <ele>177.9</ele>
        <time>2017-12-20T13:38:19.000Z</time>
      </trkpt>
      <trkpt lat="43.67178" lon="1.97481">
        <ele>178</ele>
        <time>2017-12-20T13:38:26.000Z</time>
      </trkpt>
      <trkpt lat="43.67168" lon="1.97479">
        <ele>178.1</ele>
        <time>2017-12-20T13:38:32.000Z</time>
      </trkpt>
      <trkpt lat="43.67159" lon="1.97476">
        <ele>178.1</ele>
        <time>2017-12-20T13:38:39.000Z</time>
      </trkpt>
      <trkpt lat="43.67149" lon="1.97473">
        <ele>177.6</ele>
        <time>2017-12-20T13:38:47.000Z</time>
      </trkpt>
      <trkpt lat="43.67139" lon="1.9747">
        <ele>177.4</ele>
        <time>2017-12-20T13:38:54.000Z</time>
      </trkpt>
      <trkpt lat="43.67129" lon="1.97464">
        <ele>177.3</ele>
        <time>2017-12-20T13:39:02.000Z</time>
      </trkpt>
      <trkpt lat="43.6712" lon="1.97461">
        <ele>177</ele>
        <time>2017-12-20T13:39:09.000Z</time>
      </trkpt>
      <trkpt lat="43.6711" lon="1.97459">
        <ele>176.3</ele>
        <time>2017-12-20T13:39:18.000Z</time>
      </trkpt>
      <trkpt lat="43.67101" lon="1.97456">
        <ele>175.9</ele>
        <time>2017-12-20T13:39:25.000Z</time>
      </trkpt>
      <trkpt lat="43.67093" lon="1.97449">
        <ele>175.2</ele>
        <time>2017-12-20T13:39:32.000Z</time>
      </trkpt>
      <trkpt lat="43.67084" lon="1.97447">
        <ele>174.5</ele>
        <time>2017-12-20T13:39:39.000Z</time>
      </trkpt>
      <trkpt lat="43.67074" lon="1.97445">
        <ele>173.7</ele>
        <time>2017-12-20T13:39:48.000Z</time>
      </trkpt>
      <trkpt lat="43.67064" lon="1.97441">
        <ele>173.2</ele>
        <time>2017-12-20T13:39:57.000Z</time>
      </trkpt>
      <trkpt lat="43.67055" lon="1.97437">
        <ele>173</ele>
        <time>2017-12-20T13:40:03.000Z</time>
      </trkpt>
      <trkpt lat="43.67045" lon="1.97435">
        <ele>172.6</ele>
        <time>2017-12-20T13:40:11.000Z</time>
      </trkpt>
      <trkpt lat="43.67035" lon="1.97433">
        <ele>172.4</ele>
        <time>2017-12-20T13:40:19.000Z</time>
      </trkpt>
      <trkpt lat="43.67026" lon="1.97427">
        <ele>172.2</ele>
        <time>2017-12-20T13:40:27.000Z</time>
      </trkpt>
      <trkpt lat="43.67019" lon="1.9742">
        <ele>172.2</ele>
        <time>2017-12-20T13:40:34.000Z</time>
      </trkpt>
      <trkpt lat="43.6701" lon="1.97415">
        <ele>172.2</ele>
        <time>2017-12-20T13:40:44.000Z</time>
      </trkpt>
      <trkpt lat="43.67001" lon="1.97411">
        <ele>172.4</ele>
        <time>2017-12-20T13:40:51.000Z</time>
      </trkpt>
      <trkpt lat="43.66992" lon="1.97406">
        <ele>172.8</ele>
        <time>2017-12-20T13:40:59.000Z</time>
      </trkpt>
      <trkpt lat="43.66983" lon="1.97398">
        <ele>173.1</ele>
        <time>2017-12-20T13:41:07.000Z</time>
      </trkpt>
      <trkpt lat="43.66974" lon="1.97392">
        <ele>173.7</ele>
        <time>2017-12-20T13:41:16.000Z</time>
      </trkpt>
      <trkpt lat="43.66965" lon="1.97389">
        <ele>174.3</ele>
        <time>2017-12-20T13:41:24.000Z</time>
      </trkpt>
      <trkpt lat="43.66955" lon="1.97383">
        <ele>174.6</ele>
        <time>2017-12-20T13:41:31.000Z</time>
      </trkpt>
      <trkpt lat="43.66946" lon="1.97379">
        <ele>175</ele>
        <time>2017-12-20T13:41:37.000Z</time>
      </trkpt>
      <trkpt lat="43.66937" lon="1.97374">
        <ele>175.5</ele>
        <time>2017-12-20T13:41:44.000Z</time>
      </trkpt>
      <trkpt lat="43.66928" lon="1.9737">
        <ele>176</ele>
        <time>2017-12-20T13:41:50.000Z</time>
      </trkpt>
      <trkpt lat="43.6692" lon="1.97366">
        <ele>176.4</ele>
        <time>2017-12-20T13:41:57.000Z</time>
      </trkpt>
      <trkpt lat="43.6691" lon="1.97362">
        <ele>176.8</ele>
        <time>2017-12-20T13:42:05.000Z</time>
      </trkpt>
      <trkpt lat="43.66901" lon="1.97357">
        <ele>177.1</ele>
        <time>2017-12-20T13:42:14.000Z</time>
      </trkpt>
      <trkpt lat="43.66891" lon="1.97353">
        <ele>177.4</ele>
        <time>2017-12-20T13:42:22.000Z</time>
      </trkpt>
      <trkpt lat="43.66882" lon="1.9735">
        <ele>177.6</ele>
        <time>2017-12-20T13:42:30.000Z</time>
      </trkpt>
      <trkpt lat="43.66873" lon="1.97347">
        <ele>177.8</ele>
        <time>2017-12-20T13:42:37.000Z</time>
      </trkpt>
      <trkpt lat="43.66863" lon="1.97345">
        <ele>178</ele>
        <time>2017-12-20T13:42:45.000Z</time>
      </trkpt>
      <trkpt lat="43.66854" lon="1.97342">
        <ele>178.1</ele>
        <time>2017-12-20T13:42:53.000Z</time>
      </trkpt>
      <trkpt lat="43.66845" lon="1.97339">
        <ele>178.2</ele>
        <time>2017-12-20T13:43:01.000Z</time>
      </trkpt>
      <trkpt lat="43.66836" lon="1.97336">
        <ele>178.4</ele>
        <time>2017-12-20T13:43:08.000Z</time>
      </trkpt>
      <trkpt lat="43.66826" lon="1.97334">
        <ele>178.6</ele>
        <time>2017-12-20T13:43:16.000Z</time>
      </trkpt>
      <trkpt lat="43.66817" lon="1.97332">
        <ele>178.9</ele>
        <time>2017-12-20T13:43:23.000Z</time>
      </trkpt>
      <trkpt lat="43.66808" lon="1.97329">
        <ele>179.1</ele>
        <time>2017-12-20T13:43:30.000Z</time>
      </trkpt>
      <trkpt lat="43.66799" lon="1.97326">
        <ele>179.2</ele>
        <time>2017-12-20T13:43:38.000Z</time>
      </trkpt>
      <trkpt lat="43.66789" lon="1.97322">
        <ele>179.3</ele>
        <time>2017-12-20T13:43:46.000Z</time>
      </trkpt>
      <trkpt lat="43.66783" lon="1.97312">
        <ele>179.3</ele>
        <time>2017-12-20T13:43:56.000Z</time>
      </trkpt>
      <trkpt lat="43.66774" lon="1.97314">
        <ele>189.8</ele>
        <time>2017-12-20T13:44:09.000Z</time>
      </trkpt>
      <trkpt lat="43.66766" lon="1.97317">
        <ele>189.9</ele>
        <time>2017-12-20T13:45:18.000Z</time>
      </trkpt>
      <trkpt lat="43.66758" lon="1.9732">
        <ele>190.1</ele>
        <time>2017-12-20T13:45:27.000Z</time>
      </trkpt>
      <trkpt lat="43.66747" lon="1.97323">
        <ele>190.2</ele>
        <time>2017-12-20T13:45:36.000Z</time>
      </trkpt>
      <trkpt lat="43.66739" lon="1.97326">
        <ele>190.1</ele>
        <time>2017-12-20T13:45:45.000Z</time>
      </trkpt>
      <trkpt lat="43.66729" lon="1.9733">
        <ele>189.8</ele>
        <time>2017-12-20T13:45:54.000Z</time>
      </trkpt>
      <trkpt lat="43.66719" lon="1.97328">
        <ele>189.8</ele>
        <time>2017-12-20T13:46:03.000Z</time>
      </trkpt>
      <trkpt lat="43.66708" lon="1.97329">
        <ele>189.7</ele>
        <time>2017-12-20T13:46:14.000Z</time>
      </trkpt>
      <trkpt lat="43.66697" lon="1.97327">
        <ele>189.6</ele>
        <time>2017-12-20T13:46:23.000Z</time>
      </trkpt>
      <trkpt lat="43.66689" lon="1.97327">
        <ele>189.5</ele>
        <time>2017-12-20T13:46:31.000Z</time>
      </trkpt>
      <trkpt lat="43.66679" lon="1.97324">
        <ele>189.5</ele>
        <time>2017-12-20T13:46:39.000Z</time>
      </trkpt>
      <trkpt lat="43.66667" lon="1.9732">
        <ele>189.5</ele>
        <time>2017-12-20T13:46:49.000Z</time>
      </trkpt>
      <trkpt lat="43.66659" lon="1.97318">
        <ele>189.4</ele>
        <time>2017-12-20T13:46:58.000Z</time>
      </trkpt>
      <trkpt lat="43.6665" lon="1.97316">
        <ele>189.4</ele>
        <time>2017-12-20T13:47:06.000Z</time>
      </trkpt>
      <trkpt lat="43.66641" lon="1.97312">
        <ele>189.3</ele>
        <time>2017-12-20T13:47:14.000Z</time>
      </trkpt>
      <trkpt lat="43.66633" lon="1.97309">
        <ele>189.2</ele>
        <time>2017-12-20T13:47:23.000Z</time>
      </trkpt>
      <trkpt lat="43.66625" lon="1.97307">
        <ele>189.1</ele>
        <time>2017-12-20T13:47:34.000Z</time>
      </trkpt>
      <trkpt lat="43.66617" lon="1.97305">
        <ele>189</ele>
        <time>2017-12-20T13:47:37.366Z</time>
      </trkpt>
      <trkpt lat="43.66616" lon="1.97301">
        <ele>177.3</ele>
        <time>2017-12-20T13:47:42.000Z</time>
      </trkpt>
      <trkpt lat="43.66606" lon="1.973">
        <ele>176.2</ele>
        <time>2017-12-20T13:47:51.000Z</time>
      </trkpt>
      <trkpt lat="43.66597" lon="1.97297">
        <ele>175.4</ele>
        <time>2017-12-20T13:47:59.000Z</time>
      </trkpt>
      <trkpt lat="43.66588" lon="1.97295">
        <ele>188.6</ele>
        <time>2017-12-20T13:48:09.000Z</time>
      </trkpt>
      <trkpt lat="43.66578" lon="1.97295">
        <ele>188.3</ele>
        <time>2017-12-20T13:48:19.000Z</time>
      </trkpt>
      <trkpt lat="43.66569" lon="1.97292">
        <ele>187.9</ele>
        <time>2017-12-20T13:48:29.000Z</time>
      </trkpt>
      <trkpt lat="43.6656" lon="1.97293">
        <ele>187.5</ele>
        <time>2017-12-20T13:48:39.000Z</time>
      </trkpt>
      <trkpt lat="43.66551" lon="1.97292">
        <ele>187.1</ele>
        <time>2017-12-20T13:48:49.000Z</time>
      </trkpt>
      <trkpt lat="43.6654" lon="1.9729">
        <ele>167.2</ele>
        <time>2017-12-20T13:48:58.000Z</time>
      </trkpt>
      <trkpt lat="43.66531" lon="1.97295">
        <ele>165.5</ele>
        <time>2017-12-20T13:49:08.000Z</time>
      </trkpt>
      <trkpt lat="43.66523" lon="1.97293">
        <ele>186</ele>
        <time>2017-12-20T13:49:19.000Z</time>
      </trkpt>
      <trkpt lat="43.66514" lon="1.97293">
        <ele>185.6</ele>
        <time>2017-12-20T13:49:28.000Z</time>
      </trkpt>
      <trkpt lat="43.66506" lon="1.97289">
        <ele>161.6</ele>
        <time>2017-12-20T13:49:36.000Z</time>
      </trkpt>
      <trkpt lat="43.66501" lon="1.97278">
        <ele>161.1</ele>
        <time>2017-12-20T13:49:43.000Z</time>
      </trkpt>
      <trkpt lat="43.66494" lon="1.97268">
        <ele>183.8</ele>
        <time>2017-12-20T13:49:51.000Z</time>
      </trkpt>
      <trkpt lat="43.66491" lon="1.97256">
        <ele>183.3</ele>
        <time>2017-12-20T13:50:00.000Z</time>
      </trkpt>
      <trkpt lat="43.66488" lon="1.97244">
        <ele>183.2</ele>
        <time>2017-12-20T13:50:09.000Z</time>
      </trkpt>
      <trkpt lat="43.66484" lon="1.97232">
        <ele>159.2</ele>
        <time>2017-12-20T13:50:17.000Z</time>
      </trkpt>
      <trkpt lat="43.66479" lon="1.97221">
        <ele>158.6</ele>
        <time>2017-12-20T13:50:26.000Z</time>
      </trkpt>
      <trkpt lat="43.66476" lon="1.97208">
        <ele>157.9</ele>
        <time>2017-12-20T13:50:34.000Z</time>
      </trkpt>
      <trkpt lat="43.66468" lon="1.97202">
        <ele>157.2</ele>
        <time>2017-12-20T13:50:41.000Z</time>
      </trkpt>
      <trkpt lat="43.66461" lon="1.97193">
        <ele>156.3</ele>
        <time>2017-12-20T13:50:49.000Z</time>
      </trkpt>
      <trkpt lat="43.66453" lon="1.97185">
        <ele>155</ele>
        <time>2017-12-20T13:50:58.000Z</time>
      </trkpt>
      <trkpt lat="43.66446" lon="1.97177">
        <ele>153.4</ele>
        <time>2017-12-20T13:51:08.000Z</time>
      </trkpt>
      <trkpt lat="43.66437" lon="1.97171">
        <ele>151.8</ele>
        <time>2017-12-20T13:51:18.000Z</time>
      </trkpt>
      <trkpt lat="43.6643" lon="1.97163">
        <ele>150.5</ele>
        <time>2017-12-20T13:51:25.000Z</time>
      </trkpt>
      <trkpt lat="43.66421" lon="1.97159">
        <ele>149</ele>
        <time>2017-12-20T13:51:33.000Z</time>
      </trkpt>
      <trkpt lat="43.66412" lon="1.97156">
        <ele>147.4</ele>
        <time>2017-12-20T13:51:42.000Z</time>
      </trkpt>
      <trkpt lat="43.66402" lon="1.97153">
        <ele>145.4</ele>
        <time>2017-12-20T13:51:52.000Z</time>
      </trkpt>
      <trkpt lat="43.66394" lon="1.97146">
        <ele>144.1</ele>
        <time>2017-12-20T13:52:00.000Z</time>
      </trkpt>
      <trkpt lat="43.66386" lon="1.97141">
        <ele>142.6</ele>
        <time>2017-12-20T13:52:08.000Z</time>
      </trkpt>
      <trkpt lat="43.66375" lon="1.97141">
        <ele>140.5</ele>
        <time>2017-12-20T13:52:19.000Z</time>
      </trkpt>
      <trkpt lat="43.66366" lon="1.97142">
        <ele>139.4</ele>
        <time>2017-12-20T13:52:26.000Z</time>
      </trkpt>
      <trkpt lat="43.66356" lon="1.97144">
        <ele>138</ele>
        <time>2017-12-20T13:52:34.000Z</time>
      </trkpt>
      <trkpt lat="43.66346" lon="1.97147">
        <ele>136.8</ele>
        <time>2017-12-20T13:52:43.000Z</time>
      </trkpt>
      <trkpt lat="43.66336" lon="1.97146">
        <ele>136.2</ele>
        <time>2017-12-20T13:52:50.000Z</time>
      </trkpt>
      <trkpt lat="43.66327" lon="1.97145">
        <ele>135.4</ele>
        <time>2017-12-20T13:52:58.000Z</time>
      </trkpt>
      <trkpt lat="43.66317" lon="1.97145">
        <ele>134.8</ele>
        <time>2017-12-20T13:53:06.000Z</time>
      </trkpt>
      <trkpt lat="43.66308" lon="1.97142">
        <ele>134.4</ele>
        <time>2017-12-20T13:53:14.000Z</time>
      </trkpt>
      <trkpt lat="43.66299" lon="1.9714">
        <ele>134.1</ele>
        <time>2017-12-20T13:53:21.000Z</time>
      </trkpt>
      <trkpt lat="43.66289" lon="1.9714">
        <ele>133.9</ele>
        <time>2017-12-20T13:53:27.000Z</time>
      </trkpt>
      <trkpt lat="43.6628" lon="1.97137">
        <ele>133.6</ele>
        <time>2017-12-20T13:53:35.000Z</time>
      </trkpt>
      <trkpt lat="43.6627" lon="1.97135">
        <ele>133.5</ele>
        <time>2017-12-20T13:53:43.000Z</time>
      </trkpt>
      <trkpt lat="43.6626" lon="1.97135">
        <ele>133.4</ele>
        <time>2017-12-20T13:53:52.000Z</time>
      </trkpt>
      <trkpt lat="43.66251" lon="1.97131">
        <ele>133.3</ele>
        <time>2017-12-20T13:54:02.000Z</time>
      </trkpt>
      <trkpt lat="43.66241" lon="1.97129">
        <ele>133.3</ele>
        <time>2017-12-20T13:54:10.000Z</time>
      </trkpt>
      <trkpt lat="43.66232" lon="1.97129">
        <ele>133.3</ele>
        <time>2017-12-20T13:54:19.000Z</time>
      </trkpt>
      <trkpt lat="43.66222" lon="1.9713">
        <ele>133.2</ele>
        <time>2017-12-20T13:54:27.000Z</time>
      </trkpt>
      <trkpt lat="43.66212" lon="1.97131">
        <ele>133.2</ele>
        <time>2017-12-20T13:54:34.000Z</time>
      </trkpt>
      <trkpt lat="43.66203" lon="1.97134">
        <ele>133.2</ele>
        <time>2017-12-20T13:54:41.000Z</time>
      </trkpt>
      <trkpt lat="43.66193" lon="1.97135">
        <ele>133.2</ele>
        <time>2017-12-20T13:54:48.000Z</time>
      </trkpt>
      <trkpt lat="43.66184" lon="1.97134">
        <ele>133.2</ele>
        <time>2017-12-20T13:54:56.000Z</time>
      </trkpt>
      <trkpt lat="43.66175" lon="1.97133">
        <ele>133.2</ele>
        <time>2017-12-20T13:55:04.000Z</time>
      </trkpt>
      <trkpt lat="43.66166" lon="1.97131">
        <ele>133.2</ele>
        <time>2017-12-20T13:55:11.000Z</time>
      </trkpt>
      <trkpt lat="43.66156" lon="1.97131">
        <ele>133.2</ele>
        <time>2017-12-20T13:55:18.000Z</time>
      </trkpt>
      <trkpt lat="43.66146" lon="1.9713">
        <ele>133.2</ele>
        <time>2017-12-20T13:55:27.000Z</time>
      </trkpt>
      <trkpt lat="43.66137" lon="1.97129">
        <ele>133.2</ele>
        <time>2017-12-20T13:55:35.000Z</time>
      </trkpt>
      <trkpt lat="43.66127" lon="1.97128">
        <ele>133.2</ele>
        <time>2017-12-20T13:55:42.000Z</time>
      </trkpt>
      <trkpt lat="43.66118" lon="1.97128">
        <ele>133.2</ele>
        <time>2017-12-20T13:55:49.000Z</time>
      </trkpt>
      <trkpt lat="43.66109" lon="1.97125">
        <ele>133.2</ele>
        <time>2017-12-20T13:55:57.000Z</time>
      </trkpt>
      <trkpt lat="43.66099" lon="1.97125">
        <ele>133.2</ele>
        <time>2017-12-20T13:56:07.000Z</time>
      </trkpt>
      <trkpt lat="43.66089" lon="1.97124">
        <ele>133.2</ele>
        <time>2017-12-20T13:56:14.000Z</time>
      </trkpt>
      <trkpt lat="43.66079" lon="1.97125">
        <ele>133.2</ele>
        <time>2017-12-20T13:56:22.000Z</time>
      </trkpt>
      <trkpt lat="43.6607" lon="1.97124">
        <ele>133.2</ele>
        <time>2017-12-20T13:56:29.000Z</time>
      </trkpt>
      <trkpt lat="43.66061" lon="1.97124">
        <ele>133.2</ele>
        <time>2017-12-20T13:56:37.000Z</time>
      </trkpt>
      <trkpt lat="43.66051" lon="1.97123">
        <ele>133.2</ele>
        <time>2017-12-20T13:56:45.000Z</time>
      </trkpt>
      <trkpt lat="43.66041" lon="1.97124">
        <ele>133.3</ele>
        <time>2017-12-20T13:56:51.000Z</time>
      </trkpt>
      <trkpt lat="43.66031" lon="1.97123">
        <ele>133.3</ele>
        <time>2017-12-20T13:56:58.000Z</time>
      </trkpt>
      <trkpt lat="43.66022" lon="1.97124">
        <ele>133.3</ele>
        <time>2017-12-20T13:57:06.000Z</time>
      </trkpt>
      <trkpt lat="43.66013" lon="1.97123">
        <ele>133.3</ele>
        <time>2017-12-20T13:57:15.000Z</time>
      </trkpt>
      <trkpt lat="43.66003" lon="1.97121">
        <ele>133.3</ele>
        <time>2017-12-20T13:57:23.000Z</time>
      </trkpt>
      <trkpt lat="43.65994" lon="1.97121">
        <ele>133.3</ele>
        <time>2017-12-20T13:57:30.000Z</time>
      </trkpt>
      <trkpt lat="43.65984" lon="1.97122">
        <ele>133.3</ele>
        <time>2017-12-20T13:57:37.000Z</time>
      </trkpt>
      <trkpt lat="43.65975" lon="1.97122">
        <ele>133.3</ele>
        <time>2017-12-20T13:57:44.000Z</time>
      </trkpt>
      <trkpt lat="43.65965" lon="1.97121">
        <ele>133.3</ele>
        <time>2017-12-20T13:57:51.000Z</time>
      </trkpt>
      <trkpt lat="43.65956" lon="1.97122">
        <ele>133.3</ele>
        <time>2017-12-20T13:57:58.000Z</time>
      </trkpt>
      <trkpt lat="43.65946" lon="1.97121">
        <ele>133.3</ele>
        <time>2017-12-20T13:58:06.000Z</time>
      </trkpt>
      <trkpt lat="43.65936" lon="1.97121">
        <ele>133.3</ele>
        <time>2017-12-20T13:58:14.000Z</time>
      </trkpt>
      <trkpt lat="43.65927" lon="1.97121">
        <ele>133.3</ele>
        <time>2017-12-20T13:58:21.000Z</time>
      </trkpt>
      <trkpt lat="43.65917" lon="1.97119">
        <ele>133.3</ele>
        <time>2017-12-20T13:58:29.000Z</time>
      </trkpt>
      <trkpt lat="43.65907" lon="1.97119">
        <ele>133.3</ele>
        <time>2017-12-20T13:58:37.000Z</time>
      </trkpt>
      <trkpt lat="43.65898" lon="1.97118">
        <ele>133.3</ele>
        <time>2017-12-20T13:58:44.000Z</time>
      </trkpt>
      <trkpt lat="43.65889" lon="1.97116">
        <ele>133.3</ele>
        <time>2017-12-20T13:58:51.000Z</time>
      </trkpt>
      <trkpt lat="43.65879" lon="1.97115">
        <ele>133.2</ele>
        <time>2017-12-20T13:58:59.000Z</time>
      </trkpt>
      <trkpt lat="43.65869" lon="1.97115">
        <ele>133.3</ele>
        <time>2017-12-20T13:59:08.000Z</time>
      </trkpt>
      <trkpt lat="43.6586" lon="1.97115">
        <ele>133.4</ele>
        <time>2017-12-20T13:59:15.000Z</time>
      </trkpt>
      <trkpt lat="43.6585" lon="1.97114">
        <ele>133.4</ele>
        <time>2017-12-20T13:59:23.000Z</time>
      </trkpt>
      <trkpt lat="43.65841" lon="1.97115">
        <ele>133.4</ele>
        <time>2017-12-20T13:59:30.000Z</time>
      </trkpt>
      <trkpt lat="43.65832" lon="1.97115">
        <ele>133.5</ele>
        <time>2017-12-20T13:59:38.000Z</time>
      </trkpt>
      <trkpt lat="43.65822" lon="1.97114">
        <ele>133</ele>
        <time>2017-12-20T13:59:46.000Z</time>
      </trkpt>
      <trkpt lat="43.65813" lon="1.97114">
        <ele>133.4</ele>
        <time>2017-12-20T13:59:56.000Z</time>
      </trkpt>
      <trkpt lat="43.65804" lon="1.97113">
        <ele>133.4</ele>
        <time>2017-12-20T14:00:07.000Z</time>
      </trkpt>
      <trkpt lat="43.65794" lon="1.97113">
        <ele>133.2</ele>
        <time>2017-12-20T14:00:17.000Z</time>
      </trkpt>
      <trkpt lat="43.65785" lon="1.97116">
        <ele>133.6</ele>
        <time>2017-12-20T14:00:27.000Z</time>
      </trkpt>
      <trkpt lat="43.65778" lon="1.97125">
        <ele>133.8</ele>
        <time>2017-12-20T14:00:57.000Z</time>
      </trkpt>
      <trkpt lat="43.65773" lon="1.97136">
        <ele>133.8</ele>
        <time>2017-12-20T14:01:04.000Z</time>
      </trkpt>
      <trkpt lat="43.65769" lon="1.97147">
        <ele>133.8</ele>
        <time>2017-12-20T14:01:12.000Z</time>
      </trkpt>
      <trkpt lat="43.65762" lon="1.97157">
        <ele>133.8</ele>
        <time>2017-12-20T14:01:19.000Z</time>
      </trkpt>
      <trkpt lat="43.65756" lon="1.97167">
        <ele>133.1</ele>
        <time>2017-12-20T14:01:27.000Z</time>
      </trkpt>
      <trkpt lat="43.65752" lon="1.97178">
        <ele>133.1</ele>
        <time>2017-12-20T14:01:36.000Z</time>
      </trkpt>
      <trkpt lat="43.6575" lon="1.97191">
        <ele>132.8</ele>
        <time>2017-12-20T14:01:46.000Z</time>
      </trkpt>
      <trkpt lat="43.65746" lon="1.97203">
        <ele>131.7</ele>
        <time>2017-12-20T14:01:55.000Z</time>
      </trkpt>
      <trkpt lat="43.65741" lon="1.97214">
        <ele>132.8</ele>
        <time>2017-12-20T14:02:03.000Z</time>
      </trkpt>
      <trkpt lat="43.65735" lon="1.97224">
        <ele>133.7</ele>
        <time>2017-12-20T14:02:11.000Z</time>
      </trkpt>
      <trkpt lat="43.65731" lon="1.97236">
        <ele>133.7</ele>
        <time>2017-12-20T14:02:19.000Z</time>
      </trkpt>
      <trkpt lat="43.65726" lon="1.97249">
        <ele>133.5</ele>
        <time>2017-12-20T14:02:27.000Z</time>
      </trkpt>
      <trkpt lat="43.65721" lon="1.9726">
        <ele>133.2</ele>
        <time>2017-12-20T14:02:36.000Z</time>
      </trkpt>
      <trkpt lat="43.6572" lon="1.97273">
        <ele>133</ele>
        <time>2017-12-20T14:02:44.000Z</time>
      </trkpt>
      <trkpt lat="43.65715" lon="1.97283">
        <ele>132.9</ele>
        <time>2017-12-20T14:02:50.000Z</time>
      </trkpt>
      <trkpt lat="43.6571" lon="1.97295">
        <ele>132.4</ele>
        <time>2017-12-20T14:03:00.000Z</time>
      </trkpt>
      <trkpt lat="43.65705" lon="1.97306">
        <ele>132.1</ele>
        <time>2017-12-20T14:03:11.000Z</time>
      </trkpt>
      <trkpt lat="43.65698" lon="1.97316">
        <ele>132.1</ele>
        <time>2017-12-20T14:03:18.000Z</time>
      </trkpt>
      <trkpt lat="43.65693" lon="1.97328">
        <ele>130.5</ele>
        <time>2017-12-20T14:03:25.000Z</time>
      </trkpt>
      <trkpt lat="43.65688" lon="1.97339">
        <ele>131.7</ele>
        <time>2017-12-20T14:03:31.000Z</time>
      </trkpt>
      <trkpt lat="43.65683" lon="1.97351">
        <ele>132.5</ele>
        <time>2017-12-20T14:03:39.000Z</time>
      </trkpt>
      <trkpt lat="43.65677" lon="1.97361">
        <ele>132.7</ele>
        <time>2017-12-20T14:03:48.000Z</time>
      </trkpt>
      <trkpt lat="43.65672" lon="1.97373">
        <ele>132.6</ele>
        <time>2017-12-20T14:03:56.000Z</time>
      </trkpt>
      <trkpt lat="43.65667" lon="1.97385">
        <ele>132.6</ele>
        <time>2017-12-20T14:04:04.000Z</time>
      </trkpt>
      <trkpt lat="43.65663" lon="1.97396">
        <ele>132.6</ele>
        <time>2017-12-20T14:04:12.000Z</time>
      </trkpt>
      <trkpt lat="43.65659" lon="1.97408">
        <ele>132.6</ele>
        <time>2017-12-20T14:04:19.000Z</time>
      </trkpt>
      <trkpt lat="43.65654" lon="1.97419">
        <ele>132.6</ele>
        <time>2017-12-20T14:04:27.000Z</time>
      </trkpt>
      <trkpt lat="43.65649" lon="1.9743">
        <ele>132.9</ele>
        <time>2017-12-20T14:04:35.000Z</time>
      </trkpt>
      <trkpt lat="43.65645" lon="1.97441">
        <ele>133.1</ele>
        <time>2017-12-20T14:04:43.000Z</time>
      </trkpt>
      <trkpt lat="43.6564" lon="1.97453">
        <ele>133.3</ele>
        <time>2017-12-20T14:04:50.000Z</time>
      </trkpt>
      <trkpt lat="43.65634" lon="1.97462">
        <ele>133.4</ele>
        <time>2017-12-20T14:04:57.000Z</time>
      </trkpt>
      <trkpt lat="43.65628" lon="1.97474">
        <ele>133.5</ele>
        <time>2017-12-20T14:05:05.000Z</time>
      </trkpt>
      <trkpt lat="43.65625" lon="1.97487">
        <ele>133.5</ele>
        <time>2017-12-20T14:05:14.000Z</time>
      </trkpt>
      <trkpt lat="43.65618" lon="1.97496">
        <ele>133.5</ele>
        <time>2017-12-20T14:05:21.000Z</time>
      </trkpt>
      <trkpt lat="43.65613" lon="1.97507">
        <ele>133.5</ele>
        <time>2017-12-20T14:05:29.000Z</time>
      </trkpt>
      <trkpt lat="43.65608" lon="1.97518">
        <ele>133.5</ele>
        <time>2017-12-20T14:05:35.000Z</time>
      </trkpt>
      <trkpt lat="43.65603" lon="1.97529">
        <ele>133.6</ele>
        <time>2017-12-20T14:05:43.000Z</time>
      </trkpt>
      <trkpt lat="43.65598" lon="1.97541">
        <ele>133.6</ele>
        <time>2017-12-20T14:05:51.000Z</time>
      </trkpt>
      <trkpt lat="43.65595" lon="1.97554">
        <ele>133.6</ele>
        <time>2017-12-20T14:05:59.000Z</time>
      </trkpt>
      <trkpt lat="43.6559" lon="1.97566">
        <ele>133.6</ele>
        <time>2017-12-20T14:06:07.000Z</time>
      </trkpt>
      <trkpt lat="43.65584" lon="1.97577">
        <ele>133.6</ele>
        <time>2017-12-20T14:06:14.000Z</time>
      </trkpt>
      <trkpt lat="43.65579" lon="1.97587">
        <ele>133.6</ele>
        <time>2017-12-20T14:06:21.000Z</time>
      </trkpt>
      <trkpt lat="43.65573" lon="1.97597">
        <ele>133.6</ele>
        <time>2017-12-20T14:06:29.000Z</time>
      </trkpt>
      <trkpt lat="43.65569" lon="1.97609">
        <ele>133.6</ele>
        <time>2017-12-20T14:06:37.000Z</time>
      </trkpt>
      <trkpt lat="43.65564" lon="1.9762">
        <ele>133.6</ele>
        <time>2017-12-20T14:06:46.000Z</time>
      </trkpt>
      <trkpt lat="43.65559" lon="1.97631">
        <ele>133.6</ele>
        <time>2017-12-20T14:06:54.000Z</time>
      </trkpt>
      <trkpt lat="43.65552" lon="1.97642">
        <ele>133.6</ele>
        <time>2017-12-20T14:07:02.000Z</time>
      </trkpt>
      <trkpt lat="43.65548" lon="1.97653">
        <ele>133.6</ele>
        <time>2017-12-20T14:07:10.000Z</time>
      </trkpt>
      <trkpt lat="43.65543" lon="1.97665">
        <ele>133.6</ele>
        <time>2017-12-20T14:07:18.000Z</time>
      </trkpt>
      <trkpt lat="43.65538" lon="1.97676">
        <ele>133.6</ele>
        <time>2017-12-20T14:07:26.000Z</time>
      </trkpt>
      <trkpt lat="43.65532" lon="1.97687">
        <ele>133.6</ele>
        <time>2017-12-20T14:07:33.000Z</time>
      </trkpt>
      <trkpt lat="43.65527" lon="1.97697">
        <ele>133.6</ele>
        <time>2017-12-20T14:07:41.000Z</time>
      </trkpt>
      <trkpt lat="43.65522" lon="1.97707">
        <ele>133.6</ele>
        <time>2017-12-20T14:07:48.000Z</time>
      </trkpt>
      <trkpt lat="43.65516" lon="1.97718">
        <ele>133.6</ele>
        <time>2017-12-20T14:07:55.000Z</time>
      </trkpt>
      <trkpt lat="43.65511" lon="1.97729">
        <ele>133.6</ele>
        <time>2017-12-20T14:08:04.000Z</time>
      </trkpt>
      <trkpt lat="43.65503" lon="1.97738">
        <ele>133.6</ele>
        <time>2017-12-20T14:08:13.000Z</time>
      </trkpt>
      <trkpt lat="43.65497" lon="1.97748">
        <ele>133.5</ele>
        <time>2017-12-20T14:08:21.000Z</time>
      </trkpt>
      <trkpt lat="43.65491" lon="1.9776">
        <ele>133.5</ele>
        <time>2017-12-20T14:08:29.000Z</time>
      </trkpt>
      <trkpt lat="43.65486" lon="1.97772">
        <ele>133.5</ele>
        <time>2017-12-20T14:08:36.000Z</time>
      </trkpt>
      <trkpt lat="43.6548" lon="1.97783">
        <ele>133.5</ele>
        <time>2017-12-20T14:08:43.000Z</time>
      </trkpt>
      <trkpt lat="43.65474" lon="1.97793">
        <ele>133.5</ele>
        <time>2017-12-20T14:08:51.000Z</time>
      </trkpt>
      <trkpt lat="43.65469" lon="1.97803">
        <ele>133.5</ele>
        <time>2017-12-20T14:08:58.000Z</time>
      </trkpt>
      <trkpt lat="43.65463" lon="1.97814">
        <ele>133.5</ele>
        <time>2017-12-20T14:09:06.000Z</time>
      </trkpt>
      <trkpt lat="43.65459" lon="1.97826">
        <ele>133.6</ele>
        <time>2017-12-20T14:09:15.000Z</time>
      </trkpt>
      <trkpt lat="43.65453" lon="1.97835">
        <ele>133.7</ele>
        <time>2017-12-20T14:09:23.000Z</time>
      </trkpt>
      <trkpt lat="43.65443" lon="1.97828">
        <ele>133.8</ele>
        <time>2017-12-20T14:09:31.000Z</time>
      </trkpt>
      <trkpt lat="43.65436" lon="1.9782">
        <ele>133.8</ele>
        <time>2017-12-20T14:09:38.000Z</time>
      </trkpt>
      <trkpt lat="43.65429" lon="1.97811">
        <ele>133.8</ele>
        <time>2017-12-20T14:09:48.000Z</time>
      </trkpt>
      <trkpt lat="43.65425" lon="1.97799">
        <ele>133.8</ele>
        <time>2017-12-20T14:09:58.000Z</time>
      </trkpt>
      <trkpt lat="43.6543" lon="1.97787">
        <ele>133.8</ele>
        <time>2017-12-20T14:10:07.000Z</time>
      </trkpt>
      <trkpt lat="43.65436" lon="1.97777">
        <ele>133.8</ele>
        <time>2017-12-20T14:10:16.000Z</time>
      </trkpt>
      <trkpt lat="43.6544" lon="1.97765">
        <ele>133.8</ele>
        <time>2017-12-20T14:10:25.000Z</time>
      </trkpt>
      <trkpt lat="43.65447" lon="1.97757">
        <ele>133.7</ele>
        <time>2017-12-20T14:10:33.000Z</time>
      </trkpt>
      <trkpt lat="43.65457" lon="1.97761">
        <ele>133.7</ele>
        <time>2017-12-20T14:10:43.000Z</time>
      </trkpt>
      <trkpt lat="43.65453" lon="1.97757">
        <ele>131.6</ele>
        <time>2017-12-20T14:14:36.000Z</time>
      </trkpt>
    </trkseg>
  </trk>
</gpx>